     2.11           OBSERVATION DATA    G (GPS)             RINEX VERSION / TYPE
teqc 2010Oct21 OPUS Account 20111025 20:36:03UTC            PGM / RUN BY / DATE
C 1522                                                      MARKER NAME
1158                                                        MARKER NUMBER
CSMIDDLETON NGS                                             OBSERVER / AGENCY
4624K01647 TRIMBLE NETR5 4.41                               REC # / TYPE / VERS
12694052 TRM41249.00 NONE                                   ANT # / TYPE
  -739194.3587 -5490156.4815  3150741.9352                  APPROX POSITION XYZ
        2.0040        0.0000        0.0000                  ANTENNA: DELTA H/E/N
     1     1                                                WAVELENGTH FACT L1/2
     5    L1    L2    C1    P1    P2                        # / TYPES OF OBSERV
    15                                                      LEAP SECONDS
  2011     7    29     0     0    0.0000000     GPS         TIME OF FIRST OBS
                                                            END OF HEADER
 11  7 29  0  0  0.0000000  0  9G12G17G28G04G20G27G09G02G10
 131361212.061 5                  24997219.398
 112634503.875 8  87767265.39546  21433613.563                    21433620.570
 114946782.445 7  89568965.68845  21873630.656                    21873638.199
 104547502.759 8  81465516.47046  19894648.727                    19894656.051
 127592395.924 6  99422724.57042  24280028.992                    24280037.563
 117764858.269 7  91764805.54145  22409886.422                    22409894.414
 116429520.063 7  90724361.18645  22155801.945                    22155809.488
 116754941.961 8  90977948.86645  22217680.422                    22217686.535
 122986801.789 6  95833999.99544  23403592.148                    23403602.176
 11  7 29  0  0 30.0000000  0  9G12G17G28G04G20G27G09G02G10
 131265082.906 5                  24978925.188
 112666011.691 8  87791816.92446  21439609.664                    21439616.734
 114999427.836 7  89609988.02645  21883649.422                    21883656.402
 104537609.501 8  81457807.44846  19892766.336                    19892773.063
 127631099.659 6  99452883.29242  24287394.016                    24287402.691
 117757341.467 7  91758948.28645  22408455.555                    22408463.941
 116405859.624 7  90705924.48944  22151298.930                    22151307.102
 116677662.162 8  90917730.91345  22202974.930                    22202981.379
 122893665.372 6  95761426.28043  23385869.313                    23385879.000
 11  7 29  0  1  0.0000000  0  9G12G17G28G04G20G27G09G02G10
 131168902.187 5                  24960624.102
 112697608.941 8  87816438.14946  21445622.219                    21445628.797
 115052446.770 7  89651301.45645  21893738.477                    21893745.355
 104528285.997 8  81450542.38846  19890992.219                    19890999.438
 127670291.009 6  99483421.98842  24294851.914                    24294860.227
 117750315.455 8  91753473.46245  22407119.039                    22407127.160
 116382836.177 7  90687984.13544  22146917.469                    22146925.313
 116600684.183 8  90857748.13845  22188326.313                    22188332.324
 122800598.203 6  95688906.53843  23368158.273                    23368168.383
 11  7 29  0  1 30.0000000  0  9G12G17G28G04G20G27G09G02G10
 131072671.709 5                  24942312.234
 112729295.539 8  87841128.99946  21451651.820                    21451659.133
 115105839.117 7  89692905.87745  21903898.563                    21903905.570
 104519532.123 8  81443721.19546  19889326.141                    19889333.074
 127709969.224 6  99514340.14242  24302402.414                    24302410.574
 117743780.076 7  91748380.95045  22405875.109                    22405883.207
 116360450.431 7  90670540.70045  22142657.445                    22142665.340
 116524008.915 8  90798001.23745  22173735.227                    22173741.754
 122707604.098 6  95616443.70743  23350462.586                    23350471.793
 11  7 29  0  2  0.0000000  0  9G12G17G28G04G20G27G09G02G10
 130976392.701 6                  24923991.172
 112761070.545 7  87865888.72146  21457698.852                    21457705.441
 115159604.731 7  89734801.12045  21914129.609                    21914137.199
 104511346.698 8  81437342.95346  19887768.461                    19887775.758
 127750133.065 6  99545636.61442  24310045.508                    24310053.703
 117737734.933 7  91743670.43645  22404724.859                    22404733.094
 116338702.420 7  90653594.20345  22138519.242                    22138527.184
 116447637.388 8  90738491.02145  22159202.273                    22159208.496
 122614685.867 6  95544040.02043  23332780.500                    23332789.887
 11  7 29  0  2 30.0000000  0  9G12G17G28G04G20G27G09G02G10
 130880066.792 6 101984539.76352  24905660.695                    24905668.391
 112792934.397 8  87890717.69146  21463762.305                    21463769.023
 115213743.512 7  89776987.14745  21924432.156                    21924439.383
 104503729.820 8  81431407.73946  19886318.766                    19886326.094
 127790782.262 6  99577311.29542  24317780.461                    24317788.586
 117732180.040 7  91739341.93645  22403668.047                    22403676.418
 116317593.015 7  90637145.32145  22134502.563                    22134510.281
 116371571.221 8  90679218.73945  22144727.273                    22144733.586
 122521846.812 6  95471698.02543  23315113.555                    23315123.813
 11  7 29  0  3  0.0000000  0  9G12G17G28G04G20G27G09G02G10
 130783695.431 6 101909445.19842  24887321.484                    24887329.809
 112824886.663 7  87915615.54746  21469842.148                    21469849.465
 115268255.336 7  89819463.85845  21934805.641                    21934812.695
 104496680.329 8  81425914.64846  19884977.641                    19884984.641
 127831915.481 6  99609363.13842  24325607.734                    24325616.082
 117727114.897 7  91735395.05645  22402703.859                    22402711.961
 116297121.981 7  90621193.87445  22130606.664                    22130615.309
 116295811.486 8  90620185.23845  22130310.508                    22130316.684
 122429089.819 6  95399419.97844  23297463.164                    23297472.219
 11  7 29  0  3 30.0000000  0  9G12G17G28G04G20G27G09G02G10
 130687280.027 6 101834316.31043  24868974.313                    24868982.973
 112856927.677 8  87940582.56246  21475939.523                    21475946.172
 115323140.693 7  89862231.64445  21945249.922                    21945256.945
 104490198.182 8  81420863.63146  19883743.938                    19883751.203
 127873532.376 6  99641791.90942  24333527.266                    24333535.930
 117722539.452 7  91731829.76345  22401833.188                    22401841.816
 116277289.985 7  90605740.38245  22126832.813                    22126840.957
 116220359.643 8  90561391.65745  22115952.789                    22115958.813
 122336418.425 6  95327208.62744  23279827.391                    23279837.582
 11  7 29  0  4  0.0000000  0  9G12G17G28G04G20G27G09G02G10
 130590821.920 6 101759154.18942  24850620.016                    24850627.859
 112889055.928 8  87965617.54846  21482053.234                    21482060.285
 115378398.827 7  89905289.89545  21955765.227                    21955772.594
 104484282.345 8  81416253.89946  19882618.195                    19882625.332
 127915631.706 6  99674596.53942  24341538.367                    24341547.887
 117718453.258 7  91728645.69845  22401055.695                    22401063.746
 116258097.212 7  90590784.98345  22123181.063                    22123189.066
 116145216.598 8  90502838.68645  22101653.328                    22101659.477
 122243835.519 6  95255066.24644  23262209.656                    23262219.375
 11  7 29  0  4 30.0000000  0  9G12G17G28G04G20G27G09G02G10
 130494322.765 6 101683960.07743  24832255.383                    24832264.070
 112921271.894 7  87990720.89446  21488184.219                    21488190.797
 115434029.863 7  89948638.72945  21966351.367                    21966358.445
 104478932.409 8  81412085.13846  19881599.828                    19881607.359
 127958212.666 6  99707776.43542  24349641.859                    24349649.941
 117714856.161 7  91725842.74845  22400371.180                    22400379.145
 116239543.920 7  90576327.87945  22119649.781                    22119658.211
 116070383.768 8  90444527.43245  22087413.133                    22087419.113
 122151344.522 6  95182995.47744  23244609.172                    23244618.559
 11  7 29  0  5  0.0000000  0  9G12G17G28G04G20G27G09G02G10
 130397784.192 6 101608735.26043  24813884.898                    24813894.285
 112953575.004 8  88015892.12446  21494331.531                    21494338.566
 115490033.567 7  89992277.94645  21977008.281                    21977015.230
 104474147.795 8  81408356.87946  19880689.695                    19880697.008
 128001274.215 6  99741330.87543  24357835.578                    24357843.691
 117711747.717 7  91723420.56045  22399779.656                    22399787.977
 116221630.524 7  90562369.40145  22116241.016                    22116249.934
 115995862.447 8  90386458.92445  22073231.656                    22073238.000
 122058948.637 6  95110998.82544  23227026.906                    23227036.293
 11  7 29  0  5 30.0000000  0  9G12G17G28G04G20G27G09G02G10
 130301207.559 6 101533480.78743  24795507.219                    24795515.426
 112985965.354 8  88041131.34846  21500494.344                    21500501.738
 115546409.725 7  90036207.38945  21987737.203                    21987743.719
 104469927.765 8  81405068.55946  19879886.359                    19879893.566
 128044815.523 6  99775259.17542  24366122.680                    24366129.590
 117709127.572 7  91721378.86645  22399281.031                    22399289.016
 116204357.121 7  90548909.62745  22112954.180                    22112962.191
 115921653.683 8  90328633.95945  22059110.656                    22059116.797
 121966651.237 6  95039078.91444  23209462.883                    23209472.344
 11  7 29  0  6  0.0000000  0  9G12G17G28G04G20G27G09G02G10
 130204594.670 6 101458198.02743  24777122.773                    24777130.039
 113018442.647 8  88066438.32046  21506674.898                    21506681.895
 115603158.125 7  90080426.90245  21998535.563                    21998542.480
 104466271.639 8  81402219.64046  19879190.734                    19879198.410
 128088835.345 6  99809560.34442  24374498.078                    24374506.703
 117706995.441 7  91719717.45845  22398875.219                    22398883.441
 116187723.827 7  90535948.61845  22109789.086                    22109797.133
 115847758.724 7  90271053.52245  22045048.789                    22045054.727
 121874455.329 6  94967238.08844  23191918.711                    23191928.195
 11  7 29  0  6 30.0000000  0  9G12G17G28G04G20G27G09G02G10
 130107947.151 6 101382888.34643  24758730.383                    24758739.387
 113051006.821 7  88091812.98846  21512871.805                    21512878.738
 115660279.038 7  90124936.67545  22009405.328                    22009412.098
 104463179.049 8  81399809.83746  19878602.250                    19878609.676
 128133332.976 6  99844233.84142  24382965.797                    24382974.270
 117705351.034 7  91718436.07645  22398562.789                    22398570.840
 116171731.171 7  90523486.81845  22106745.867                    22106753.738
 115774178.832 8  90213718.59045  22031046.961                    22031052.773
 121782364.324 6  94895479.03944  23174393.555                    23174403.617
 11  7 29  0  7  0.0000000  0  9G12G17G28G04G20G27G09G02G10
 130011265.746 6 101307552.23243  24740333.125                    24740341.625
 113083657.364 7  88117254.95146  21519084.273                    21519092.090
 115717771.624 7  90169736.05845  22020345.719                    22020353.020
 104460648.716 8  81397838.16446  19878120.664                    19878127.875
 128178307.30616  99879278.72953  24391523.828                    24391532.477
 117704193.598 7  91717534.16145  22398342.367                    22398350.438
 116156379.039 7  90511524.12345  22103824.359                    22103832.801
 115700915.023 8  90156629.96145  22017105.039                    22017111.539
 121690381.631 7  94823804.34744  23156889.836                    23156899.484
 11  7 29  0  7 30.0000000  0  9G12G17G28G04G20G27G09G02G10
 129914552.985 6 101232191.69643  24721928.914                    24721936.930
 113116394.436 7  88142764.35146  21525314.734                    21525321.871
 115775636.044 7  90214825.17245  22031357.102                    22031364.086
 104458680.141 8  81396304.22146  19877746.484                    19877753.531
 128223757.352 6  99914694.32242  24400173.109                    24400181.664
 117703522.951 7  91717011.56945  22398214.602                    22398223.152
 116141667.313 7  90500060.44545  22101024.578                    22101032.715
 115627968.438 8  90099788.51445  22003223.938                    22003229.789
 121598510.137 7  94752216.31544  23139407.063                    23139417.230
 11  7 29  0  8  0.0000000  0  9G12G17G28G04G20G27G09G02G10
 129817810.073 6 101156807.63943  24703519.164                    24703527.465
 113149217.778 7  88168340.98246  21531560.367                    21531567.605
 115833871.924 7  90260203.74745  22042438.875                    22042446.477
 104457272.672 8  81395207.50246  19877478.641                    19877485.859
 128269682.183 6  99950479.85143  24408912.617                    24408920.863
 117703338.774 7  91716868.02345  22398179.836                    22398187.445
 116127596.221 7  90489095.94845  22098347.297                    22098354.973
 115555340.272 8  90043195.18345  21989403.406                    21989409.621
 121506753.342 6  94680717.65344  23121946.375                    23121955.664
 11  7 29  0  8 30.0000000  0  9G12G17G28G04G20G27G09G02G10
 129721038.327 6 101081401.16043  24685104.570                    24685112.508
 113182127.163 7  88193984.63846  21537823.273                    21537830.391
 115892478.894 7  90305871.47845  22053591.516                    22053598.945
 104456425.203 8  81394547.15046  19877317.078                    19877324.781
 128316080.379 6  99986634.23343  24417742.195                    24417750.008
 117703640.362 7  91717103.01345  22398236.891                    22398245.320
 116114165.752 7  90478630.65245  22095791.766                    22095799.543
 115483031.586 8  89986850.80045  21975643.391                    21975649.352
 121415114.594 6  94609310.96044  23104507.836                    23104517.297
 11  7 29  0  9  0.0000000  0  9G12G17G28G04G20G27G09G02G10
 129624239.653 6 101005973.66543  24666684.641                    24666692.258
 113215121.845 7  88219694.76746  21544101.711                    21544108.695
 115951456.452 7  90351827.98545  22064814.664                    22064821.801
 104456136.636 8  81394322.29646  19877262.375                    19877269.621
 128362950.699 6 100023156.60943  24426660.828                    24426669.215
 117704426.978 7  91717715.94445  22398387.047                    22398395.078
 116101375.640 7  90468664.32845  22093358.023                    22093365.980
 115411043.285 8  89930756.06845  21961944.438                    21961950.473
 121323596.785 6  94537998.52644  23087092.617                    23087102.539
 11  7 29  0  9 30.0000000  0  9G12G17G28G04G20G27G09G02G10
 129527415.756 6 100930526.56743  24648258.086                    24648267.375
 113248202.192 8  88245471.64746  21550397.039                    21550403.781
 116010804.708 7  90398073.34545  22076108.063                    22076115.688
 104456406.561 8  81394532.63546  19877313.367                    19877320.965
 128410292.483 6 100060046.28143  24435669.563                    24435677.883
 117705698.405 7  91718706.65545  22398628.805                    22398636.938
 116089225.976 7  90459197.06145  22091045.234                    22091053.742
 115339376.431 8  89874911.80646  21948306.625                    21948312.676
 121232203.462 6  94466783.08244  23069700.609                    23069710.777
 11  7 29  0 10  0.0000000  0  9G12G17G28G04G20G27G09G02G10
 129430567.947 6 100855060.81643  24629829.203                    24629838.184
 113281368.128 7  88271315.22546  21556708.031                    21556715.043
 116070523.557 7  90444607.44645  22087472.344                    22087479.695
 104457234.087 8  81395177.47346  19877471.094                    19877478.246
 128458104.525 6 100097302.41243  24444768.656                    24444776.648
 117707454.094 7  91720074.70845  22398962.508                    22398970.758
 116077716.742 7  90450228.82145  22088855.500                    22088863.695
 115268032.506 8  89819319.19545  21934730.508                    21934736.227
 121140937.713 6  94395667.02744  23052333.000                    23052343.039
 11  7 29  0 10 30.0000000  0  9G12G17G28G04G20G27G09G02G10
 129333697.990 6 100779577.79343  24611395.859                    24611403.453
 113314619.243 7  88297225.17046  21563035.328                    21563042.434
 116130612.334 7  90491429.85445  22098907.117                    22098913.945
 104458618.167 8  81396255.98946  19877734.125                    19877741.711
 128506385.573 6 100134924.03143  24453955.922                    24453963.691
 117709693.372 7  91721819.58045  22399388.398                    22399396.867
 116066847.784 7  90441759.49445  22086787.586                    22086795.301
 115197012.290 8  89763978.82045  21921215.625                    21921221.289
 121049802.836 6  94324652.96144  23034991.625                    23035000.813
 11  7 29  0 11  0.0000000  0  9G12G17G28G04G20G27G09G02G10
 129236807.481 6 100704078.75343  24592957.211                    24592966.762
 113347955.463 7  88323201.42746  21569378.688                    21569386.113
 116191070.517 7  90538540.08545  22110412.086                    22110419.172
 104460557.809 8  81397767.40946  19878103.531                    19878110.484
 128555134.320 6 100172910.03643  24463231.234                    24463240.773
 117712415.695 7  91723940.84445  22399906.844                    22399914.750
 116056618.828 7  90433788.86345  22084840.867                    22084848.449
 115126316.957 8  89708891.59445  21907762.516                    21907768.426
 120958802.097 6  94253743.43144  23017674.008                    23017683.906
 11  7 29  0 11 30.0000000  0  9G12G17G28G04G20G27G09G02G10
 129139897.993 6 100628564.98444  24574516.031                    24574524.949
 113381376.435 7  88349243.73146  21575738.938                    21575745.918
 116251897.966 7  90585938.04645  22121986.656                    22121994.016
 104463052.247 8  81399711.13246  19878578.016                    19878585.711
 128604349.635 6 100211259.60642  24472596.852                    24472605.816
 117715620.387 7  91726437.98745  22400516.961                    22400525.254
 116047029.936 7  90426316.99945  22083016.094                    22083023.945
 115055947.497 8  89654058.30045  21894371.359                    21894377.547
 120867939.116 6  94182941.22244  23000383.234                    23000393.008
 11  7 29  0 12  0.0000000  0  9G12G17G28G04G20G27G09G02G10
 129042971.384 6 100553037.81943  24556072.367                    24556080.660
 113414882.591 7  88375352.40946  21582114.719                    21582121.820
 116313094.429 7  90633623.57045  22133632.188                    22133639.578
 104466100.414 8  81402086.33646  19879158.102                    19879165.637
 128654030.327 6 100249971.86542  24482051.539                    24482059.699
 117719306.877 7  91729310.55945  22401218.383                    22401226.129
 116038080.850 7  90419343.67445  22081313.227                    22081320.840
 114985905.051 8  89599479.81945  21881042.969                    21881048.953
 120777217.144 6  94112248.89244  22983119.352                    22983128.855
 11  7 29  0 12 30.0000000  0  9G12G17G28G04G20G27G09G02G10
 128946029.241 6 100477498.54943  24537624.711                    24537632.816
 113448473.496 7  88401527.12046  21588507.078                    21588514.340
 116374659.358 7  90681596.20545  22145347.633                    22145354.582
 104469701.355 8  81404892.27446  19879843.266                    19879850.410
 128704175.199 5 100289045.79842  24491592.422                    24491601.895
 117723474.421 7  91732557.96745  22402011.680                    22402020.145
 116029771.251 7  90412868.65245  22079732.148                    22079740.066
 114916190.646 8  89545156.96545  21867776.625                    21867782.719
 120686639.124 6  94041668.73044  22965883.117                    22965892.953
 11  7 29  0 13  0.0000000  0  9G12G17G28G04G20G27G09G02G10
 128849073.152 6 100401948.39143  24519174.219                    24519182.668
 113482149.043 7  88427767.78945  21594914.898                    21594922.332
 116436592.633 7  90729855.86845  22157133.609                    22157140.754
 104473854.367 8  81408128.40146  19880633.719                    19880641.379
 128754783.127 6 100328480.51542  24501223.922                    24501232.633
 117728122.573 7  91736179.87745  22402896.180                    22402904.145
 116022101.112 7  90406891.89645  22078272.297                    22078279.602
 114846805.357 8  89491090.56645  21854572.867                    21854578.840
 120596208.530 6  93971203.44444  22948675.039                    22948684.324
 11  7 29  0 13 30.0000000  0  9G12G17G28G04G20G27G09G02G10
 128752104.991 7 100326388.82343  24500722.086                    24500730.105
 113515909.118 7  88454074.32846  21601339.820                    21601346.477
 116498893.623 7  90778402.06545  22168988.758                    22168995.953
 104478558.130 8  81411793.68246  19881528.609                    19881535.934
 128805852.783 6 100368275.04842  24510942.430                    24510950.969
 117733250.513 7  91740175.66745  22403871.672                    22403880.355
 116015070.011 7  90401413.10845  22076934.141                    22076942.000
 114777749.990 8  89437281.23346  21841432.070                    21841438.082
 120505928.721 7  93900855.63644  22931494.578                    22931504.137
 11  7 29  0 14  0.0000000  0  9G12G17G28G04G20G27G09G02G10
 128655126.188 6 100250820.98343  24482267.563                    24482275.633
 113549753.292 7  88480446.40546  21607780.031                    21607787.355
 116561561.947 7  90827234.48845  22180914.172                    22180921.492
 104483811.348 8  81415887.10346  19882528.523                    19882535.715
 128857382.519 6 100408428.06642  24520748.078                    24520756.867
 117738857.258 7  91744544.53345  22404938.531                    22404947.109
 116008677.434 7  90396431.85745  22075718.156                    22075725.883
 114709025.623 8  89383729.82345  21828354.313                    21828360.051
 120415802.786 7  93830627.74344  22914344.352                    22914353.680
 11  7 29  0 14 30.0000000  0  9G12G17G28G04G20G27G09G02G10
 128558138.891 6 100175246.50343  24463811.305                    24463819.883
 113583682.269 7  88506884.54146  21614236.781                    21614243.594
 116624597.174 7  90876352.79145  22192908.531                    22192916.699
 104489613.619 8  81420408.36546  19883632.281                    19883639.824
 128909371.523 6 100448939.00242  24530641.578                    24530649.980
 117744942.639 7  91749286.36845  22406096.773                    22406105.156
 116002923.521 7  90391948.27045  22074622.859                    22074630.789
 114640633.295 8  89330437.16745  21815339.789                    21815345.633
 120325834.485 7  93760522.68944  22897224.188                    22897233.480
 11  7 29  0 15  0.0000000  0  9G12G17G28G04G20G27G09G02G10
 128461144.392 6 100099666.44443  24445353.711                    24445362.145
 113617695.251 7  88533388.14246  21620708.680                    21620716.293
 116687998.703 7  90925756.53745  22204974.781                    22204982.027
 104495962.986 8  81425355.93646  19884840.898                    19884848.199
 128961817.97816 100489806.34552  24540621.977                    24540630.055
 117751505.249 7  91754400.05745  22407345.484                    22407353.367
 115997807.250 7  90387961.55345  22073649.250                    22073657.254
 114572573.661 8  89277403.71945  21802388.656                    21802394.348
 120236026.452 7  93690542.49644  22880133.859                    22880143.496
 11  7 29  0 15 30.0000000  0  9G12G17G28G04G20G27G09G02G10
 128364144.725 6 100024082.36543  24426895.344                    24426903.773
 113651793.029 7  88559957.83746  21627197.625                    21627204.410
 116751766.444 7  90975445.63345  22217108.508                    22217116.074
 104502859.191 8  81430729.61446  19886153.109                    19886160.457
 129014721.009 5                  24550688.414
 117758545.031 7  91759885.59645  22408685.398                    22408693.875
 115993328.807 7  90384471.84345  22072796.781                    22072805.043
 114504848.357 8  89224630.81945  21789500.828                    21789506.344
 120146382.796 7  93620690.41244  22863075.367                    22863084.750
 11  7 29  0 16  0.0000000  0  9G12G17G28G04G20G27G09G02G10
 128267141.502 6  99948495.48243  24408436.234                    24408444.402
 113685975.283 7  88586593.34845  21633702.492                    21633709.527
 116815899.753 7  91025419.59145  22229312.781                    22229320.516
 104510300.953 8  81436528.39446  19887569.352                    19887576.785
 129068079.366 5                  24560843.000
 117766060.929 7  91765742.11245  22410115.469                    22410123.723
 115989487.571 7  90381478.65845  22072066.195                    22072074.121
 114437458.056 8  89172118.94746  21776676.461                    21776682.563
 120056906.520 7  93550968.73044  22846048.547                    22846057.676
 11  7 29  0 16 30.0000000  0  9G12G17G28G04G20G27G09G02G10
 128170136.668 6  99872907.36143  24389976.625                    24389984.980
 113720241.005 8  88613293.89346  21640223.094                    21640230.160
 116880398.273 7  91075678.12645  22241587.180                    22241594.363
 104518287.020 8  81442751.31546  19889088.797                    19889096.359
 129121891.51115                  24571082.375
 117774052.013 7  91771968.90345  22411636.219                    22411644.559
 115986283.035 7  90378981.59845  22071456.250                    22071463.980
 114370403.467 8  89119868.66345  21763916.695                    21763922.855
 119967600.744 7  93481379.94144  22829054.141                    22829063.379
 11  7 29  0 17  0.0000000  0  9G12G17G28G04G20G27G09G02G10
 128073131.907 6  99797319.23043  24371517.039                    24371525.039
 113754590.558 8  88640059.77146  21646759.531                    21646766.859
 116945261.090 7  91126220.54645  22253929.883                    22253937.262
 104526815.847 8  81449397.16046  19890711.578                    19890719.383
 129176155.883 5                  24581409.078
 117782517.214 7  91778565.15845  22413247.289                    22413255.352
 115983714.495 7  90376980.13645  22070967.461                    22070975.387
 114303685.586 8  89067880.75145  21751220.414                    21751226.527
 119878468.486 7  93411926.34844  22812092.336                    22812101.922
 11  7 29  0 17 30.0000000  0  9G12G17G28G04G20G27G09G02G10
 127976128.897 6  99721732.52343  24353057.938                    24353066.164
 113789024.686 7  88666891.54246  21653312.234                    21653318.660
 117010487.778 7  91177046.47545  22266342.219                    22266349.746
 104535886.686 8  81456465.35246  19892437.656                    19892445.215
 129230871.752 5                  24591820.164
 117791456.083 7  91785530.49145  22414947.961                    22414956.109
 115981781.684 7  90375474.02345  22070599.500                    22070607.914
 114237305.727 8  89016156.22546  21738588.977                    21738594.586
 119789514.215 6  93342611.44144  22795164.461                    22795173.934
 11  7 29  0 18  0.0000000  0 10G05G12G17G28G04G20G27G09G02G10
 134844893.53115                  25660134.422
 127879129.378 6  99646148.53043  24334599.117                    24334608.219
 113823542.778 8  88693788.75346  21659880.648                    21659887.813
 117076077.826 7  91228155.55345  22278823.414                    22278831.184
 104545498.243 8  81463954.88146  19894266.875                    19894274.953
 129286036.679 5                  24602317.703
 117800867.361 7  91792863.93945  22416739.031                    22416747.391
 115980484.017 7  90374462.86445  22070352.617                    22070361.133
 114171264.095 8  88964695.27246  21726021.352                    21726027.164
 119700740.478 6  93273437.19744  22778271.289                    22778281.531
 11  7 29  0 18 30.0000000  0 10G05G12G17G28G04G20G27G09G02G10
 134747883.774 6                  25641673.258
 127782134.758 6  99570568.36143  24316142.125                    24316150.695
 113858144.004 7  88720750.74046  21666465.047                    21666472.203
 117142030.137 7  91279546.91445  22291373.922                    22291381.477
 104555648.470 8  81471864.15146  19896198.539                    19896206.070
 129341649.056 6                  24612901.148
 117810749.687 7  91800564.43545  22418619.500                    22418627.977
 115979820.130 7  90373945.53145  22070226.242                    22070234.430
 114105561.302 8  88913498.33845  21713518.219                    21713524.543
 119612150.025 7  93204405.77444  22761413.625                    22761422.582
 11  7 29  0 19  0.0000000  0 10G05G12G17G28G04G20G27G09G02G10
 134650668.280 6                  25623172.008
 127685147.118 6  99494993.65643  24297686.414                    24297694.227
 113892829.183 7  88747778.14346  21673065.375                    21673072.547
 117208344.499 7  91331220.39044  22303992.844                    22304000.809
 104566336.846 8  81480192.75746  19898232.406                    19898239.645
 129397708.056 5                  24623568.359
 117821102.849 7  91808631.81445  22420589.484                    22420597.727
 115979790.203 7  90373922.20745  22070220.648                    22070228.387
 114040198.906 8  88862566.63845  21701080.320                    21701085.945
 119523746.804 6  93135520.24844  22744591.156                    22744599.758
 11  7 29  0 19 30.0000000  0 10G05G12G17G28G04G20G27G09G02G10
 134553249.857 6                  25604634.672
 127588168.379 6  99419425.87843  24279231.219                    24279239.922
 113927598.326 7  88774870.98645  21679682.008                    21679688.688
 117275020.759 7  91383175.86744  22316681.266                    22316688.578
 104577562.212 8  81488939.80446  19900368.469                    19900376.207
 129454211.997 6 100873457.76452  24634321.328                    24634329.180
 117831925.810 7  91817065.26045  22422649.789                    22422657.422
 115980393.409 7  90374392.22645  22070335.352                    22070343.617
 113975177.302 7  88811900.49546  21688707.086                    21688713.133
 119435534.357 7  93066783.37244  22727805.039                    22727813.867
 11  7 29  0 20  0.0000000  0 10G05G12G17G28G04G20G27G09G02G10
 134455630.078 6 104770691.04953  25586057.438                    25586074.254
 127491200.425 6  99343866.47544  24260779.008                    24260787.680
 113962451.691 7  88802029.43546  21686314.133                    21686321.457
 117342058.195 7  91435412.78345  22329437.984                    22329445.449
 104589323.035 8  81498104.08046  19902606.242                    19902614.121
 129511159.400 6 100917832.33442  24645158.008                    24645165.488
 117843217.646 7  91825864.06645  22424798.273                    22424806.508
 115981629.019 7  90375355.03045  22070570.609                    22070578.539
 113910497.971 8  88761501.06346  21676399.352                    21676405.121
 119347515.447 7  92998197.29944  22711054.539                    22711063.836
 11  7 29  0 20 30.0000000  0 10G05G12G17G28G04G20G27G09G02G10
 134357811.180 6 104694469.12242  25567442.141                    25567460.770
 127394245.134 6  99268316.94443  24242329.523                    24242337.074
 113997388.591 7  88829252.99846  21692962.422                    21692969.816
 117409456.006 7  91487930.51645  22342263.625                    22342270.844
 104601618.242 8  81507684.76346  19904945.875                    19904953.535
 129568549.04316 100962551.57753  24656079.625                    24656087.141
 117854977.529 7  91835027.57645  22427036.133                    22427044.770
 115983496.282 7  90376810.03745  22070925.703                    22070933.898
 113846161.466 8  88711368.76245  21664156.383                    21664161.926
 119259693.948 7  92929765.05644  22694343.008                    22694351.547
 11  7 29  0 21  0.0000000  0 10G05G12G17G28G04G20G27G09G02G10
 134259795.037 6 104618093.53543  25548789.945                    25548807.258
 127297304.018 6  99192778.44343  24223882.328                    24223889.613
 114032409.205 7  88856541.77945  21699626.414                    21699633.715
 117477213.546 7  91540728.55644  22355157.758                    22355165.375
 104614446.150 8  81517680.53646  19907387.203                    19907394.609
 129626379.196 6 101007614.03742  24667083.594                    24667092.367
 117867204.056 7  91844554.72145  22429362.570                    22429370.832
 115985994.243 7  90378756.47345  22071400.773                    22071409.266
 113782168.653 8  88661504.27346  21651978.734                    21651984.469
 119172072.759 7  92861488.91144  22677669.391                    22677678.148
 11  7 29  0 21 30.0000000  0 10G05G12G17G28G04G20G27G09G02G10
 134161583.008 6 104541565.19642  25530100.664                    25530118.113
 127200379.657 7  99117252.99844  24205437.352                    24205445.348
 114067513.684 7  88883895.91146  21706306.555                    21706313.508
 117545330.148 7  91593806.40045  22368119.422                    22368127.539
 104627805.740 8  81528090.60946  19909929.547                    19909936.727
 129684647.951 6 101053018.27043  24678171.766                    24678179.844
 117879896.482 7  91854444.89245  22431777.672                    22431786.098
 115989122.509 7  90381194.08345  22071996.664                    22072004.816
 113718520.336 8  88611908.21346  21639866.898                    21639872.469
 119084655.411 7  92793371.58644  22661034.117                    22661043.227
 11  7 29  0 22  0.0000000  0 10G05G12G17G28G04G20G27G09G02G10
 134063178.559 6 104464886.91943  25511374.781                    25511391.227
 127103472.897 6  99041741.28444  24186996.672                    24187004.406
 114102701.897 7  88911315.29846  21713002.938                    21713009.883
 117613805.062 7  91647163.41144  22381149.984                    22381157.629
 104641695.287 8  81538913.62546  19912572.578                    19912579.785
 129743354.244 6 101098763.35943  24689343.367                    24689351.559
 117893053.666 7  91864697.22945  22434281.539                    22434290.055
 115992880.290 7  90384122.22045  22072712.195                    22072719.492
 113655216.989 8  88562580.97546  21627820.563                    21627826.555
 118997445.103 7  92725415.58044  22644438.328                    22644447.414
 11  7 29  0 22 30.0000000  0 10G05G12G17G28G04G20G27G09G02G10
 133964583.164 6 104388059.71443  25492613.000                    25492628.891
 127006586.089 6  98966245.15243  24168559.125                    24168568.020
 114137974.231 7  88938800.22545  21719715.469                    21719722.113
 117682637.716 7  91700799.21644  22394248.047                    22394256.344
 104656113.821 8  81550148.84946  19915316.266                    19915323.500
 129802496.716 6 101144848.46443  24700597.625                    24700605.570
 117906674.743 8  91875311.02345  22436873.531                    22436882.086
 115997266.835 7  90387540.29745  22073546.484                    22073554.301
 113592259.931 8  88513523.56746  21615840.500                    21615846.469
 118910445.461 7  92657623.74844  22627883.234                    22627891.883
 11  7 29  0 23  0.0000000  0 10G05G12G17G28G04G20G27G09G02G10
 133865798.968 6 104311085.41542  25473813.359                    25473830.594
 126909721.311 7  98890766.16344  24150127.172                    24150135.145
 114173330.530 8  88966350.57046  21726443.227                    21726450.113
 117751827.629 7  91754713.38544  22407414.594                    22407422.527
 104671059.771 8  81561795.04746  19918160.469                    19918167.801
 129862073.375 5 101191271.81042  24711934.516                    24711942.805
 117920758.483 7  91886285.33645  22439554.102                    22439561.973
 116002280.995 7  90391447.40745  22074500.766                    22074508.836
 113529649.583 8  88464736.31146  21603926.039                    21603931.488
 118823659.744 7  92589998.58844  22611368.250                    22611377.281
 11  7 29  0 23 30.0000000  0 10G05G12G17G28G04G20G27G09G02G10
 133766827.785 6 104233965.40943  25454979.773                    25454995.461
 126812880.382 7  98815305.73043  24131699.141                    24131706.816
 114208770.807 8  88993966.36746  21733186.961                    21733194.039
 117821373.713 7  91808905.08244  22420649.008                    22420656.668
 104686531.518 8  81573850.95246  19921104.617                    19921112.078
 129922082.618 5 101238032.24642  24723354.320                    24723362.145
 117935303.783 7  91897619.30745  22442321.688                    22442330.336
 116007921.777 7  90395842.82145  22075573.758                    22075581.949
 113467386.776 8  88416219.86846  21592077.805                    21592083.387
 118737091.047 7  92522542.54745  22594894.891                    22594903.668
 11  7 29  0 24  0.0000000  0 10G05G12G17G28G04G20G27G09G02G10
 133667672.604 6 104156701.95643  25436112.078                    25436127.008
 126716065.143 7  98739865.32643  24113275.430                    24113284.176
 114244295.326 8  89021647.79845  21739947.563                    21739954.105
 117891275.555 7  91863374.00344  22433950.633                    22433958.449
 104702527.940 8  81586315.69646  19924148.336                    19924155.957
 129982522.754 5 101285128.42042  24734855.828                    24734864.031
 117950309.551 7  91909312.08345  22445177.305                    22445185.406
 116014188.563 7  90400726.00745  22076766.914                    22076774.348
 113405472.231 8  88367974.80946  21580295.891                    21580301.543
 118650743.028 7  92455258.46044  22578462.867                    22578472.145
 11  7 29  0 24 30.0000000  0 10G05G12G17G28G04G20G27G09G02G10
 133568335.201 5 104079296.51243  25417209.188                    25417223.871
 126619277.656 7  98664446.57544  24094857.094                    24094865.961
 114279903.726 7  89049394.58846  21746723.023                    21746730.242
 117961532.429 7  91918119.58344  22447320.625                    22447327.902
 104719047.621 8  81599188.17446  19927292.516                    19927299.750
 130043392.462 5 101332559.30342  24746437.711                    24746447.375
 117965774.884 7  91921362.97745  22448119.906                    22448128.348
 116021080.384 7  90406096.23945  22078077.781                    22078086.082
 113343906.824 8  88320001.80246  21568580.016                    21568585.961
 118564618.976 7  92388148.90844  22562074.180                    22562083.391
 11  7 29  0 25  0.0000000  0 10G05G12G17G28G04G20G27G09G02G10
 133468818.053 5 104001751.03243  25398270.789                    25398286.523
 126522520.166 7  98589051.16643  24076445.289                    24076452.770
 114315597.001 7  89077207.51646  21753515.641                    21753522.934
 118032144.109 7  91973141.60644  22460757.469                    22460765.590
 104736089.350 8  81612467.45446  19930535.047                    19930542.836
 130104690.90315 101380323.90552  24758101.867                    24758112.156
 117981698.622 7  91933771.05845  22451150.508                    22451158.762
 116028596.599 7  90411953.00745  22079508.422                    22079516.582
 113282691.478 8  88272301.56046  21556931.117                    21556937.285
 118478722.609 7  92321216.76444  22545728.977                    22545737.645
 11  7 29  0 25 30.0000000  0 10G05G12G17G28G04G20G27G09G02G10
 133369123.156 4 103924067.08442  25379295.273                    25379314.527
 126425794.022 7  98513680.23243  24058038.391                    24058046.523
 114351374.636 8  89105086.16345  21760324.195                    21760331.148
 118103109.108 7  92028438.95944  22474261.383                    22474269.047
 104753651.258 8  81626152.05446  19933877.008                    19933884.246
 130166414.44815 101428420.55952  24769848.508                    24769857.977
 117998079.298 7  91946535.19245  22454267.578                    22454276.078
 116036735.842 7  90418295.25845  22081057.477                    22081065.660
 113221826.609 8  88224874.42446  21545349.484                    21545354.668
 118393056.913 7  92254464.35444  22529426.805                    22529435.840
 11  7 29  0 26  0.0000000  0 10G05G12G17G28G04G20G27G09G02G10
 133269252.773 5 103846246.40542  25360290.891                    25360309.559
 126329101.288 6  98438335.30943  24039639.016                    24039646.695
 114387236.405 7  89133030.37746  21767148.266                    21767155.469
 118174426.527 7  92084010.93044  22487832.984                    22487840.789
 104771731.830 8  81640240.81646  19937317.453                    19937325.520
 130228563.41115 101476847.77152  24781674.328                    24781684.121
 118014915.717 7  91959654.45745  22457471.531                    22457479.781
 116045496.950 7  90425122.06345  22082724.367                    22082733.004
 113161313.355 8  88177721.27246  21533833.430                    21533839.238
 118307625.042 7  92187894.14944  22513170.125                    22513178.879
 11  7 29  0 26 30.0000000  0 10G05G12G17G28G04G20G27G09G02G10
 133169209.20515 103768290.87752  25341253.813                    25341271.746
 126232444.050 7  98363018.04343  24021245.156                    24021252.711
 114423182.891 8  89161040.60946  21773988.242                    21773995.383
 118246095.795 7  92139857.04144  22501471.258                    22501479.125
 104790329.579 8  81654732.57646  19940856.688                    19940864.203
 130291134.12415                  24793582.641
 118032206.710 7  91973127.94645  22460761.531                    22460770.094
 116054878.970 7  90432432.70545  22084509.836                    22084517.852
 113101152.078 8  88130842.40246  21522385.531                    21522391.199
 118222430.333 7  92121508.74645  22496957.742                    22496966.867
 11  7 29  0 27  0.0000000  0 10G05G12G17G28G04G20G27G09G02G10
 133068993.878 6 103690201.52542  25322184.484                    25322200.406
 126135823.865 7  98287729.64944  24002859.461                    24002866.777
 114459213.699 8  89189116.54546  21780845.367                    21780852.379
 118318115.468 7  92195976.21444  22515176.477                    22515183.797
 104809442.250 8  81669625.57046  19944493.758                    19944501.328
 130354125.232 4                  24805567.453
 118049950.560 7  91986954.28445  22464138.414                    22464146.906
 116064880.104 7  90440225.77045  22086412.883                    22086421.164
 113041342.891 8  88084237.87646  21511003.820                    21511009.871
 118137475.981 7  92055310.65045  22480791.430                    22480799.863
 11  7 29  0 27 30.0000000  0 10G05G12G17G28G04G20G27G09G02G10
 132968609.81715 103611980.68052  25303081.047                    25303097.770
 126039242.868 7  98212471.79144  23984480.352                    23984488.344
 114495328.757 8  89217258.12646  21787717.328                    21787724.762
 118390485.382 7  92252368.30644  22528947.609                    22528955.344
 104829069.092 8  81684919.21746  19948228.727                    19948236.340
 130417536.186 5                  24817635.836
 118068146.428 7  92001132.86145  22467600.750                    22467609.078
 116075499.653 7  90448500.70745  22088434.188                    22088442.555
 112981886.794 8  88037908.48546  21499689.828                    21499695.586
 118052765.510 7  91989302.56644  22464671.164                    22464680.480
 11  7 29  0 28  0.0000000  0 10G05G12G17G28G04G20G27G09G02G10
 132868058.62516 103533629.61453  25283947.672                    25283963.234
 125942702.465 6  98137245.58543  23966108.938                    23966116.980
 114531528.140 7  89245465.40746  21794606.172                    21794613.141
 118463204.200 7  92309032.25444  22542785.844                    22542794.195
 104849207.794 8  81700611.71646  19952060.727                    19952067.719
 130481364.148 5                  24829782.313
 118086792.682 7  92015662.37545  22471149.719                    22471157.453
 116086736.122 7  90457256.38445  22090572.328                    22090580.324
 112922784.398 8  87991854.70546  21488442.656                    21488448.848
 117968301.946 7  91923486.89644  22448598.297                    22448607.887
 11  7 29  0 28 30.0000000  0 10G05G12G17G28G04G20G27G09G02G10
 132767342.635 6 103455150.16043  25264780.711                    25264796.988
 125846205.301 6  98062053.03744  23947746.367                    23947754.160
 114567811.736 8  89273738.31746  21801510.742                    21801517.445
 118536271.057 7  92365967.41044  22556689.891                    22556697.711
 104869856.840 8  81716701.88846  19955990.477                    19955997.676
 130545607.708 5                  24842008.047
 118105887.905 7  92030541.73245  22474783.234                    22474791.309
 116098588.385 7  90466491.87145  22092827.672                    22092835.633
 112864035.964 8  87946076.73746  21477263.563                    21477269.508
 117884088.379 7  91857866.00144  22432573.617                    22432581.730
 11  7 29  0 29  0.0000000  0 10G05G12G17G28G04G20G27G09G02G10
 132666464.777 6 103376544.60643  25245584.109                    25245599.559
 125749753.455 6  97986895.82943  23929391.602                    23929400.414
 114604180.824 8  89302077.85146  21808431.469                    21808437.961
 118609685.723 7  92423173.56844  22570660.398                    22570668.391
 104891015.416 8  81733189.10146  19960016.680                    19960023.770
 130610265.426 5                  24854310.250
 118125431.473 7  92045770.45245  22478501.844                    22478510.793
 116111055.985 7  90476206.87045  22095199.648                    22095208.188
 112805642.941 8  87900575.72946  21466151.164                    21466157.707
 117800129.135 7  91792443.29744  22416596.094                    22416604.711
 11  7 29  0 29 30.0000000  0 10G05G12G17G28G04G20G27G09G02G10
 132565427.281 6 103297814.61143  25226356.766                    25226372.406
 125653349.081 7  97911775.61444  23911046.719                    23911054.695
 114640635.730 7  89330484.24246  21815368.586                    21815376.016
 118683447.681 7  92480650.37044  22584697.094                    22584704.766
 104912681.870 8  81750072.05246  19964139.438                    19964146.938
 130675336.26915                  24866693.203
 118145422.261 7  92061347.66545  22482305.898                    22482315.023
 116124137.703 7  90486400.39345  22097689.320                    22097698.246
 112747606.080 8  87855352.23846  21455107.555                    21455113.348
 117716427.322 7  91727221.17144  22400668.266                    22400676.699
 11  7 29  0 30  0.0000000  0 10G05G12G17G28G04G20G27G09G02G10
 132464232.117 6 103218961.69742  25207100.609                    25207115.152
 125556993.871 7  97836693.67444  23892710.703                    23892718.281
 114677175.619 8  89358956.85745  21822321.961                    21822328.918
 118757555.392 7  92538396.59644  22598799.242                    22598806.766
 104934854.334 8  81767349.30146  19968358.648                    19968366.305
 130740816.305 5                  24879154.336
 118165858.711 7  92077272.14945  22486194.656                    22486203.316
 116137831.815 7  90497071.10645  22100294.984                    22100303.848
 112689925.489 8  87810406.37546  21444131.234                    21444136.961
 117632985.813 7  91662201.88544  22384789.813                    22384798.277
 11  7 29  0 30 30.0000000  0 10G05G12G17G28G04G20G27G09G02G10
 132362881.491 6 103139987.61243  25187813.391                    25187828.426
 125460689.804 7  97761651.61044  23874385.195                    23874393.105
 114713800.511 8  89387495.71246  21829291.539                    21829298.660
 118832007.769 7  92596411.37744  22612967.125                    22612974.781
 104957530.821 8  81785019.29546  19972673.914                    19972681.156
 130806705.060 5                  24891692.758
 118186739.121 7  92093542.55545  22490168.648                    22490176.969
 116152136.828 7  90508217.85645  22103017.578                    22103025.824
 112632601.912 8  87765738.67946  21433222.875                    21433228.766
 117549807.937 7  91597388.02344  22368960.930                    22368970.109
 11  7 29  0 31  0.0000000  0 10G05G12G17G28G04G20G27G09G02G10
 132261377.981 6 103060894.38843  25168497.336                    25168512.391
 125364439.364 7  97686651.32044  23856069.281                    23856076.859
 114750510.867 7  89416101.16446  21836277.188                    21836284.293
 118906803.969 7  92654694.08344  22627200.258                    22627208.051
 104980709.906 8  81803080.91946  19977084.781                    19977092.480
 130873000.68815                  24904309.406
 118208062.047 7  92110157.81245  22494226.008                    22494234.387
 116167051.689 7  90519839.79545  22105855.313                    22105864.012
 112575635.590 8  87721349.38346  21422382.680                    21422388.457
 117466897.231 7  91532782.34445  22353184.242                    22353192.832
 11  7 29  0 31 30.0000000  0 10G05G12G17G28G04G20G27G09G02G10
 132159723.450 6 102981683.47243  25149153.164                    25149167.320
 125268243.969 7  97611693.94244  23837763.430                    23837770.988
 114787307.011 7  89444773.46946  21843279.445                    21843286.105
 118981943.246 7  92713244.12444  22641498.781                    22641506.074
 105004389.732 8  81821532.73446  19981591.000                    19981598.816
 130939701.13915                  24916999.648
 118229826.163 7  92127116.82645  22498367.922                    22498376.055
 116182574.839 7  90531935.73445  22108809.648                    22108817.871
 112519027.142 8  87677238.94346  21411610.789                    21411615.883
 117384257.036 7  91468387.44444  22337458.258                    22337466.563
 11  7 29  0 32  0.0000000  0 10G05G12G17G28G04G20G27G09G02G10
 132057921.093 6 102902357.32543  25129779.563                    25129794.656
 125172106.792 7  97536781.89344  23819469.328                    23819477.035
 114824189.779 7  89473513.26745  21850297.773                    21850305.047
 119057425.393 7  92772061.31944  22655862.883                    22655870.012
 105028569.580 8  81840374.17546  19986192.289                    19986199.719
 131006756.55015                  24929771.477
 118252030.942 7  92144419.22845  22502593.609                    22502601.527
 116198706.012 7  90544505.46445  22111879.430                    22111887.641
 112462778.035 8  87633408.51046  21400906.586                    21400912.160
 117301891.578 7  91404206.64944  22321783.977                    22321792.711
 11  7 29  0 32 30.0000000  0 10G05G12G17G28G04G20G27G09G02G10
 131955971.642 6 102822916.50243  25110379.945                    25110394.273
 125076027.937 7  97461915.31444  23801186.250                    23801194.266
 114861157.222 7  89502319.04645  21857332.094                    21857339.262
 119133247.364 7  92831143.29044  22670291.313                    22670298.957
 105053245.676 8  81859602.30146  19990888.039                    19990895.434
 131074260.874 5                  24942615.367
 118274672.887 7  92162062.27545  22506901.813                    22506910.098
 116215441.722 7  90557546.25845  22115063.797                    22115072.535
 112406887.128 8  87589857.19046  21390270.461                    21390276.613
 117219802.131 7  91340240.90045  22306163.930                    22306172.328
 11  7 29  0 33  0.0000000  0 10G05G12G17G28G04G20G27G09G02G10
 131853878.345 6 102743363.58043  25090952.016                    25090966.355
 124980011.207 6  97387097.12244  23782914.820                    23782922.109
 114898210.875 7  89531192.01545  21864383.289                    21864390.516
 119209409.382 7  92890490.26244  22684784.391                    22684792.645
 105078417.714 8  81879216.87346  19995677.883                    19995685.504
 131142164.51215                  24955537.477
 118297752.078 7  92180046.01145  22511293.516                    22511301.637
 116232781.802 7  90571057.98045  22118363.758                    22118371.777
 112351356.198 7  87546586.38046  21379703.445                    21379709.031
 117137993.246 7  91276493.79644  22290595.039                    22290604.199
 11  7 29  0 33 30.0000000  0 10G05G12G17G28G04G20G27G09G02G10
 131751643.819 6 102663700.64143  25071496.586                    25071511.379
 124884057.481 7  97312328.01444  23764655.172                    23764662.602
 114935350.873 7  89560132.25245  21871450.898                    21871458.477
 119285910.570 7  92950101.50444  22699341.727                    22699349.859
 105104083.462 8  81899216.16646  20000562.008                    20000569.449
 131210465.70615                  24968534.953
 118321266.699 7  92198369.07345  22515768.250                    22515776.688
 116250724.677 7  90585039.42645  22121778.438                    22121786.484
 112296185.299 8  87503596.10846  21369204.750                    21369210.832
 117056467.974 7  91212967.68044  22275081.102                    22275090.664
 11  7 29  0 34  0.0000000  0 10G05G12G17G28G04G20G27G09G02G10
 131649270.429 6 102583929.54243  25052015.469                    25052030.059
 124788169.495 6  97237610.17044  23746409.227                    23746416.637
 114972577.375 7  89589139.90045  21878535.172                    21878542.363
 119362749.829 7  93009976.18544  22713963.953                    22713972.121
 105130241.435 8  81919598.99446  20005539.625                    20005547.063
 131279162.64215                  24981606.219
 118345215.202 7  92217030.21745  22520325.719                    22520334.203
 116269268.676 7  90599489.27645  22125307.156                    22125315.395
 112241374.812 8  87460886.67446  21358774.945                    21358780.293
 116975229.723 7  91149665.19945  22259622.680                    22259631.023
 11  7 29  0 34 30.0000000  0 10G05G12G17G28G04G20G27G09G02G10
 131546760.385 5 102504051.96543  25032508.711                    25032523.172
 124692349.199 6  97162945.03244  23728174.102                    23728181.766
 115009890.766 7  89618215.26945  21885635.680                    21885642.629
 119439926.013 7  93070113.39544  22728650.219                    22728658.289
 105156889.954 8  81940364.07246  20010610.625                    20010618.168
 131348257.22315                  24994755.289
 118369596.246 7  92236028.40045  22524965.281                    22524973.555
 116288412.318 7  90614406.37745  22128950.195                    22128958.125
 112186925.737 8  87418458.84846  21348413.352                    21348419.199
 116894282.153 7  91086589.24845  22244217.922                    22244227.008
 11  7 29  0 35  0.0000000  0 10G05G12G17G28G04G20G27G09G02G10
 131444115.887 6 102424069.52743  25012975.773                    25012990.059
 124596598.749 7  97088334.29944  23709953.813                    23709960.930
 115047290.788 7  89647358.12445  21892752.133                    21892760.172
 119517438.003 7  93130512.28444  22743400.688                    22743408.488
 105184026.983 8  81961509.79946  20015774.992                    20015782.059
 131417739.004 5                  25007976.008
 118394408.115 7  92255362.28045  22529686.867                    22529695.371
 116308153.888 7  90629789.40345  22132706.078                    22132714.930
 112132838.132 8  87376312.69746  21338121.211                    21338126.813
 116813628.048 7  91023741.94845  22228869.969                    22228878.836
 11  7 29  0 35 30.0000000  0 10G05G12G17G28G04G20G27G09G02G10
 131341339.475 6 102343984.35343  24993418.273                    24993431.590
 124500920.275 7  97013779.67544  23691746.273                    23691754.242
 115084777.615 7  89676568.63545  21899885.875                    21899893.191
 119595284.691 7  93191171.97344  22758214.164                    22758221.820
 105211650.267 8  81983034.43646  20021031.016                    20021039.020
 131487610.253 5                  25021272.867
 118419649.050 7  92275030.50945  22534489.297                    22534498.340
 116328491.783 7  90645637.09545  22136577.023                    22136584.914
 112079112.208 8  87334448.36746  21327897.148                    21327902.762
 116733270.681 7  90961125.89245  22213579.055                    22213587.516
 11  7 29  0 36  0.0000000  0 10G05G12G17G28G04G20G27G09G02G10
 131238433.298 6 102263798.08943  24973834.180                    24973848.977
 124405315.923 7  96939282.80744  23673553.828                    23673561.797
 115122351.597 7  89705847.04945  21907035.820                    21907042.801
 119673465.113 7  93252091.71844  22773091.867                    22773099.418
 105239758.376 8  82004936.84746  20026379.992                    20026387.199
 131557869.173 5                  25034641.969
 118445317.544 7  92295031.88345  22539374.625                    22539383.012
 116349424.347 7  90661948.15345  22140560.031                    22140568.563
 112025748.603 8  87292866.35646  21317742.141                    21317747.953
 116653213.282 7  90898743.57045  22198344.539                    22198352.730
 11  7 29  0 36 30.0000000  0 10G05G12G17G28G04G20G27G09G02G10
 131135399.953 6 102183512.67843  24954227.930                    24954241.926
 124309787.694 7  96864845.25244  23655374.797                    23655383.211
 115160013.221 7  89735193.74145  21914202.656                    21914210.078
 119751978.478 7  93313270.90744  22788031.992                    22788040.242
 105268349.725 8  82027215.82246  20031821.031                    20031828.039
 131628513.701 5                  25048086.344
 118471412.382 7  92315365.49245  22544340.766                    22544348.719
 116370950.283 7  90678721.57545  22144656.805                    22144664.699
 111972747.931 8  87251567.15846  21307656.766                    21307662.645
 116573459.564 7  90836597.86045  22183168.039                    22183176.645
 11  7 29  0 37  0.0000000  0 10G05G12G17G28G04G20G27G09G02G10
 131032242.025 6 102103130.21443  24934597.719                    24934611.645
 124214337.777 7  96790468.69644  23637211.422                    23637219.891
 115197762.704 7  89764608.90545  21921386.367                    21921393.648
 119830823.356 7  93374708.40144  22803036.109                    22803043.543
 105297422.022 8  82049869.55046  20037353.070                    20037360.180
 131699541.977 5                  25061602.141
 118497931.487 6  92336029.68945  22549387.094                    22549395.039
 116393067.690 7  90695955.89345  22148865.375                    22148873.500
 111920110.568 8  87210551.05246  21297640.086                    21297645.980
 116494012.411 7  90774691.03145  22168049.883                    22168058.219
 11  7 29  0 37 30.0000000  0 10G05G12G17G28G04G20G27G09G02G10
 130928962.128 6 102022652.66643  24914943.500                    24914957.555
 124118968.790 7  96716155.22444  23619063.133                    23619071.074
 115235600.321 7  89794092.75645  21928586.820                    21928594.328
 119909999.043 7  93436403.67944  22818102.383                    22818110.785
 105326974.184 8  82072897.19446  20042976.883                    20042984.141
 131770952.320 5                  25075191.086
 118524873.762 7  92357023.62845  22554514.078                    22554522.566
 116415775.283 7  90713650.09445  22153186.594                    22153194.945
 111867837.166 8  87169818.54646  21287692.664                    21287698.738
 116414875.827 7  90713026.21145  22152990.359                    22152998.699
 11  7 29  0 38  0.0000000  0 10G05G12G17G28G04G20G27G09G02G10
 130825562.588 6 101942081.92443  24895267.359                    24895280.801
 124023682.492 7  96641906.21244  23600930.383                    23600938.504
 115273526.002 7  89823645.20845  21935803.523                    21935810.703
 119989504.285 7  93498355.73644  22833232.227                    22833239.973
 105357003.937 8  82096296.99846  20048691.094                    20048698.391
 131842742.63414                  25088850.547
 118552237.394 7  92378345.90145  22559720.523                    22559729.227
 116439071.346 7  90731802.84945  22157618.844                    22157627.602
 111815928.021 8  87129369.88846  21277814.836                    21277819.965
 116336052.829 7  90651605.73044  22137990.969                    22137998.832
 11  7 29  0 38 30.0000000  0  9G05G12G17G28G04G27G09G02G10
 130722045.682 6 101861419.65843  24875568.641                    24875582.211
 123928481.507 7  96567723.66144  23582814.359                    23582822.996
 115311540.551 7  89853266.91345  21943037.633                    21943044.695
 120069338.107 7  93560563.84844  22848423.891                    22848431.457
 105387509.644 8  82120067.67146  20054496.102                    20054503.746
 118580020.802 7  92399995.27744  22565007.852                    22565016.496
 116462954.229 7  90750412.85245  22162164.414                    22162173.023
 111764383.678 8  87089205.48646  21268005.953                    21268012.145
 116257546.682 7  90590432.15545  22123051.516                    22123059.785
 11  7 29  0 39  0.0000000  0  9G05G12G17G28G04G27G09G02G10
 130618414.240 6 101780668.11643  24855848.141                    24855861.477
 123833367.800 7  96493609.13844  23564715.117                    23564723.371
 115349643.735 7  89882957.70445  21950288.453                    21950295.500
 120149499.073 7  93623026.86744  22863677.813                    22863686.430
 105418489.193 8  82144207.56946  20060391.430                    20060398.926
 118608222.479 6  92421970.56645  22570375.109                    22570382.797
 116487421.704 7  90769478.39045  22166820.070                    22166828.539
 111713204.388 8  87049325.55246  21258267.078                    21258272.949
 116179360.305 7  90529507.75145  22108173.563                    22108181.332
 11  7 29  0 39 30.0000000  0  9G05G12G17G28G04G27G09G02G10
 130514670.441 6 101699829.08043  24836106.461                    24836119.461
 123738343.281 7  96419564.10544  23546633.078                    23546640.320
 115387835.936 7  89912717.84345  21957556.164                    21957563.582
 120229986.026 7  93685743.92144  22878994.188                    22879002.383
 105449940.426 8  82168715.01946  20066376.523                    20066383.480
 118636840.703 7  92444270.45045  22575820.125                    22575828.906
 116512471.905 7  90788997.99545  22171587.117                    22171595.375
 111662390.395 8  87009730.26246  21248597.398                    21248603.043
 116101497.209 7  90468835.27245  22093356.086                    22093364.648
 11  7 29  0 40  0.0000000  0  9G05G12G17G28G04G27G09G02G10
 130410816.549 6 101618904.24643  24816342.281                    24816356.359
 123643410.007 7  96345590.17844  23528567.383                    23528575.113
 115426117.107 7  89942547.30845  21964841.063                    21964848.652
 120310797.537 7  93748713.85144  22894372.086                    22894380.223
 105481861.288 8  82193588.41546  20072450.594                    20072458.125
 118665873.197 7  92466893.14045  22581344.969                    22581353.605
 116538103.025 7  90808970.26345  22176464.984                    22176473.219
 111611942.007 8  86970419.86246  21238997.391                    21239002.793
 116023960.197 7  90408416.86645  22078601.430                    22078610.156
 11  7 29  0 40 30.0000000  0 10G05G12G17G28G04G20G27G09G02G10
 130306854.251 6 101537894.89443  24796559.039                    24796573.145
 123548569.642 7  96271688.65044  23510519.688                    23510527.922
 115464487.152 7  89972446.01645  21972141.586                    21972149.953
 120391931.961 7  93811935.39044  22909811.445                    22909819.566
 105514249.336 8  82218825.84846  20078614.039                    20078621.512
 132207330.29315                  25158229.992
 118695317.813 7  92489836.95645  22586947.953                    22586956.867
 116564312.718 7  90829393.36445  22181452.063                    22181460.598
 111561858.473 8  86931393.76846  21229466.836                    21229472.258
 115946751.970 7  90348254.64445  22063909.266                    22063917.156
 11  7 29  0 41  0.0000000  0 10G05G12G17G28G04G20G27G09G02G10
 130202786.521 6 101456803.40143  24776756.008                    24776768.383
 123453825.215 7  96197861.88444  23492490.813                    23492498.168
 115502946.468 7  90002414.29545  21979460.914                    21979468.750
 120473388.494 7  93875407.94344  22925312.289                    22925320.703
 105547102.886 8  82244426.01146  20084865.914                    20084873.387
 132281355.83315                  25172317.008
 118725173.270 7  92513100.91345  22592629.484                    22592637.965
 116591099.476 7  90850266.13545  22186549.469                    22186557.727
 111512140.985 8  86892652.89146  21220005.930                    21220011.734
 115869876.283 7  90288351.56445  22049280.086                    22049288.375
 11  7 29  0 41 30.0000000  0 10G05G12G17G28G04G20G27G09G02G10
 130098616.303 6 101375632.06043  24756932.297                    24756945.582
 123359178.866 7  96124111.55644  23474480.180                    23474487.789
 115541496.011 7  90032452.88445  21986796.883                    21986804.348
 120555166.095 7  93939130.66144  22940874.695                    22940883.219
 105580420.616 8  82270387.87746  20091206.063                    20091213.242
 132355746.725 5                  25186473.352
 118755438.145 7  92536683.89845  22598388.344                    22598397.816
 116618461.823 7  90871587.41245  22191756.766                    22191764.730
 111462790.116 8  86854197.69446  21210614.523                    21210620.359
 115793336.805 7  90228710.45845  22034715.234                    22034723.359
 11  7 29  0 42  0.0000000  0 10G05G12G17G28G04G20G27G09G02G10
 129994345.978 6 101294382.64942  24737091.164                    24737102.660
 123264632.521 7  96050439.15044  23456488.391                    23456496.082
 115580135.622 7  90062561.65645  21994149.891                    21994157.375
 120637263.607 7  94003102.67944  22956497.375                    22956505.141
 105614200.099 8  82296709.55046  20097633.578                    20097641.656
 132430501.299 5                  25200697.094
 118786110.458 7  92560584.36645  22604226.258                    22604234.375
 116646397.707 7  90893355.59145  22197072.727                    22197081.348
 111413805.636 8  86816028.00146  21201293.461                    21201299.047
 115717136.534 7  90169333.68645  22020214.758                    22020223.473
 11  7 29  0 42 30.0000000  0 10G05G12G17G28G04G20G27G09G02G10
 129889978.489 6 101213057.62643  24717229.516                    24717242.734
 123170188.768 7  95976846.67344  23438515.703                    23438523.957
 115618866.187 7  90092741.29845  22001519.922                    22001527.438
 120719680.143 7  94067323.27044  22972179.875                    22972188.434
 105648440.040 8  82323390.01546  20104149.781                    20104157.047
 132505616.995 4                  25214991.430
 118817188.845 7  92584801.25245  22610139.430                    22610148.480
 116674905.502 7  90915569.41745  22202497.766                    22202505.566
 111365188.616 8  86778144.62846  21192041.203                    21192047.133
 115641278.890 7  90110223.87745  22005779.344                    22005787.574
 11  7 29  0 43  0.0000000  0 10G05G12G17G28G04G20G27G09G02G10
 129785516.065 6 101131658.58143  24697351.367                    24697363.449
 123075849.754 7  95903335.82444  23420564.281                    23420572.332
 115657687.050 7  90122991.29845  22008907.102                    22008914.109
 120802414.063 7  94131791.18844  22987923.883                    22987932.496
 105683137.702 8  82350427.16346  20110752.063                    20110759.707
 132581091.975 5                  25229354.258
 118848670.943 7  92609332.73345  22616130.469                    22616139.320
 116703982.653 7  90938226.90045  22208030.438                    22208038.906
 111316938.883 8  86740547.47546  21182860.156                    21182865.336
 115565767.118 7  90051383.58545  21991409.828                    21991418.242
 11  7 29  0 43 30.0000000  0 10G05G12G17G28G04G20G27G09G02G10
 129680961.272 6 101050187.61143  24677454.242                    24677467.063
 122981617.627 7  95829908.26644  23402632.398                    23402639.609
 115696599.454 7  90153312.65145  22016311.891                    22016318.875
 120885463.961 7  94196505.30344  23003728.391                    23003736.684
 105718291.241 8  82377819.52446  20117441.773                    20117449.219
 132656924.29914                  25243784.203
 118880555.236 7  92634177.60645  22622198.063                    22622206.738
 116733627.227 7  90961326.54245  22213672.070                    22213680.039
 111269056.791 8  86703236.77246  21173748.695                    21173753.906
 115490604.206 7  89992815.12445  21977106.492                    21977115.070
 11  7 29  0 44  0.0000000  0 10G05G12G17G28G04G20G27G09G02G10
 129576316.248 6 100968646.33643  24657540.867                    24657553.797
 122887494.838 7  95756565.88444  23384721.344                    23384728.734
 115735602.969 7  90183704.98345  22023734.000                    22023740.961
 120968828.925 7  94261464.92544  23019591.648                    23019600.367
 105753898.618 8  82405565.53046  20124217.625                    20124225.293
 132733111.41314                  25258281.914
 118912839.667 7  92659334.27444  22628341.102                    22628349.719
 116763837.099 7  90984866.66245  22219420.688                    22219429.035
 111221542.379 8  86666212.58946  21164706.859                    21164712.191
 115415793.581 7  89934521.18345  21962870.563                    21962878.949
 11  7 29  0 44 30.0000000  0  9G05G12G17G28G04G27G09G02G10
 129471584.776 6 100887037.71943  24637611.273                    24637624.375
 122793484.139 7  95683310.87444  23366831.984                    23366838.840
 115774699.030 7  90214169.42845  22031174.398                    22031181.582
 121052507.766 7  94326669.15344  23035515.617                    23035523.422
 105789958.704 8  82433664.29846  20131079.539                    20131087.293
 118945523.265 7  92684801.97844  22634560.602                    22634569.523
 116794611.451 7  91008846.64745  22225276.828                    22225284.918
 111174396.693 8  86629475.71746  21155735.211                    21155740.805
 115341338.949 7  89876504.63345  21948702.578                    21948711.047
 11  7 29  0 45  0.0000000  0  9G05G12G17G28G04G27G09G02G10
 129366768.373 6 100805362.89443  24617665.820                    24617677.793
 122699587.193 7  95610144.46544  23348963.594                    23348971.129
 115813887.422 7  90244705.80545  22038630.773                    22038638.875
 121136498.938 7  94392116.70844  23051498.352                    23051507.047
 105826468.587 8  82462113.55346  20138027.508                    20138035.234
 118978603.311 7  92710578.60844  22640855.563                    22640864.180
 116825946.999 7  91033263.92445  22231239.844                    22231248.238
 111127619.125 8  86593025.69846  21146833.703                    21146839.270
 115267242.812 7  89818767.42445  21934602.469                    21934610.695
 11  7 29  0 45 30.0000000  0  9G05G12G17G28G04G27G09G02G10
 129261869.661 6 100723623.93443  24597703.500                    24597715.172
 122605806.346 7  95537068.53944  23331117.586                    23331125.465
 115853167.793 7  90275313.86645  22046105.945                    22046113.168
 121220800.884 7  94457806.48044  23067540.242                    23067548.711
 105863426.161 8  82490911.66246  20145060.180                    20145067.656
 119012078.013 7  92736662.76044  22647225.867                    22647234.941
 116857841.667 7  91058116.88345  22237309.539                    22237317.520
 111081209.781 8  86556862.59546  21138002.070                    21138007.855
 115193508.394 7  89761312.07745  21920570.992                    21920579.488
 11  7 29  0 46  0.0000000  0  9G05G12G17G28G04G27G09G02G10
 129156891.381 6 100641823.00943  24577727.102                    24577738.867
 122512143.743 7  95464084.75244  23313294.313                    23313301.699
 115892540.763 7  90305994.09045  22053598.469                    22053605.816
 121305412.442 7  94523737.47744  23083641.719                    23083650.164
 105900829.347 8  82520057.00746  20152177.930                    20152185.383
 119045945.350 7  92763052.85544  22653670.914                    22653679.711
 116890293.320 7  91083403.84945  22243484.656                    22243492.750
 111035169.079 8  86520986.74646  21129240.906                    21129246.516
 115120138.693 7  89704140.92445  21906609.477                    21906617.359
 11  7 29  0 46 30.0000000  0  9G05G12G17G28G04G27G09G02G10
 129051835.198 6 100559961.36843  24557735.406                    24557746.902
 122418601.633 7  95391194.81544  23295493.141                    23295500.809
 115932006.451 7  90336746.57045  22061108.508                    22061115.695
 121390332.015 7  94589908.48544  23099801.703                    23099810.008
 105938675.736 8  82549547.69646  20159379.430                    20159386.969
 119080203.170 7  92789747.21144  22660189.961                    22660198.449
 116923300.024 7  91109123.33045  22249765.641                    22249774.074
 110989496.917 8  86485398.07446  21120549.508                    21120555.703
 115047136.818 7  89647256.38245  21892717.438                    21892725.516
 11  7 29  0 47  0.0000000  0 10G05G12G17G28G04G20G27G09G02G10
 128946704.119 7 100478041.35643  24537729.070                    24537740.887
 122325181.983 7  95318400.31944  23277716.344                    23277723.793
 115971564.952 7  90367571.37045  22068636.383                    22068643.574
 121475558.007 7  94656318.26343  23116019.000                    23116027.980
 105976963.420 8  82579382.26746  20166665.656                    20166672.840
 133197550.22715                  25346666.102
 119114849.539 7  92816744.34245  22666782.859                    22666791.445
 116956859.074 7  91135273.20745  22256151.555                    22256160.367
 110944193.170 8  86450096.48146  21111928.695                    21111934.086
 114974505.692 7  89590660.75645  21878896.414                    21878904.266
 11  7 29  0 47 30.0000000  0 10G05G12G17G28G04G20G27G09G02G10
 128841500.811 6 100396065.06943  24517708.570                    24517721.293
 122231887.135 7  95245703.05744  23259963.031                    23259970.047
 116011217.133 7  90398469.15945  22076181.727                    22076188.855
 121561089.065 7  94722965.77344  23132296.242                    23132304.352
 106015690.291 8  82609559.05546  20174035.148                    20174042.457
 133276160.88714                  25361624.281
 119149882.534 7  92844042.76145  22673449.508                    22673458.027
 116990968.765 7  91161852.16345  22262642.594                    22262650.902
 110899258.179 8  86415082.21746  21103377.352                    21103382.934
 114902248.491 7  89534356.48045  21865146.086                    21865153.918
 11  7 29  0 48  0.0000000  0 10G05G12G17G28G04G20G27G09G02G10
 128736227.826 6 100314034.46043  24497676.055                    24497688.043
 122138720.059 7  95173105.36544  23242233.859                    23242241.418
 116050963.145 8  90429440.03845  22083745.383                    22083752.496
 121646924.302 7  94789850.30144  23148629.813                    23148638.430
 106054854.240 8  82640076.41646  20181487.789                    20181495.160
 133355109.57714                  25376647.320
 119185300.376 7  92871641.03344  22680189.305                    22680197.785
 117025626.797 7  91188858.39745  22269238.219                    22269246.219
 110854692.357 8  86380355.62146  21094897.328                    21094902.684
 114830368.690 7  89478346.28645  21851467.898                    21851476.160
 11  7 29  0 48 30.0000000  0  9G05G12G17G28G04G27G09G02G10
 128630889.504 6 100231952.93143  24477629.484                    24477642.758
 122045683.779 7  95100609.58144  23224529.492                    23224536.695
 116090804.541 8  90460485.27345  22091327.047                    22091333.828
 121733063.183 7  94856971.43344  23165021.688                    23165029.512
 106094454.766 8  82670933.97746  20189023.250                    20189030.805
 119221102.649 6  92899538.86344  22687002.414                    22687011.594
 117060832.447 7  91216291.35145  22275937.211                    22275945.270
 110810497.167 8  86345917.83146  21086487.203                    21086492.922
 114758870.743 7  89422633.64545  21837862.219                    21837870.477
 11  7 29  0 49  0.0000000  0  9G05G12G17G28G04G27G09G02G10
 128525486.741 6 100149821.17143  24457572.234                    24457584.520
 121952779.759 7  95028216.87244  23206850.305                    23206857.965
 116130740.572 7  90491604.24245  22098926.805                    22098934.258
 121819503.422 6  94924327.37043  23181470.789                    23181478.191
 106134488.262 8  82702128.90946  20196641.648                    20196649.160
 119257285.788 7  92927733.48245  22693887.859                    22693896.609
 117096581.758 7  91244147.91945  22282740.234                    22282748.414
 110766671.064 8  86311767.64246  21078147.391                    21078152.918
 114687756.465 7  89367219.95445  21824329.758                    21824337.695
 11  7 29  0 49 30.0000000  0  9G05G12G17G28G04G27G09G02G10
 128420021.768 6 100067640.90043  24437503.617                    24437514.801
 121860009.849 7  94955928.66044  23189196.688                    23189203.902
 116170771.686 7  90522797.30645  22106544.391                    22106551.766
 121906243.553 6  94991917.01443  23197976.445                    23197984.418
 106174952.052 8  82733659.13946  20204341.531                    20204348.781
 119293847.508 7  92956223.09444  22700845.406                    22700853.813
 117132872.168 7  91272426.13945  22289645.953                    22289654.102
 110723214.531 8  86277905.42246  21069877.953                    21069883.348
 114617028.506 7  89312107.31445  21810870.609                    21810878.320
 11  7 29  0 50  0.0000000  0  9G05G12G17G28G04G27G09G02G10
 128314497.844 6  99985414.68243  24417422.211                    24417434.281
 121767376.553 7  94883746.88444  23171569.078                    23171576.566
 116210897.986 7  90554064.52445  22114179.727                    22114187.816
 121993281.669 7  95059738.87043  23214539.398                    23214547.234
 106215844.568 8  82765523.43546  20212123.117                    20212130.629
 119330786.047 7  92985006.33844  22707874.938                    22707883.000
 117169701.885 7  91301124.60045  22296654.836                    22296663.281
 110680127.183 8  86244330.87846  21061678.508                    21061684.074
 114546690.344 7  89257298.40545  21797485.609                    21797493.703
 11  7 29  0 50 30.0000000  0  9G05G12G17G28G04G27G09G02G10
 128208918.121 6  99903145.07343  24397331.094                    24397342.672
 121674882.629 7  94811673.72444  23153968.289                    23153975.926
 116251119.995 8  90585406.31745  22121834.203                    22121841.293
 122080616.990 7  95127792.30043  23231158.477                    23231167.016
 106257163.872 8  82797720.29746  20219985.984                    20219993.445
 119368099.678 7  93014081.86244  22714974.758                    22714983.824
 117207068.950 7  91330241.77145  22303765.680                    22303773.676
 110637409.682 8  86211044.53346  21053549.391                    21053555.387
 114476745.378 7  89202795.88645  21784175.430                    21784183.965
 11  7 29  0 51  0.0000000  0  9G05G12G17G28G04G27G09G02G10
 128103284.448 6  99820833.39443  24377229.242                    24377241.480
 121582530.137 7  94739710.77044  23136394.344                    23136401.676
 116291437.795 7  90616822.76145  22129505.961                    22129513.527
 122168247.774 7  95196075.94243  23247835.070                    23247842.281
 106298907.556 8  82830247.84046  20227929.578                    20227937.234
 119405785.885 7  93043447.67945  22722146.500                    22722155.059
 117244970.764 7  91359775.63445  22310977.938                    22310986.191
 110595061.696 8  86178046.11146  21045491.000                    21045496.762
 114407196.232 7  89148601.79945  21770940.586                    21770948.852
 11  7 29  0 51 30.0000000  0  9G05G12G17G28G04G27G09G02G10
 127997599.644 6  99738481.84143  24357118.719                    24357130.043
 121490321.608 7  94667859.99845  23118847.594                    23118855.246
 116331852.210 8  90648314.50045  22137196.813                    22137204.277
 122256172.318 6  95264588.50943  23264566.430                    23264574.500
 106341073.289 8  82863104.25046  20235953.063                    20235960.891
 119443842.704 7  93073102.31445  22729388.531                    22729397.086
 117283404.521 7  91389723.97345  22318291.859                    22318299.344
 110553083.171 8  86145335.58546  21037502.828                    21037508.285
 114338045.998 7  89094718.54145  21757781.867                    21757790.234
 11  7 29  0 52  0.0000000  0  9G05G12G17G28G04G27G09G02G10
 127891866.436 6  99656092.59943  24336997.594                    24337009.109
 121398259.636 7  94596123.41044  23101328.477                    23101336.504
 116372364.063 7  90679882.15945  22144905.539                    22144913.328
 122344389.430 7  95333329.02244  23281353.141                    23281362.191
 106383659.220 8  82896288.08646  20244057.211                    20244064.699
 119482268.370 7  93103044.34645  22736700.516                    22736709.730
 117322368.544 7  91420085.51545  22325706.094                    22325714.523
 110511474.837 8  86112913.52046  21029585.102                    21029590.453
 114269298.133 7  89041148.82645  21744699.359                    21744707.816
 11  7 29  0 52 30.0000000  0  9G05G12G17G28G04G27G09G02G10
 127786087.569 6  99573667.79544  24316869.023                    24316879.938
 121306346.418 7  94524502.73545  23083838.375                    23083845.715
 116412973.176 7  90711525.59045  22152633.555                    22152641.441
 122432897.617 7  95402296.37144  23298196.586                    23298204.359
 106426663.292 8  82929797.74946  20252240.680                    20252248.125
 119521060.689 7  93133272.08945  22744082.656                    22744091.941
 117361860.308 7  91450858.28245  22333221.172                    22333229.277
 110470236.404 8  86080779.69446  21021737.391                    21021743.055
 114200955.583 7  88987894.93645  21731694.680                    21731702.430
 11  7 29  0 53  0.0000000  0  9G05G12G17G28G04G27G09G02G10
 127680265.960 6  99491209.64644  24296730.953                    24296742.852
 121214584.045 7  94452999.63045  23066376.555                    23066383.750
 116453679.774 8  90743244.99745  22160380.164                    22160387.684
 122521695.336 7  95471489.29044  23315093.578                    23315102.293
 106470083.150 8  82963631.39546  20260502.922                    20260510.551
 119560217.598 7  93163783.91844  22751534.406                    22751542.777
 117401877.312 7  91482040.33045  22340835.977                    22340844.582
 110429367.562 8  86048933.85746  21013960.469                    21013966.043
 114133021.262 7  88934959.15645  21718766.336                    21718774.742
 11  7 29  0 53 30.0000000  0  9G05G12G17G28G04G27G09G02G10
 127574403.721 6  99408719.86343  24276585.375                    24276597.344
 121122975.070 7  94381616.02145  23048943.805                    23048951.148
 116494484.159 7  90775040.60145  22168144.469                    22168152.066
 122610780.957 6  95540906.54543  23332046.070                    23332054.844
 106513916.010 8  82997786.85446  20268844.070                    20268851.645
 119599736.638 7  93194577.92844  22759053.820                    22759063.262
 117442416.471 7  91513629.25845  22348550.586                    22348558.586
 110388868.213 8  86017375.93646  21006253.836                    21006258.926
 114065497.926 7  88882343.61345  21705917.570                    21705925.613
 11  7 29  0 54  0.0000000  0  9G05G12G17G28G04G27G09G02G10
 127468503.140 6  99326200.16544  24256433.594                    24256444.723
 121031521.712 7  94310353.66745  23031540.742                    23031548.434
 116535387.018 7  90806912.93645  22175928.305                    22175935.836
 122700153.005 6  95610547.02943  23349053.234                    23349061.824
 106558159.884 8  83032262.58846  20277263.469                    20277270.996
 119639615.824 7  93225652.58645  22766642.688                    22766651.969
 117483475.804 7  91545623.49745  22356364.086                    22356372.336
 110348738.244 8  85986105.84946  20998617.250                    20998622.664
 113998388.659 7  88830050.72745  21693146.672                    21693154.867
 11  7 29  0 54 30.0000000  0  9G05G12G17G28G04G27G09G02G10
 127362567.506 6  99243653.18144  24236274.508                    24236285.043
 120940226.548 7  94239214.60745  23014168.547                    23014175.484
 116576388.690 7  90838862.26045  22183730.680                    22183738.000
 122789809.768 7  95680409.35643  23366114.000                    23366123.160
 106602812.743 8  83067057.00846  20285760.750                    20285768.328
 119679852.920 7  93257006.12144  22774299.344                    22774308.762
 117525052.775 7  91578021.11245  22364276.047                    22364284.516
 110308977.782 8  85955123.68546  20991051.211                    20991056.492
 113931696.282 7  88778082.67445  21680456.352                    21680463.648
 11  7 29  0 55  0.0000000  0  9G05G12G17G28G04G27G09G02G10
 127256599.862 6  99161081.31943  24216108.875                    24216120.340
 120849092.089 7  94168200.75545  22996825.305                    22996833.191
 116617489.649 7  90870888.97145  22191552.188                    22191559.105
 122879750.325 6  95750492.81943  23383229.469                    23383238.238
 106647872.702 8  83102168.64746  20294335.234                    20294343.234
 119720446.286 7  93288637.26544  22782025.289                    22782033.582
 117567145.006 7  91610820.20145  22372285.781                    22372294.410
 110269587.346 8  85924429.86346  20983554.789                    20983560.879
 113865424.665 7  88726442.49745  21667844.609                    21667852.918
 11  7 29  0 55 30.0000000  0  9G05G12G17G28G04G27G09G02G10
 127150602.840 6  99078486.47144  24195939.180                    24195949.891
 120758121.022 7  94097314.23945  22979514.531                    22979521.875
 116658690.568 8  90902993.57445  22199392.352                    22199399.258
 122969972.798 6  95820795.96943  23400398.641                    23400407.355
 106693337.655 8  83137595.86046  20302987.234                    20302994.793
 119761393.664 7  93320544.26744  22789816.758                    22789825.359
 117609749.945 7  91644018.81045  22380393.188                    22380401.598
 110230566.946 8  85894024.37646  20976130.117                    20976135.531
 113799576.646 7  88675132.38645  21655313.992                    21655322.172
 11  7 29  0 56  0.0000000  0  9G05G12G17G28G04G27G09G02G10
 127044578.827 6  98995870.64043  24175762.102                    24175773.188
 120667315.410 7  94026556.63345  22962234.523                    22962241.383
 116699991.470 7  90935176.07945  22207251.578                    22207258.605
 123060475.324 6  95891317.35643  23417620.672                    23417629.348
 106739204.855 8  83173336.52646  20311715.313                    20311723.191
 119802692.446 7  93352725.08544  22797675.672                    22797684.281
 117652864.859 7  91677614.81345  22388598.070                    22388606.207
 110191915.803 8  85863906.62446  20968774.516                    20968780.570
 113734154.610 7  88624154.21245  21642865.250                    21642872.934
 11  7 29  0 56 30.0000000  0  9G05G12G17G28G04G27G09G02G10
 126938530.552 6  98913235.86843  24155582.117                    24155592.684
 120576677.776 7  93955929.95145  22944986.500                    22944994.441
 116741392.781 7  90967436.83345  22215129.969                    22215137.422
 123151256.741 6  95962056.01943  23434895.727                    23434903.754
 106785472.066 8  83209388.88146  20320519.398                    20320527.328
 119844340.566 7  93385178.10644  22805600.664                    22805609.949
 117696487.298 7  91711606.29844  22396898.742                    22396907.148
 110153634.200 8  85834076.82346  20961489.914                    20961495.797
 113669161.907 7  88573510.60145  21630496.484                    21630505.223
 11  7 29  0 57  0.0000000  0  9G05G12G17G28G04G27G09G02G10
 126832460.791 6  98830584.39743  24135397.172                    24135408.043
 120486210.248 7  93885435.82645  22927771.156                    22927778.598
 116782894.945 7  90999776.15545  22223027.430                    22223035.082
 123242315.145 6  96033010.54943  23452223.219                    23452232.281
 106832137.050 8  83245751.18346  20329399.539                    20329407.715
 119886335.683 7  93417901.54344  22813592.531                    22813600.777
 117740614.736 7  91745991.26045  22405296.461                    22405304.656
 110115721.610 8  85804534.57346  20954275.555                    20954281.008
 113604601.294 7  88523203.65845  21618211.602                    21618219.453
 11  7 29  0 57 30.0000000  0  9G05G12G17G28G04G27G09G02G10
 126726372.537 6  98747918.47943  24115208.906                    24115219.816
 120395915.664 7  93815076.43145  22910589.031                    22910596.371
 116824498.439 7  91032194.44745  22230944.219                    22230951.941
 123333649.068 6  96104179.77744  23469604.063                    23469612.422
 106879197.846 8  83282421.92146  20338355.148                    20338362.723
 119928675.816 7  93450893.79944  22821649.711                    22821659.121
 117785244.824 7  91780767.91345  22413788.711                    22413797.480
 110078178.450 8  85775280.18346  20947131.219                    20947136.875
 113540475.653 7  88473235.65945  21606009.016                    21606016.516
 11  7 29  0 58  0.0000000  0  9G05G12G17G28G04G27G09G02G10
 126620268.246 6  98665240.06743  24095017.523                    24095028.820
 120305796.325 7  93744853.64545  22893439.914                    22893447.215
 116866203.901 7  91064692.19845  22238881.094                    22238888.109
 123425256.876 6  96175562.39943  23487036.266                    23487045.473
 106926652.117 8  83319399.26146  20347385.352                    20347393.051
 119971358.764 7  93484153.19544  22829772.320                    22829780.891
 117830374.597 7  91815933.92845  22422376.914                    22422385.207
 110041004.448 8  85746313.45546  20940057.484                    20940062.742
 113476787.737 7  88423608.74445  21593889.703                    21593897.473
 11  7 29  0 58 30.0000000  0  9G05G12G17G28G04G27G09G02G10
 126514150.485 6  98582551.18944  24074824.406                    24074835.129
 120215854.790 7  93674769.37145  22876324.406                    22876331.254
 116908011.570 7  91097269.57745  22246836.992                    22246844.305
 123517136.764 6  96247157.02843  23504520.883                    23504529.551
 106974497.275 8  83356681.19046  20356489.805                    20356497.500
 120014382.027 7  93517677.77844  22837959.195                    22837967.910
 117876001.118 7  91851487.03045  22431059.711                    22431067.785
 110004199.494 8  85717634.29746  20933053.648                    20933059.090
 113413540.472 7  88374325.19145  21581853.578                    21581861.559
 11  7 29  0 59  0.0000000  0  9G05G12G17G28G04G27G09G02G10
 126408021.979 6  98499853.88444  24054628.117                    24054638.988
 120126093.226 7  93604825.34945  22859243.297                    22859251.223
 116949922.208 7  91129927.19445  22254812.031                    22254819.676
 123609287.199 6  96318962.45443  23522056.320                    23522065.434
 107022731.398 8  83394266.20546  20365668.484                    20365676.559
 120057743.492 7  93551465.88845  22846210.500                    22846219.520
 117922121.961 6  91887425.30945  22439836.172                    22439844.078
 109967763.108 8  85689242.33646  20926119.922                    20926125.293
 113350736.965 7  88325387.43445  21569902.680                    21569910.523
 11  7 29  0 59 30.0000000  0  9G05G12G17G28G04G27G09G02G10
 126301885.767 6  98417150.55444  24034431.523                    24034441.805
 120036514.252 7  93535023.61845  22842196.500                    22842203.879
 116991935.773 7  91162665.00945  22262806.844                    22262814.605
 123701706.606 6  96390977.50343  23539642.766                    23539652.762
 107071351.920 8  83432152.31746  20374920.781                    20374928.617
 120101440.970 7  93585515.80844  22854526.180                    22854535.008
 117968734.524 7  91923746.74944  22448705.219                    22448714.441
 109931695.427 8  85661137.66746  20919256.742                    20919262.227
 113288380.010 7  88276797.62845  21558036.453                    21558044.328
 11  7 29  1  0  0.0000000  0  9G05G12G17G28G04G27G09G02G10
 126195744.579 6  98334443.34544  24014233.172                    24014243.730
 119947120.518 7  93465366.22545  22825185.391                    22825193.348
 117034052.767 7  91195483.41345  22270821.102                    22270828.934
 123794393.227 6  96463200.74343  23557281.539                    23557290.020
 107120356.846 8  83470337.96846  20384246.344                    20384254.109
 120145471.979 7  93619825.64444  22862904.727                    22862913.734
 118015836.137 7  91960449.27844  22457669.297                    22457677.848
 109895996.235 8  85633320.14146  20912462.805                    20912468.309
 113226472.276 7  88228557.85745  21546255.758                    21546263.551
 11  7 29  1  0 30.0000000  0  9G05G12G17G28G04G27G09G02G10
 126089601.147 6  98251734.36444  23994034.859                    23994044.859
 119857914.097 7  93395854.76845  22808210.172                    22808217.668
 117076273.772 7  91228382.90045  22278855.867                    22278863.184
 123887345.593 6  96535631.07243  23574969.039                    23574978.227
 107169743.647 8  83508821.18246  20393644.039                    20393651.531
 120189834.300 7  93654393.65344  22871346.492                    22871355.488
 118063424.010 7  91997530.70445  22466725.039                    22466733.152
 109860665.287 8  85605789.55246  20905739.906                    20905745.477
 113165017.051 7  88180670.70045  21534561.250                    21534569.684
 11  7 29  1  1  0.0000000  0  9G05G12G17G28G04G27G09G02G10
 125983458.306 7  98169025.85144  23973835.594                    23973846.348
 119768897.694 7  93326491.40445  22791270.984                    22791278.539
 117118599.498 7  91261363.95845  22286910.094                    22286917.813
 123980561.800 6  96608267.00743  23592707.063                    23592716.922
 107219510.234 8  83547600.33146  20403114.273                    20403122.273
 120234525.662 7  93689218.02944  22879851.289                    22879859.859
 118111495.318 7  92034988.83845  22475872.422                    22475880.883
 109825702.485 8  85578545.84646  20899086.578                    20899091.816
 113104017.032 7  88133138.25145  21522953.352                    21522961.961
 11  7 29  1  1 30.0000000  0  9G05G12G17G28G04G27G09G02G10
 125877318.995 7  98086320.06644  23953638.344                    23953648.777
 119680073.912 7  93257278.11945  22774368.492                    22774376.332
 117161030.093 7  91294426.72945  22294984.758                    22294992.250
 124074040.433 6  96681107.43943  23610496.203                    23610505.477
 107269654.439 8  83586673.72846  20412656.828                    20412664.430
 120279543.950 7  93724297.18944  22888418.141                    22888427.262
 118160047.478 7  92072821.64144  22485110.969                    22485120.422
 109791107.767 8  85551588.94746  20892503.531                    20892509.137
 113043475.157 7  88085962.79745  21511432.336                    21511441.332
 11  7 29  1  2  0.0000000  0  9G05G12G17G28G04G27G09G02G10
 125771185.729 6  98003619.02444  23933442.586                    23933451.590
 119591445.178 7  93188216.82145  22757502.898                    22757510.180
 117203566.126 7  91327571.65345  22303078.914                    22303087.199
 124167779.884 6  96754151.10143  23628334.031                    23628343.539
 107320173.825 8  83626039.47546  20422269.938                    20422277.910
 120324886.668 7  93759629.11844  22897046.375                    22897055.594
 118209077.850 7  92111027.09645  22494441.156                    22494450.469
 109756881.047 8  85524918.80846  20885990.086                    20885995.586
 112983393.858 7  88039146.22145  21499999.234                    21500007.734
 11  7 29  1  2 30.0000000  0  9G05G12G17G28G04G27G09G02G10
 125665061.339 6  97920924.86344  23913246.656                    23913257.242
 119503013.890 7  93119309.36845  22740675.422                    22740682.773
 117246208.041 7  91360799.10245  22311193.070                    22311201.098
 124261777.879 6  96827396.21943  23646221.766                    23646230.672
 107371065.763 8  83665695.52146  20431954.531                    20431961.793
 120370551.432 7  93795211.99944  22905736.125                    22905745.004
 118258583.512 7  92149602.89944  22503862.508                    22503870.836
 109723021.642 8  85498534.87446  20879546.930                    20879552.352
 112923776.007 7  87992690.78645  21488654.727                    21488662.930
 11  7 29  1  3  0.0000000  0  9G05G12G17G28G04G27G09G02G10
 125558948.174 7  97838239.45344  23893053.477                    23893064.672
 119414782.574 7  93050557.73045  22723884.898                    22723891.887
 117288955.945 7  91394109.11145  22319327.820                    22319335.594
 124356032.625 6  96900841.38443  23664157.430                    23664166.066
 107422327.822 8  83705639.97246  20441709.547                    20441717.160
 120416535.371 7  93831043.59644  22914486.398                    22914495.711
 118308560.998 7  92188546.35545  22513372.695                    22513381.199
 109689528.940 8  85472436.69146  20873173.547                    20873179.285
 112864623.877 7  87946598.24045  21477398.398                    21477406.023
 11  7 29  1  3 30.0000000  0  9G05G12G17G28G04G27G09G02G10
 125452850.124 6  97755565.83843  23872864.398                    23872874.418
 119326753.724 7  92981963.84345  22707134.070                    22707141.398
 117331811.113 7  91427502.72345  22327482.797                    22327490.141
 124450543.151 6  96974485.86943  23682141.547                    23682151.523
 107473958.681 8  83745871.79746  20451534.430                    20451541.969
 120462837.117 7  93867122.84844  22923297.617                    22923306.785
 118359008.710 6  92227856.22444  22522972.508                    22522981.539
 109656403.764 8  85446624.88646  20866870.102                    20866875.625
 112805941.427 7  87900871.68545  21466231.344                    21466239.156
 11  7 29  1  4  0.0000000  0  9G05G12G17G28G04G27G09G02G10
 125346769.362 7  97672905.68043  23852676.844                    23852687.418
 119238929.899 7  92913529.71645  22690422.016                    22690428.664
 117374773.437 7  91460979.82245  22335658.172                    22335665.289
 124545307.583 6  97048328.17843  23700175.367                    23700185.309
 107525955.473 8  83786388.76446  20461429.156                    20461436.598
 120509453.896 7  93903447.57644  22932168.031                    22932177.504
 118409923.175 7  92267529.80444  22532661.242                    22532670.035
 109623645.342 8  85421098.86246  20860636.367                    20860641.469
 112747730.978 7  87855512.92245  21455154.523                    21455162.223
 11  7 29  1  4 30.0000000  0  9G05G12G17G28G04G27G09G02G10
 125240708.588 6  97590261.07944  23832494.648                    23832504.707
 119151313.558 7  92845257.25145  22673748.703                    22673755.715
 117417843.869 7  91494541.17245  22343854.641                    22343862.012
 124640323.868 6  97122366.76443  23718256.969                    23718265.805
 107578316.015 8  83827189.17246  20471393.242                    20471400.891
 120556383.450 7  93940016.01344  22941098.500                    22941107.969
 118461301.736 7  92307565.00545  22542438.008                    22542446.898
 109591253.487 8  85395858.47246  20854472.336                    20854477.695
 112689995.161 7  87810523.99345  21444167.328                    21444175.063
 11  7 29  1  5  0.0000000  0  9G05G12G17G28G04G27G09G02G10
 125134670.621 6  97507634.24244  23812315.844                    23812326.207
 119063907.008 7  92777148.26445  22657115.617                    22657123.223
 117461022.099 7  91528186.51045  22352070.906                    22352078.707
 124735590.351 6  97196600.31343  23736384.805                    23736393.992
 107631037.419 8  83868270.77946  20481425.836                    20481433.082
 120603622.994 7  93976826.01244  22950087.875                    22950097.563
 118513141.157 7  92347959.32245  22552303.508                    22552312.242
 109559227.382 8  85370903.08846  20848377.797                    20848383.563
 112632736.040 7  87765906.51845  21433271.469                    21433279.508
 11  7 29  1  5 30.0000000  0  9G05G12G17G28G04G27G09G02G10
 125028658.686 7  97425027.71644  23792142.633                    23792152.730
 118976713.073 7  92709204.96445  22640523.219                    22640530.496
 117504309.261 7  91561916.72845  22360308.281                    22360316.531
 124831105.320 6  97271027.46443  23754561.898                    23754570.039
 107684117.924 8  83909632.20846  20491526.656                    20491533.875
 120651170.530 7  94013875.99944  22959136.461                    22959145.477
 118565438.863 7  92388710.74344  22562254.984                    22562263.945
 109527567.434 8  85346233.01746  20842353.367                    20842359.008
 112575957.242 7  87721663.32345  21422466.938                    21422474.520
 11  7 29  1  6  0.0000000  0  9G05G12G17G28G04G27G09G02G10
 124922675.006 7  97342443.18744  23771974.414                    23771984.527
 118889734.129 7  92641429.15945  22623971.141                    22623978.895
 117547705.430 7  91595731.87045  22368566.719                    22368574.191
 124926866.034 6  97345646.10943  23772784.352                    23772792.547
 107737554.551 8  83951271.12046  20501695.180                    20501702.738
 120699022.827 7  94051163.45844  22968242.344                    22968251.258
 118618191.165 7  92429816.38344  22572293.586                    22572302.219
 109496272.310 8  85321847.21146  20836397.641                    20836403.211
 112519660.204 7  87677795.52145  21411753.859                    21411761.512
 11  7 29  1  6 30.0000000  0  9G05G12G17G28G04G27G09G02G10
 124816723.028 7  97259883.36844  23751812.477                    23751822.531
 118802972.741 7  92573822.90445  22607461.641                    22607469.102
 117591211.284 7  91629632.49945  22376845.594                    22376852.809
 125022871.891 6  97420455.77543  23791053.609                    23791062.254
 107791345.519 8  83993186.14746  20511931.172                    20511938.906
 120747178.352 7  94088687.20744  22977405.836                    22977415.059
 118671396.410 7  92471274.97444  22582418.727                    22582426.363
 109465342.712 8  85297746.24346  20830512.195                    20830517.531
 112463848.828 7  87634306.16245  21401133.172                    21401141.039
 11  7 29  1  7  0.0000000  0  9G05G12G17G28G04G27G09G02G10
 124710805.388 7  97177350.29044  23731657.031                    23731667.344
 118716431.450 7  92506388.12845  22590993.016                    22591000.160
 117634827.625 7  91663619.22245  22385145.367                    22385152.602
 125119120.992 6  97495455.02943  23809368.977                    23809378.363
 107845488.656 8  84035375.59546  20522234.148                    20522241.668
 120795634.644 7  94126445.31944  22986626.422                    22986636.031
 118725051.278 7  92513083.93544  22592628.531                    22592636.938
 109434778.256 8  85273929.78646  20824696.195                    20824701.473
 112408525.815 7  87591197.34045  21390605.867                    21390613.164
 11  7 29  1  7 30.0000000  0  9G05G12G17G28G04G27G09G02G10
 124604924.638 7  97094845.97144  23711508.836                    23711518.668
 118630112.675 7  92439126.75845  22574566.609                    22574574.422
 117678554.363 7  91697691.97345  22393466.734                    22393473.902
 125215611.161 6  97570642.07943  23827730.539                    23827739.840
 107899981.209 8  84077837.31546  20532603.898                    20532611.602
 120844388.962 7  94164435.66044  22995904.508                    22995913.387
 118779152.489 7  92555240.68044  22602923.406                    22602932.457
 109404577.961 8  85250397.09246  20818949.398                    20818954.469
 112353693.217 7  87548470.66845  21380171.219                    21380178.910
 11  7 29  1  8  0.0000000  0  9G05G12G17G28G04G27G09G02G10
 124499084.058 7  97012372.94544  23691366.742                    23691377.277
 118544018.890 7  92372040.68645  22558184.008                    22558190.957
 117722392.384 7  91731851.44445  22401808.922                    22401816.184
 125312340.715 6  97646015.65443  23846137.594                    23846146.680
 107954821.167 8  84120569.73846  20543039.820                    20543047.309
 120893439.130 7  94202656.52444  23005238.375                    23005247.566
 118833697.354 7  92597743.14144  22613302.781                    22613311.656
 109374741.894 8  85227148.22046  20813271.453                    20813276.945
 112299353.383 7  87506127.97045  21369830.578                    21369838.797
 11  7 29  1  8 30.0000000  0  9G05G12G17G28G04G27G09G02G10
 124393286.404 7  96929933.36844  23671234.828                    23671244.445
 118458152.831 7  92305132.08045  22541844.039                    22541851.969
 117766341.997 7  91766097.88145  22410171.453                    22410179.574
 125409307.787 6  97721574.35243  23864590.016                    23864598.777
 108010005.918 8  84163570.82446  20553540.844                    20553548.629
 120942782.510 7  94241105.87844  23014628.578                    23014636.832
 118888682.574 7  92640588.73245  22623766.547                    22623775.375
 109345269.703 8  85204182.87646  20807663.055                    20807668.504
 112245509.001 8  87464171.33445  21359584.438                    21359592.082
 11  7 29  1  9  0.0000000  0  9G05G12G17G28G04G27G09G02G10
 124287534.049 7  96847529.09744  23651110.500                    23651120.422
 118372516.763 7  92238402.71345  22525548.234                    22525555.336
 117810403.626 7  91800431.57745  22418556.203                    22418564.566
 125506510.592 6  97797316.70643  23883087.352                    23883096.023
 108065532.734 8  84206838.46746  20564107.313                    20564114.965
 120992416.237 7  94279781.46544  23024073.648                    23024082.848
 118944104.817 7  92683774.86244  22634313.547                    22634322.336
 109316160.566 8  85181500.44446  20802124.008                    20802129.109
 112192162.494 8  87422602.66345  21349432.930                    21349440.250
 11  7 29  1  9 30.0000000  0  9G05G12G17G28G04G27G09G02G10
 124181830.290 7  96765162.69044  23630995.695                    23631005.789
 118287113.836 7  92171854.99545  22509296.422                    22509303.418
 117854577.962 7  91834853.09945  22426963.258                    22426970.641
 125603947.038 6  97873241.10943  23901628.633                    23901637.277
 108121400.239 8  84250371.58146  20574738.477                    20574746.098
 121042338.285 7  94318681.72044  23033573.156                    23033582.281
 118999961.880 7  92727299.81944  22644942.563                    22644951.066
 109287414.403 8  85159100.85046  20796653.367                    20796659.070
 112139317.175 7  87381424.51345  21339377.258                    21339384.547
 11  7 29  1 10  0.0000000  0  9G05G12G17G28G04G27G09G02G10
 124076178.031 7  96682836.40244  23610890.094                    23610900.367
 118201946.136 7  92105490.58445  22493090.109                    22493097.242
 117898865.665 7  91869362.98345  22435390.156                    22435397.992
 125701615.424 6  97949346.23043  23920214.703                    23920222.410
 108177605.483 8  84294167.85946  20585434.344                    20585441.402
 121092545.940 7  94357804.51444  23043127.469                    23043136.430
 119056250.593 7  92771161.11644  22655653.094                    22655662.563
 109259030.857 8  85136983.81446  20791252.313                    20791257.680
 112086975.224 8  87340638.61845  21329416.508                    21329424.551
 11  7 29  1 10 30.0000000  0  9G05G12G17G28G04G27G09G02G10
 123970580.192 7  96600552.52144  23590795.469                    23590805.711
 118117016.405 7  92039311.61745  22476928.039                    22476935.074
 117943267.195 7  91903961.56845  22443839.375                    22443847.480
 125799514.318 6  98025631.01643  23938843.750                    23938852.742
 108234146.525 8  84338225.80446  20596193.617                    20596201.328
 121143036.962 7  94397148.11644  23052736.352                    23052745.023
 119112967.913 7  92815356.39244  22666446.797                    22666455.566
 109231009.671 8  85115149.13746  20785920.180                    20785925.379
 112035139.486 8  87300247.16045  21319552.430                    21319560.469
 11  7 29  1 11  0.0000000  0  9G05G12G17G28G04G27G09G02G10
 123865039.443 7  96518313.12944  23570712.164                    23570721.379
 118032326.939 7  91973319.85445  22460811.656                    22460819.199
 117987782.780 7  91938649.02145  22452310.820                    22452318.867
 125897641.578 6  98102093.72443  23957517.391                    23957525.824
 108291020.550 8  84382543.21546  20607016.164                    20607023.543
 121193808.704 7  94436710.47144  23062397.555                    23062406.371
 119170110.754 7  92859883.24644  22677320.727                    22677329.176
 109203350.190 8  85093596.31546  20780656.430                    20780661.883
 111983811.792 8  87260251.57945  21309784.906                    21309792.992
 11  7 29  1 11 30.0000000  0  9G05G12G17G28G04G27G09G02G10
 123759558.654 7  96436120.45044  23550639.445                    23550649.258
 117947880.400 7  91907517.39645  22444741.844                    22444749.770
 118032413.283 7  91973426.03245  22460803.844                    22460811.578
 125995995.186 6  98178732.83343  23976233.891                    23976241.703
 108348225.171 8  84427118.23846  20617902.219                    20617909.898
 121244858.569 7  94476489.53044  23072111.602                    23072120.816
 119227675.919 7  92904739.17944  22688275.641                    22688283.219
 109176051.995 8  85072325.01446  20775462.047                    20775467.574
 111932994.946 8  87220654.07145  21300114.836                    21300122.852
 11  7 29  1 12  0.0000000  0  9G05G12G17G28G04G27G09G02G10
 123654141.116 7  96353977.04344  23530579.156                    23530588.582
 117863679.560 7  91841906.40945  22428719.719                    22428726.797
 118077159.165 7  92008292.93345  22469317.758                    22469326.094
 126094573.712 6  98255547.20642  23994991.273                    23995000.879
 108405758.878 8  84471949.69646  20628850.383                    20628857.523
 121296184.401 7  94516483.62044  23081879.438                    23081888.320
 119285660.987 7  92949922.33444  22699309.664                    22699318.043
 109149115.096 8  85051335.25046  20770336.039                    20770341.324
 111882691.805 8  87181456.84645  21290542.453                    21290550.121
 11  7 29  1 12 30.0000000  0  9G05G12G17G28G04G27G09G02G10
 123548789.138 7  96271884.73244  23510531.047                    23510541.309
 117779726.862 7  91776488.75145  22412743.430                    22412751.301
 118122020.748 7  92043250.00745  22477855.297                    22477863.242
 126193374.689 6  98332534.87643  24013792.813                    24013802.883
 108463618.548 8  84517035.14846  20639860.656                    20639868.512
 121347783.210 7  94556690.43044  23091697.281                    23091706.918
 119344062.266 7  92995429.77544  22710422.859                    22710431.445
 109122538.394 8  85030626.14546  20765278.758                    20765284.074
 111832904.281 8  87142661.40545  21281068.063                    21281075.840
 11  7 29  1 13  0.0000000  0  9G05G12G17G28G04G27G09G02G10
 123443505.806 7  96189845.89144  23490496.680                    23490505.820
 117696024.547 7  91711266.22545  22396816.070                    22396823.055
 118166998.280 7  92078297.43545  22486414.391                    22486422.133
 126292396.241 6  98409694.47942  24032636.586                    24032646.074
 108521801.605 8  84562372.58946  20650932.945                    20650940.211
 121399652.366 7  94597107.89944  23101567.508                    23101577.730
 119402876.421 7  93041258.94744  22721614.789                    22721623.641
 109096321.136 8  85010197.14246  20760289.672                    20760294.941
 111783634.347 8  87104269.27645  21271692.258                    21271700.508
 11  7 29  1 13 30.0000000  0  9G05G12G17G28G04G27G09G02G10
 123338294.367 7  96107863.08444  23470475.414                    23470484.973
 117612575.552 7  91646241.06345  22380935.836                    22380943.289
 118212092.865 7  92113436.07245  22494995.703                    22495003.082
 126391636.729 6  98487024.69743  24051522.148                    24051530.262
 108580306.277 8  84607960.64346  20662065.539                    20662072.910
 121451789.775 7  94637734.41244  23111489.086                    23111498.832
 119462100.936 7  93087407.88044  22732884.969                    22732893.563
 109070463.623 8  84990048.46546  20755369.148                    20755374.051
 111734885.315 8  87066283.05345  21262415.117                    21262423.816
 11  7 29  1 14  0.0000000  0  9G05G12G17G28G04G27G09G02G10
 123233157.278 7  96025938.19844  23450468.063                    23450477.398
 117529382.316 7  91581415.19645  22365104.828                    22365112.066
 118257304.918 7  92148666.23345  22503599.406                    22503606.496
 126491094.240 6  98564524.02443  24070448.516                    24070455.910
 108639130.127 8  84653797.40546  20673259.547                    20673266.965
 121504192.913 7  94678567.94844  23121461.313                    23121471.141
 119521732.511 7  93133874.02644  22744232.070                    22744241.430
 109044965.099 8  84970179.50646  20750516.875                    20750522.281
 111686659.379 8  87028704.43746  21253238.305                    21253246.434
 11  7 29  1 14 30.0000000  0  9G05G12G17G28G04G27G09G02G10
 123128097.774 7  95944073.76944  23430475.719                    23430485.145
 117446447.583 7  91516790.76845  22349322.695                    22349329.984
 118302635.040 7  92183988.40945  22512225.492                    22512232.746
 126590766.760 6  98642190.86643  24089415.000                    24089424.355
 108698270.915 8  84699881.13746  20684513.555                    20684521.516
 121556859.307 7  94719606.63544  23131484.180                    23131492.863
 119581768.320 7  93180655.13244  22755656.641                    22755665.289
 109019825.430 8  84950590.18046  20745733.195                    20745738.020
 111638958.938 8  86991535.29745  21244161.641                    21244169.473
 11  7 29  1 15  0.0000000  0  9G05G12G17G28G04G27G09G02G10
 123023118.814 7  95862272.10244  23410498.953                    23410508.676
 117363773.673 7  91452369.55745  22333590.641                    22333597.379
 118348083.321 7  92219402.65545  22520874.336                    22520881.422
 126690652.254 6  98720023.58043  24108422.406                    24108431.090
 108757725.921 8  84746209.70246  20695827.297                    20695835.027
 121609785.930 7  94760848.09444  23141555.211                    23141564.301
 119642204.616 6  93227748.31544  22767157.602                    22767166.348
 108995043.388 8  84931279.52746  20741017.250                    20741022.297
 111591785.868 8  86954777.09246  21235184.430                    21235192.379
 11  7 29  1 15 30.0000000  0  9G05G12G17G28G04G27G09G02G10
 122918222.926 7  95780535.15644  23390537.836                    23390547.152
 117281362.982 7  91388153.46245  22317908.125                    22317915.516
 118393650.420 7  92254909.48745  22529544.828                    22529552.988
 126790749.057 6  98798021.01043  24127470.117                    24127479.719
 108817492.897 8  84792781.36846  20707200.578                    20707208.488
 121662970.264 7  94802290.38244  23151675.750                    23151685.793
 119703038.629 6  93275151.41944  22778734.250                    22778742.672
 108970618.598 8  84912247.25646  20736369.055                    20736374.578
 111545142.474 7  86918431.63245  21226308.633                    21226316.660
 11  7 29  1 16  0.0000000  0  9G05G12G17G28G04G27G09G02G10
 122813413.548 7  95698865.63044  23370593.422                    23370602.313
 117199218.710 7  91324144.95645  22302276.578                    22302284.125
 118439337.387 7  92290509.70345  22538238.875                    22538246.473
 126891055.143 6  98876181.48543  24146558.047                    24146567.684
 108877569.832 8  84839594.55946  20718632.875                    20718640.777
 121716410.219 7  94843931.83844  23161844.945                    23161854.941
 119764267.518 7  93322862.19344  22790385.633                    22790393.961
 108946551.328 8  84893493.56946  20731789.117                    20731794.363
 111499031.888 7  86882501.34046  21217533.633                    21217541.723
 11  7 29  1 16 30.0000000  0  9G05G12G17G28G04G27G09G02G10
 122708693.202 7  95617265.46144  23350665.719                    23350674.527
 117117343.008 7  91260345.71945  22286696.016                    22286703.078
 118485144.157 7  92326203.28845  22546955.797                    22546963.109
 126991568.472 6  98954503.44843  24165684.719                    24165694.707
 108937953.859 8  84886647.03846  20730123.352                    20730131.258
 121770102.540 7  94885769.94144  23172062.695                    23172072.145
 119825887.656 7  93370877.84244  22802111.570                    22802120.133
 108922840.173 8  84875017.36946  20727277.258                    20727282.469
 111453455.748 8  86846987.49745  21208861.461                    21208869.309
 11  7 29  1 17  0.0000000  0  9G05G12G17G28G04G27G09G02G10
 122604064.587 7  95535736.78644  23330755.984                    23330764.875
 117035738.036 7  91196757.46145  22271167.492                    22271174.863
 118531071.157 7  92361990.56945  22555695.320                    22555702.590
 127092286.651 6  99032984.98543  24184851.922                    24184860.727
 108998642.512 8  84933936.89246  20741672.141                    20741680.133
 121824044.517 7  94927802.60244  23182327.641                    23182337.109
 119887895.532 7  93419195.63544  22813911.008                    22813919.855
 108899483.855 8  84856817.67646  20722832.680                    20722837.688
 111408415.860 8  86811891.51946  21200290.273                    21200298.465
 11  7 29  1 17 30.0000000  0  9G05G12G17G28G04G27G09G02G10
 122499531.112 7  95454282.22644  23310863.539                    23310872.543
 116954407.079 7  91133382.70145  22255690.313                    22255697.469
 118577119.605 7  92397872.46645  22564458.203                    22564465.352
 127193208.221 6  99111625.01943  24204055.773                    24204065.914
 109059633.923 8  84981462.66046  20753278.445                    20753286.234
 121878234.203 7  94970028.26944  23192639.383                    23192648.746
 119950288.491 7  93467813.47644  22825783.844                    22825792.664
 108876483.327 8  84838895.22546  20718455.695                    20718461.012
 111363915.256 8  86777215.75446  21191822.219                    21191829.727
 11  7 29  1 18  0.0000000  0  9G05G12G17G28G04G27G09G02G10
 122395095.541 7  95372903.98044  23290990.078                    23290998.961
 116873352.670 7  91070223.43745  22240266.938                    22240273.867
 118623289.776 7  92433849.21445  22573243.922                    22573251.074
 127294331.083 6  99190421.93243  24223299.469                    24223308.363
 109120925.922 8  85029222.65646  20764942.055                    20764949.613
 121932668.822 7  95012444.80344  23202998.625                    23203007.719
 120013063.222 7  93516728.80944  22837729.750                    22837738.473
 108853837.600 8  84821249.24846  20714146.289                    20714151.379
 111319955.968 8  86742961.80245  21183457.016                    21183465.191
 11  7 29  1 18 30.0000000  0  9G05G12G17G28G04G27G09G02G10
 122290761.055 7  95291604.46344  23271135.313                    23271144.574
 116792577.181 7  91007281.51545  22224895.164                    22224902.617
 118669581.937 7  92469921.03345  22582053.141                    22582060.652
 127395653.337 6  99269374.23642  24242580.484                    24242589.996
 109182515.667 8  85077214.65546  20776662.258                    20776669.715
 121987345.792 7  95055050.17444  23213402.492                    23213412.258
 120076216.556 7  93565939.16344  22849747.648                    22849756.641
 108831546.020 8  84803879.22446  20709904.859                    20709909.824
 111276539.984 8  86709131.19846  21175194.984                    21175202.816
 11  7 29  1 19  0.0000000  0  9G05G12G17G28G04G27G09G02G10
 122186530.330 7  95210385.84944  23251300.836                    23251310.199
 116712083.072 7  90944558.84845  22209577.828                    22209585.316
 118715996.838 7  92506088.45945  22590885.633                    22590892.910
 127497173.179 6  99348480.48543  24261899.289                    24261908.273
 109244401.130 8  85125437.08446  20788438.758                    20788446.648
 122042262.448 7  95097842.30744  23223853.117                    23223862.785
 120139745.398 7  93615442.10644  22861836.773                    22861845.371
 108809607.856 8  84786784.58046  20705729.477                    20705734.824
 111233669.835 8  86675725.91745  21167037.219                    21167045.145
 11  7 29  1 19 30.0000000  0  9G05G12G17G28G04G27G09G02G10
 122082406.280 7  95129250.31344  23231486.781                    23231495.602
 116631873.119 7  90882057.61845  22194314.125                    22194321.523
 118762534.675 7  92542351.70845  22599741.563                    22599749.207
 127598888.306 6  99427738.92942  24281255.211                    24281264.645
 109306579.595 8  85173887.83746  20800270.672                    20800278.371
 122097415.972 7  95140819.02344  23234348.016                    23234358.281
 120203646.105 7  93665234.81244  22873996.297                    22874005.398
 108788022.404 8  84769964.77646  20701622.047                    20701627.070
 111191346.955 8  86642747.08746  21158983.391                    21158991.219
 11  7 29  1 20  0.0000000  0  9G05G12G17G28G04G27G09G02G10
 121978391.851 7  95048200.24244  23211692.914                    23211702.383
 116551949.636 7  90819779.59945  22179105.672                    22179112.750
 118809196.375 7  92578711.45145  22608620.305                    22608628.465
 127700796.660 6  99507147.99142  24300648.078                    24300657.055
 109369049.035 8  85222565.30846  20812158.500                    20812165.633
 122152803.903 7  95183978.39944  23244888.734                    23244898.176
 120267915.533 7  93715314.82644  22886227.156                    22886235.734
 108766788.998 8  84753419.28246  20697581.617                    20697586.359
 111149573.876 8  86610196.67645  21151034.453                    21151042.063
 11  7 29  1 20 30.0000000  0  9G05G12G17G28G04G27G09G02G10
 121874490.377 7  94967238.17644  23191921.180                    23191930.480
 116472315.502 7  90757727.06245  22163951.563                    22163958.887
 118855982.526 7  92615168.15745  22617523.750                    22617532.102
 127802896.460 6  99586706.23442  24320075.367                    24320085.785
 109431807.198 8  85271467.76646  20824101.234                    20824108.332
 122208423.695 7  95227318.40644  23255472.875                    23255481.836
 120332550.797 7  93765679.91744  22898526.836                    22898535.457
 108745907.304 8  84737147.86346  20693607.617                    20693613.203
 111108353.234 8  86578076.71946  21143190.359                    21143198.156
 11  7 29  1 21  0.0000000  0  9G05G12G17G28G04G27G09G02G10
 121770704.294 7  94886366.01244  23172170.961                    23172180.641
 116392973.274 7  90695901.98645  22148852.984                    22148859.914
 118902893.576 7  92651722.20945  22626450.766                    22626458.430
 127905185.638 6  99666411.92242  24339541.844                    24339551.441
 109494851.453 8  85320593.15146  20836097.664                    20836105.313
 122264272.364 7  95270836.81944  23266100.539                    23266110.145
 120397548.534 7  93816327.45044  22910894.852                    22910904.539
 108725376.582 8  84721149.92946  20689700.945                    20689706.000
 111067686.742 8  86546388.57346  21135451.539                    21135459.633
 11  7 29  1 21 30.0000000  0  9G05G12G17G28G04G27G09G02G10
 121667037.065 7  94805586.47144  23152444.250                    23152453.457
 116313925.600 7  90634306.43445  22133810.930                    22133817.715
 118949930.192 7  92688374.09945  22635401.352                    22635409.965
 128007662.276 6  99746263.74542  24359041.844                    24359051.910
 109558179.874 8  85369939.95646  20848148.969                    20848156.676
 122320347.704 7  95314531.81344  23276771.797                    23276781.191
 120462905.609 7  93867254.98344  22923332.078                    22923341.004
 108705196.538 8  84705425.22846  20685860.773                    20685866.145
 111027576.428 8  86515133.81746  21127819.047                    21127826.676
 11  7 29  1 22  0.0000000  0 10G05G12G25G17G28G04G27G09G02G10
 121563490.728 7  94724901.12744  23132739.789                    23132748.891
 116235174.773 7  90572942.18045  22118825.102                    22118831.676
 132504166.21415                  25214716.867
 118997092.382 7  92725123.84245  22644376.125                    22644383.742
 128110323.615 6  99826259.50642  24378578.125                    24378587.949
 109621789.264 8  85419505.69946  20860253.242                    20860260.941
 122376646.196 7  95358400.71844  23287484.078                    23287494.695
 120528618.030 7  93918459.40944  22935836.734                    22935846.023
 108685365.524 8  84689972.50446  20682087.141                    20682091.867
 110988023.330 8  86484313.25446  21120292.453                    21120300.086
 11  7 29  1 22 30.0000000  0 10G05G12G25G17G28G04G27G09G02G10
 121460068.845 7  94644312.75744  23113059.141                    23113068.164
 116156723.249 7  90511811.15945  22103896.031                    22103903.246
 132398822.576 5                  25194671.758
 119044380.992 7  92761972.08145  22653375.016                    22653382.227
 128213168.269 6  99906398.13342  24398148.375                    24398158.883
 109685677.838 8  85469288.98046  20872410.758                    20872418.766
 122433165.967 7  95402442.01544  23298240.258                    23298249.832
 120594682.947 7  93969938.52644  22948408.602                    22948417.266
 108665883.590 8  84674791.78446  20678379.734                    20678384.984
 110949030.394 8  86453929.17245  21112871.703                    21112879.820
 11  7 29  1 23  0.0000000  0 10G05G12G25G17G28G04G27G09G02G10
 121356774.638 7  94563823.88744  23093402.938                    23093411.766
 116078573.908 8  90450915.59745  22089024.938                    22089031.707
 132293521.467 5                  25174632.297
 119091796.846 7  92798919.48945  22662397.828                    22662405.469
 128316194.383 6  99986678.18342  24417754.266                    24417763.719
 109749843.531 8  85519288.20946  20884621.367                    20884628.926
 122489904.363 6  95446653.70143  23309036.961                    23309046.457
 120661097.104 7  94021689.76344  22961046.789                    22961055.980
 108646750.225 8  84659882.67546  20674738.992                    20674743.816
 110910599.682 8  86423983.19446  21105558.859                    21105567.016
 11  7 29  1 23 30.0000000  0 10G05G12G25G17G28G04G27G09G02G10
 121253610.773 7  94483436.57644  23073771.859                    23073780.242
 116000729.227 7  90390257.43245  22074211.672                    22074218.816
 132188264.888 5                  25154602.672
 119139340.393 7  92835966.38845  22671444.719                    22671453.254
 128419399.615 6 100067097.75542  24437393.320                    24437402.648
 109814283.716 8  85569501.32546  20896883.773                    20896891.273
 122546858.584 6  95491033.54544  23319875.289                    23319884.344
 120727857.357 7  94073710.67844  22973750.492                    22973759.691
 108627964.464 8  84645244.44246  20671164.313                    20671169.086
 110872733.155 8  86394476.83346  21098353.406                    21098360.863
 11  7 29  1 24  0.0000000  0 10G05G12G25G17G28G04G27G09G02G10
 121150580.231 7  94403153.14145  23054165.336                    23054173.980
 115923191.776 7  90329838.67845  22059456.664                    22059463.320
 132083055.181 5                  25134582.164
 119187012.074 7  92873113.11445  22680515.938                    22680524.605
 128522781.946 6 100147655.38242  24457066.289                    24457076.590
 109878996.032 8  85619926.48946  20909198.344                    20909205.957
 122604025.953 6  95535579.47844  23330753.609                    23330763.430
 120794960.538 7  94125998.83844  22986520.055                    22986529.359
 108609525.715 8  84630876.60446  20667654.906                    20667660.328
 110835432.656 8  86365411.53545  21091255.023                    21091263.102
 11  7 29  1 24 30.0000000  0 10G05G12G25G17G28G04G27G09G02G10
 121047685.905 7  94322975.87344  23034585.102                    23034593.512
 115845964.279 7  90269661.41845  22044760.531                    22044767.563
 131977894.441 5                  25114571.695
 119234812.429 7  92910360.12945  22689612.836                    22689621.059
 128626339.374 6 100228349.50642  24476772.930                    24476782.035
 109943978.312 8  85670562.01546  20921563.805                    20921571.711
 122661403.420 7  95580289.13144  23341672.320                    23341682.172
 120862403.037 7  94178551.36644  22999354.391                    22999363.191
 108591432.985 8  84616778.39746  20664212.219                    20664217.613
 110798699.957 8  86336788.67946  21084265.156                    21084272.926
 11  7 29  1 25  0.0000000  0 10G05G12G25G17G28G04G27G09G02G10
 120944931.102 7  94242907.29245  23015032.031                    23015040.273
 115769049.268 8  90209727.66145  22030124.078                    22030131.328
 131872785.123 5 102758105.75752  25094569.453                    25094579.945
 119282742.122 7  92947707.91145  22698733.484                    22698740.906
 128730069.688 6 100309178.32442  24496512.289                    24496521.746
 110009228.116 8  85721406.00646  20933980.750                    20933988.574
 122718988.668 7  95625160.67344  23352630.523                    23352639.797
 120930181.732 7  94231365.88844  23012252.633                    23012261.027
 108573685.972 8  84602949.58046  20660835.156                    20660840.277
 110762537.091 8  86308609.83946  21077383.320                    21077391.035
 11  7 29  1 25 30.0000000  0 10G05G12G25G17G28G04G27G09G02G10
 120842318.617 7  94162949.62845  22995504.438                    22995513.277
 115692449.271 7  90150039.39045  22015547.867                    22015554.957
 131767729.734 6 102676244.45942  25074577.656                    25074589.844
 119330801.561 7  92985156.83145  22707879.266                    22707886.207
 128833971.271 6 100390140.48942  24516284.000                    24516294.180
 110074743.318 8  85772456.79946  20946447.500                    20946455.410
 122776779.079 7  95670192.10544  23363628.273                    23363637.973
 120998293.272 7  94284439.74544  23025213.586                    23025222.746
 108556283.835 8  84589389.49346  20657523.742                    20657528.527
 110726946.043 8  86280876.57746  21070610.617                    21070618.461
 11  7 29  1 26  0.0000000  0 10G05G12G25G17G28G04G27G09G02G10
 120739851.354 7  94083105.10745  22976005.703                    22976014.570
 115616167.018 8  90090598.67745  22001031.648                    22001038.621
 131662730.378 6 102594426.83742  25054596.797                    25054609.207
 119378991.507 7  93022707.41644  22717048.992                    22717056.191
 128938041.852 5 100471234.38642  24536086.500                    24536097.934
 110140521.638 8  85823712.61646  20958964.656                    20958972.340
 122834771.992 6  95715381.29844  23374663.773                    23374673.648
 121066734.365 7  94337770.42644  23038237.617                    23038246.379
 108539226.086 8  84576097.75346  20654277.477                    20654282.809
 110691928.469 8  86253590.17046  21063947.125                    21063954.641
 11  7 29  1 26 30.0000000  0 10G05G12G25G17G28G04G27G09G02G10
 120637532.283 7  94003376.04945  22956535.125                    22956543.621
 115540204.841 7  90031407.39045  21986576.219                    21986583.426
 131557789.190 6 102512654.54843  25034627.859                    25034639.426
 119427312.453 7  93060360.08645  22726243.859                    22726251.586
 129042278.84016 100552457.96353  24555923.234                    24555933.102
 110206560.682 8  85875171.60446  20971531.727                    20971539.496
 122892964.437 7  95760726.00044  23385736.586                    23385747.098
 121135501.735 7  94391355.33144  23051323.430                    23051332.387
 108522511.584 8  84563073.47646  20651096.648                    20651101.809
 110657486.420 8  86226752.22346  21057392.852                    21057400.789
 11  7 29  1 27  0.0000000  0 10G05G12G25G17G28G04G27G09G02G10
 120535364.551 7  93923764.93045  22937093.125                    22937101.977
 115464565.519 7  89972467.65445  21972182.828                    21972189.684
 131452908.824 5 102430929.59942  25014669.836                    25014680.621
 119475765.108 7  93098115.36545  22735464.695                    22735472.367
 129146680.789 6 100633810.11443  24575790.797                    24575800.715
 110272858.273 8  85926832.05346  20984147.836                    20984155.730
 122951353.851 6  95806224.16444  23396847.820                    23396858.195
 121204592.276 6  94445192.04744  23064471.094                    23064480.031
 108506139.994 8  84550316.41346  20647981.547                    20647986.668
 110623621.857 8  86200364.28346  21050948.289                    21050956.805
 11  7 29  1 27 30.0000000  0 10G05G12G25G17G28G04G27G09G02G10
 120433350.961 7  93844273.91445  22917680.328                    22917688.793
 115389251.115 7  89913781.11645  21957851.109                    21957857.863
 131348091.065 6 102349253.49042  24994723.945                    24994734.922
 119524349.495 7  93135973.30945  22744710.797                    22744717.887
 129251245.059 6 100715288.72443  24595688.484                    24595699.066
 110339411.736 8  85978691.88846  20996812.523                    20996819.848
 123009937.163 6  95851873.42644  23407996.320                    23408006.418
 121274002.044 7  94499277.53344  23077678.945                    23077688.090
 108490109.636 8  84537825.23846  20644931.031                    20644936.109
 110590335.858 8  86174427.15545  21044613.883                    21044622.012
 11  7 29  1 28  0.0000000  0 10G05G12G25G17G28G04G27G09G02G10
 120331494.400 7  93764905.25645  22898298.039                    22898306.281
 115314264.714 7  89855350.14145  21943581.617                    21943588.172
 131243338.506 6 102267628.12842  24974789.500                    24974801.266
 119573066.631 7  93173934.68645  22753980.430                    22753988.266
 129355969.885 6 100796892.38042  24615618.305                    24615627.313
 110406218.835 8  86030749.36846  21009525.328                    21009533.188
 123068712.036 6  95897671.94144  23419181.023                    23419190.633
 121343727.838 7  94553609.25144  23090947.992                    23090956.207
 108474420.542 8  84525599.97346  20641945.117                    20641950.617
 110557630.405 8  86148942.40846  21038390.453                    21038398.820
 11  7 29  1 28 30.0000000  0 10G05G12G25G17G28G04G27G09G02G10
 120229797.959 7  93685661.36345  22878945.492                    22878954.164
 115239608.794 7  89797176.70245  21929374.883                    21929382.086
 131138653.516 6 102186055.44443  24954869.109                    24954880.086
 119621917.022 7  93211999.90045  22763276.938                    22763284.078
 129460853.08916 100878619.50152  24635576.734                    24635585.391
 110473277.227 8  86083002.65646  21022286.594                    21022293.730
 123127675.736 6  95943617.60944  23430401.492                    23430411.273
 121413766.524 7  94608184.79844  23104275.914                    23104284.023
 108459071.998 8  84513640.07346  20639024.516                    20639029.922
 110525507.222 7  86123911.37946  21032277.844                    21032285.688
 11  7 29  1 29  0.0000000  0 10G05G12G25G17G28G04G27G09G02G10
 120128264.729 7  93606544.65845  22859624.227                    22859633.199
 115165285.789 7  89739262.66345  21915231.172                    21915238.590
 131034038.177 6 102104537.01043  24934961.703                    24934972.598
 119670900.925 7  93250169.18045  22772597.719                    22772605.324
 129565892.236 5 100960468.10342  24655563.773                    24655575.223
 110540584.914 8  86135450.20246  21035094.516                    21035101.945
 123186825.416 6  95989708.20544  23441657.563                    23441667.633
 121484114.691 7  94663001.49944  23117661.602                    23117671.273
 108444062.783 8  84501944.59946  20636168.695                    20636173.652
 110493967.777 8  86099335.21346  21026276.313                    21026283.789
 11  7 29  1 29 30.0000000  0 10G05G12G25G17G28G04G27G09G02G10
 120026897.749 7  93527557.48845  22840334.516                    22840343.391
 115091298.437 7  89681610.17246  21901152.563                    21901159.777
 130929495.313 6 102023075.03142  24915066.547                    24915078.668
 119720019.398 7  93288443.28445  22781944.852                    22781952.223
 129671086.57915 101042437.31952  24675580.148                    24675593.105
 110608139.705 8  86188090.29546  21047949.563                    21047957.551
 123246158.688 6  96035941.83544  23452948.703                    23452958.191
 121554769.002 7  94718056.72744  23131107.711                    23131116.688
 108429392.701 8  84490513.37946  20633376.789                    20633381.992
 110463014.348 8  86075215.69146  21020385.508                    21020393.410
 11  7 29  1 30  0.0000000  0 10G05G12G25G17G28G04G27G09G02G10
 119925699.884 7  93448702.11445  22821077.727                    22821085.570
 115017649.221 7  89624221.18745  21887137.297                    21887143.938
 130825027.040 6 101941671.24843  24895187.992                    24895198.777
 119769272.602 7  93326822.38445  22791317.156                    22791325.418
 129776432.59415                  24695626.914
 110675939.104 8  86240920.99846  21060851.141                    21060858.996
 123305672.586 6  96082316.23444  23464273.430                    23464283.281
 121625725.878 7  94773347.74344  23144610.188                    23144619.063
 108415060.398 8  84479345.36146  20630649.453                    20630654.625
 110432648.344 8  86051553.89046  21014607.406                    21014615.230
 11  7 29  1 30 30.0000000  0 10G05G12G25G17G28G04G27G09G02G10
 119824674.022 7  93369980.76545  22801853.047                    22801861.289
 114944340.747 7  89567097.71145  21873187.117                    21873194.008
 130720635.679 6 101860327.32343  24875322.758                    24875333.574
 119818661.109 7  93365306.94245  22800716.023                    22800723.660
 129881928.03315                  24715703.461
 110743980.776 8  86293940.48446  21073799.313                    21073807.309
 123365364.360 6  96128829.24244  23475632.336                    23475642.219
 121696982.248 7  94828872.13044  23158170.188                    23158179.215
 108401065.317 8  84468440.10946  20627986.367                    20627991.234
 110402871.571 8  86028351.23546  21008940.789                    21008948.355
 11  7 29  1 31  0.0000000  0 10G05G12G25G17G28G04G27G09G02G10
 119723822.857 7  93291395.53645  22782661.109                    22782669.473
 114871374.976 7  89510241.28545  21859302.492                    21859309.422
 130616323.283 6 101779044.98343  24855472.734                    24855483.352
 119868185.421 7  93403897.29845  22810139.922                    22810147.508
 129987571.301 6                  24735806.430
 110812262.127 8  86347146.72546  21086792.781                    21086800.801
 123425231.163 6  96175478.63344  23487024.508                    23487034.754
 121768534.425 7  94884627.00444  23171786.195                    23171794.957
 108387406.305 8  84457796.72346  20625386.969                    20625391.844
 110373684.993 8  86005608.47846  21003387.141                    21003394.547
 11  7 29  1 31 30.0000000  0 10G05G12G25G17G28G04G27G09G02G10
 119623149.914 7  93212949.19545  22763503.688                    22763511.957
 114798754.739 8  89453654.11146  21845482.961                    21845490.188
 130512092.411 6 101697826.16643  24835638.359                    24835648.980
 119917846.102 7  93442593.92445  22819590.016                    22819597.926
 130093360.177 6                  24755938.617
 110880781.140 8  86400538.16646  21099831.664                    21099839.270
 123485270.297 6  96222262.29944  23498449.367                    23498459.898
 121840378.974 7  94940609.69744  23185457.672                    23185466.434
 108374082.706 8  84447414.70346  20622851.617                    20622856.543
 110345090.320 7  85983326.95546  20997945.539                    20997953.051
 11  7 29  1 32  0.0000000  0 10G05G12G25G17G28G04G27G09G02G10
 119522657.835 7  93134643.77945  22744380.570                    22744389.465
 114726482.918 7  89397338.42945  21831730.102                    21831737.285
 130407945.705 6 101616672.90942  24815819.398                    24815829.996
 119967643.809 7  93481397.31145  22829066.047                    22829074.016
 130199292.809 6 101454001.76853  24776096.336                    24776105.199
 110949535.695 8  86454113.13946  21112915.211                    21112922.867
 123545479.187 6  96269178.25143  23509907.914                    23509917.191
 121912512.690 6  94996817.71344  23199183.938                    23199193.023
 108361093.854 8  84437293.53146  20620379.555                    20620385.320
 110317089.385 7  85961508.07345  20992617.383                    20992624.555
 11  7 29  1 32 30.0000000  0 10G05G12G25G17G28G04G27G09G02G10
 119422349.751 7  93056481.73245  22725292.500                    22725301.082
 114654561.905 8  89341296.12845  21818043.898                    21818051.355
 130303885.554 6 101535587.14143  24796017.305                    24796028.691
 120017579.020 7  93520307.84545  22838568.516                    22838576.488
 130305366.860 6 101536656.87643  24796281.586                    24796291.844
 111018523.634 8  86507869.97346  21126043.352                    21126050.754
 123605855.091 6  96316224.35444  23521396.750                    23521406.418
 121984932.311 7  95053248.53044  23212965.180                    23212974.910
 108348438.947 8  84427432.56946  20617971.703                    20617976.898
 110289683.798 7  85940153.10745  20987401.781                    20987409.430
 11  7 29  1 33  0.0000000  0 10G05G12G25G17G28G04G27G09G02G10
 119322228.709 7  92978465.44945  22706240.258                    22706249.012
 114582994.428 7  89285529.28946  21804425.414                    21804432.098
 130199914.099 6 101454570.47642  24776232.336                    24776243.676
 120067652.425 7  93559326.07445  22848097.297                    22848104.961
 130411580.188 6 101619420.46743  24816493.984                    24816503.691
 111087742.445 8  86561806.70346  21139214.969                    21139222.617
 123666395.081 6  96363398.32943  23532917.000                    23532926.785
 122057634.337 7  95109899.38444  23226800.164                    23226809.219
 108336117.000 8  84417831.06946  20615627.039                    20615632.324
 110262874.787 8  85919263.00046  20982300.148                    20982308.008
 11  7 29  1 33 30.0000000  0 10G05G12G25G17G28G04G27G09G02G10
 119222297.836 7  92900597.35045  22687224.094                    22687232.691
 114511782.799 7  89230039.74546  21790874.117                    21790880.996
 130096033.957 6 101373624.98443  24756464.859                    24756475.637
 120117864.587 7  93598452.43145  22857652.477                    22857660.176
 130517930.931 6 101702291.14943  24836732.203                    24836741.504
 111157190.074 8  86615921.73946  21152430.539                    21152438.117
 123727096.526 6  96410698.08843  23544468.414                    23544478.109
 122130615.178 7  95166767.50944  23240687.922                    23240697.137
 108324127.354 8  84408488.49146  20613345.430                    20613350.418
 110236664.130 8  85898839.14346  20977312.477                    20977320.656
 11  7 29  1 34  0.0000000  0 10G05G12G25G17G28G04G27G09G02G10
 119122559.908 7  92822879.57945  22668244.500                    22668252.199
 114440929.431 8  89174829.36246  21777391.188                    21777398.266
 129992247.374 6 101292752.38743  24736714.750                    24736725.652
 120168215.980 7  93637687.27545  22867233.961                    22867241.633
 130624416.595 6 101785266.93443  24856995.477                    24857005.391
 111226864.146 8  86670213.21946  21165689.000                    21165696.516
 123787956.569 6  96458121.46043  23556049.234                    23556059.086
 122203871.599 7  95223850.37244  23254627.875                    23254637.531
 108312468.844 8  84399403.95446  20611127.063                    20611132.301
 110211052.779 8  85878882.27146  20972439.234                    20972446.352
 11  7 29  1 34 30.0000000  0 10G05G12G25G17G28G04G27G09G02G10
 119023017.734 7  92745314.35245  22649302.016                    22649310.625
 114370437.188 8  89119900.38146  21763976.883                    21763983.867
 129888556.884 6 101211954.61043  24716982.609                    24716993.828
 120218707.243 7  93677031.11545  22876841.773                    22876850.273
 130731035.181 5 101868346.33942  24877284.570                    24877294.520
 111296762.508 8  86724679.47746  21178989.750                    21178997.910
 123848972.556 6  96505666.32643  23567660.039                    23567670.445
 122277400.428 7  95281145.49644  23268620.852                    23268629.574
 108301140.796 8  84390576.90646  20608971.531                    20608976.395
 110186042.489 8  85859393.77046  20967679.680                    20967687.043
 11  7 29  1 35  0.0000000  0 10G05G12G25G17G28G04G27G09G02G10
 118923674.871 7  92667904.43745  22630397.617                    22630406.074
 114300308.411 8  89065254.61746  21750631.844                    21750638.660
 129784965.246 6 101131233.90143  24697270.055                    24697280.699
 120269338.591 7  93716484.10545  22886476.445                    22886484.871
 130837785.051 4 101951527.99842  24897598.680                    24897608.152
 111366883.139 8  86779318.91545  21192333.367                    21192341.441
 123910142.105 6  96553330.87443  23579300.305                    23579309.941
 122351198.537 7  95338650.44544  23282663.727                    23282672.727
 108290142.576 8  84382006.88746  20606878.703                    20606883.508
 110161634.776 8  85840374.80346  20963034.984                    20963042.789
 11  7 29  1 35 30.0000000  0  9G05G12G25G17G04G27G09G02G10
 118824534.386 7  92590652.21045  22611531.891                    22611539.793
 114230545.953 8  89010894.30046  21737356.305                    21737363.102
 129681474.902 6 101050592.12143  24677577.117                    24677587.582
 120320111.558 7  93756047.42244  22896138.555                    22896145.598
 111437223.964 8  86834129.93446  21205719.500                    21205727.172
 123971462.502 6  96601112.96643  23590969.664                    23590979.156
 122425262.500 7  95396362.57344  23296757.906                    23296766.906
 108279473.639 8  84373693.43946  20604848.055                    20604853.156
 110137831.295 8  85821826.66345  20958504.734                    20958512.363
 11  7 29  1 36  0.0000000  0  9G05G12G25G17G04G27G09G02G10
 118725598.569 7  92513559.45245  22592704.883                    22592712.809
 114161151.756 8  88956820.93446  21724151.117                    21724157.668
 129578087.709 6 100970030.69543  24657902.930                    24657913.742
 120371026.204 7  93795721.10544  22905827.344                    22905835.492
 111507782.130 8  86889110.32046  21219146.000                    21219153.539
 124032930.374 7  96649009.96143  23602665.719                    23602676.574
 122499588.216 7  95454278.65344  23310901.586                    23310910.531
 108269132.261 8  84365635.23946  20602880.250                    20602885.082
 110114632.469 8  85803749.67546  20954090.555                    20954098.004
 11  7 29  1 36 30.0000000  0 10G05G12G25G17G28G04G27G09G02G10
 118626870.333 7  92436628.46645  22573916.945                    22573925.648
 114092128.040 8  88903036.25146  21711016.320                    21711023.191
 129474805.980 7 100889551.44743  24638248.242                    24638259.813
 120422082.002 7  93835504.83744  22915542.742                    22915550.508
 131158791.14315                  24958684.305
 111578555.460 8  86944258.36546  21232613.242                    21232621.211
 124094542.835 6  96697019.61143  23614391.305                    23614400.734
 122574171.938 7  95512395.76744  23325094.016                    23325103.543
 108259117.350 8  84357831.42346  20600974.344                    20600979.574
 110092039.334 8  85786144.65845  20949791.313                    20949798.836
 11  7 29  1 37  0.0000000  0 10G05G12G25G17G28G04G27G09G02G10
 118528352.561 7  92359861.47745  22555169.773                    22555178.121
 114023477.835 8  88849542.61746  21697952.781                    21697959.359
 129371632.361 7 100809156.45243  24618615.734                    24618626.512
 120473280.014 7  93875399.37144  22925285.664                    22925293.137
 131266042.052 6                  24979093.648
 111649541.644 8  86999572.25445  21246121.734                    21246129.559
 124156297.276 6  96745139.88343  23626142.602                    23626152.359
 122649010.711 7  95570711.64944  23339335.016                    23339345.207
 108249428.246 8  84350281.48146  20599130.664                    20599135.594
 110070053.781 8  85769013.09246  20945607.211                    20945614.641
 11  7 29  1 37 30.0000000  0 10G05G12G25G17G28G04G27G09G02G10
 118430048.607 7  92283261.08445  22536463.602                    22536471.316
 113955203.307 8  88796341.71646  21684960.328                    21684967.469
 129268569.438 7 100728847.69444  24599003.148                    24599013.883
 120524621.195 7  93915405.48244  22935055.195                    22935062.930
 131373413.080 6                  24999526.313
 111720738.632 7  87055050.41245  21259670.031                    21259677.898
 124218190.951 6  96793368.63643  23637919.492                    23637930.445
 122724101.039 7  95629223.55444  23353624.813                    23353634.105
 108240064.230 8  84342984.86546  20597348.555                    20597353.785
 110048676.892 7  85752355.79646  20941539.680                    20941547.387
 11  7 29  1 38  0.0000000  0 10G05G12G25G17G28G04G27G09G02G10
 118331961.279 7  92206829.48545  22517798.219                    22517805.996
 113887306.859 7  88743435.42546  21672039.914                    21672047.258
 129165619.547 7 100648627.02343  24579412.961                    24579423.574
 120576105.834 7  93955523.34445  22944852.352                    22944860.180
 131480901.660 6                  25019979.977
 111792144.155 7  87110691.06945  21273258.617                    21273266.027
 124280221.027 6  96841703.73743  23649724.445                    23649734.531
 122799439.643 7  95687928.88844  23367961.430                    23367970.766
 108231023.965 8  84335940.51146  20595628.055                    20595633.379
 110027909.559 8  85736173.47846  20937587.953                    20937595.566
 11  7 29  1 38 30.0000000  0 10G05G12G25G17G28G04G27G09G02G10
 118234093.921 7  92130569.28945  22499174.617                    22499182.594
 113819791.483 8  88690826.06846  21659192.133                    21659198.652
 129062785.473 6 100568496.60343  24559843.883                    24559854.691
 120627734.655 7  93995753.56144  22954677.609                    22954686.074
 131588506.069 5                  25040456.727
 111863756.315 8  87166492.73745  21286885.672                    21286893.617
 124342385.067 6  96890143.19643  23661554.273                    23661564.293
 122875023.402 7  95746825.27944  23382344.156                    23382354.145
 108222307.192 8  84329148.23146  20593969.492                    20593974.801
 110007753.696 8  85720467.63046  20933752.055                    20933759.781
 11  7 29  1 39  0.0000000  0 10G05G12G25G17G28G04G27G09G02G10
 118136449.366 7  92054482.69245  22480592.750                    22480600.949
 113752659.372 8  88638515.34846  21646417.391                    21646424.504
 128960069.545 7 100488458.27443  24540297.211                    24540308.496
 120679507.906 7  94036096.31545  22964530.328                    22964537.523
 131696224.125 6 102620454.12352  25060954.320                    25060963.363
 111935572.782 8  87222453.60946  21300551.836                    21300559.555
 124404680.186 6  96938684.77243  23673408.313                    23673418.145
 122950848.633 7  95805909.81144  23396773.461                    23396782.789
 108213912.683 8  84322607.06546  20592371.836                    20592377.395
 109988209.846 8  85705238.67746  20930033.648                    20930040.984
 11  7 29  1 39 30.0000000  0 10G05G12G25G17G28G04G27G09G02G10
 118039030.528 7  91978571.98745  22462054.898                    22462062.688
 113685913.276 8  88586505.43246  21633716.086                    21633723.031
 128857474.437 7 100408514.10243  24520774.461                    24520785.270
 120731426.667 7  94076552.44745  22974409.328                    22974417.656
 131804053.860 5 102704477.27642  25081473.586                    25081483.398
 112007591.579 8  87278572.13245  21314256.828                    21314264.566
 124467103.692 6  96987326.42443  23685287.148                    23685297.188
 123026912.124 6  95865180.00744  23411247.852                    23411258.109
 108205839.842 8  84316316.55646  20590835.891                    20590840.918
 109969279.784 8  85690488.00446  20926431.195                    20926438.355
 11  7 29  1 40  0.0000000  0 10G05G12G25G17G28G04G27G09G02G10
 117941840.055 7  91902839.21445  22443559.969                    22443568.246
 113619555.507 8  88534798.10546  21621088.500                    21621095.512
 128755002.207 7 100328665.67943  24501274.938                    24501285.484
 120783491.164 7  94117122.16245  22984316.773                    22984324.867
 131911992.965 6 102788585.64442  25102012.758                    25102023.750
 112079810.183 8  87334846.36945  21327999.523                    21328006.891
 124529652.495 6  97036065.67343  23697189.695                    23697200.246
 123103210.076 6  95924632.90044  23425767.094                    23425776.574
 108198086.932 8  84310275.34846  20589360.805                    20589366.055
 109950963.960 8  85676215.96346  20922945.359                    20922953.258
 11  7 29  1 40 30.0000000  0 10G05G12G25G17G28G04G27G09G02G10
 117844881.233 7  91827286.98245  22425109.469                    22425117.344
 113553588.027 7  88483394.88346  21608535.250                    21608542.566
 128652655.539 6 100248915.07243  24481798.078                    24481809.316
 120835701.777 7  94157805.71145  22994252.859                    22994260.508
 132020039.109 5 102872777.45742  25122574.258                    25122583.926
 112152226.354 8  87391274.53845  21341780.055                    21341787.953
 124592324.144 6  97084900.65244  23709116.156                    23709126.098
 123179739.158 7  95984265.91344  23440330.055                    23440339.855
 108190653.415 8  84304483.00746  20587945.945                    20587951.352
 109933263.541 8  85662423.44346  20919577.063                    20919584.488
 11  7 29  1 41  0.0000000  0 10G05G12G25G17G28G04G27G09G02G10
 117748157.207 7  91751917.69045  22406703.320                    22406711.109
 113488013.731 8  88432298.05646  21596056.883                    21596063.918
 128550437.187 6 100169264.50143  24462346.664                    24462358.074
 120888059.405 7  94198603.86445  23004215.453                    23004223.500
 132128190.647 5 102957051.42652  25143154.078                    25143165.152
 112224838.443 8  87447855.37345  21355597.281                    21355604.598
 124655116.056 6  97133829.34143  23721064.914                    23721074.832
 123256496.151 6  96044076.48344  23454936.539                    23454946.305
 108183538.713 8  84298939.09446  20586592.359                    20586597.414
 109916179.853 8  85649111.50346  20916326.227                    20916333.848
 11  7 29  1 41 30.0000000  0  9G05G12G25G17G04G27G09G02G10
 117651671.129 7  91676733.80345  22388342.258                    22388350.543
 113422835.484 7  88381509.82346  21583654.227                    21583660.875
 128448349.893 6 100089716.05143  24442919.867                    24442931.340
 120940564.376 7  94239516.79945  23014207.063                    23014215.246
 112297644.282 8  87504587.19145  21369451.953                    21369459.574
 124718025.551 6  97182849.69243  23733034.938                    23733046.781
 123333477.965 6  96104062.25944  23469585.898                    23469595.297
 108176741.878 8  84293642.87346  20585298.859                    20585303.559
 109899714.227 8  85636281.16746  20913193.492                    20913200.480
 11  7 29  1 42  0.0000000  0 10G05G12G25G17G28G04G27G09G02G10
 117555425.770 7  91601737.48945  22370027.320                    22370035.820
 113358055.260 8  88331031.74346  21571326.805                    21571333.992
 128346395.790 7 100010271.37743  24423519.242                    24423529.984
 120993217.238 7  94280544.96444  23024226.461                    23024235.117
 132344797.80015                  25184374.695
 112370641.651 8  87561468.22545  21383342.906                    21383350.125
 124781049.550 6  97231959.25644  23745028.859                    23745039.785
 123410680.783 6  96164220.26643  23484277.000                    23484286.137
 108170261.620 8  84288593.33046  20584065.680                    20584070.691
 109883867.237 8  85623932.88746  20910177.148                    20910185.086
 11  7 29  1 42 30.0000000  0  9G05G12G25G17G04G27G09G02G10
 117459423.722 7  91526930.76445  22351758.508                    22351766.832
 113293675.509 7  88280865.71846  21559075.516                    21559082.570
 128244577.398 6  99930932.48043  24404143.133                    24404154.512
 121046018.632 7  94321688.88345  23034274.414                    23034282.703
 112443828.199 8  87618496.72045  21397269.664                    21397277.383
 124844185.347 6  97281155.91743  23757044.234                    23757053.953
 123488101.191 6  96224547.81143  23499009.453                    23499019.039
 108164097.015 8  84283789.75146  20582892.352                    20582897.566
 109868640.206 8  85612067.68846  20907279.883                    20907287.203
 11  7 29  1 43  0.0000000  0  9G05G12G25G17G04G27G09G02G10
 117363668.587 7  91452316.45345  22333537.500                    22333545.500
 113229699.126 7  88231013.99946  21546901.195                    21546908.113
 128142897.510 6  99851701.47643  24384793.648                    24384805.539
 121098969.347 7  94362949.17345  23044351.414                    23044359.152
 112517202.087 8  87675671.14545  21411232.555                    21411240.410
 124907430.242 6  97330437.60943  23769078.813                    23769089.832
 123565735.827 6  96285042.26744  23513783.383                    23513791.914
 108158247.181 8  84279231.44846  20581779.352                    20581784.527
 109854033.718 8  85600686.03346  20904499.664                    20904507.230
 11  7 29  1 43 30.0000000  0  9G05G12G25G17G04G27G09G02G10
 117268162.851 7  91377896.47645  22315363.180                    22315370.977
 113166128.165 7  88181478.19146  21534804.328                    21534811.332
 128041358.550 6  99772580.28943  24365472.141                    24365483.445
 121152069.652 7  94404325.98844  23054456.094                    23054463.879
 112590760.913 8  87732989.70445  21425229.820                    21425237.699
 124970781.358 6  97379802.04643  23781134.391                    23781144.566
 123643581.269 6  96345701.01243  23528597.227                    23528606.039
 108152711.303 8  84274917.78046  20580725.953                    20580730.895
 109840048.766 7  85589788.68346  20901838.992                    20901846.645
 11  7 29  1 44  0.0000000  0  9G05G12G25G17G04G27G09G02G10
 117172909.464 7  91303673.12545  22297236.852                    22297245.230
 113102964.551 7  88132259.80446  21522784.727                    21522791.520
 127939962.766 6  99693570.66443  24346177.367                    24346188.379
 121205319.709 7  94445819.54244  23064588.977                    23064596.023
 112664502.396 8  87790450.56145  21439262.852                    21439270.277
 125034235.813 6  97429247.01843  23793208.930                    23793218.680
 123721633.763 6  96406521.07343  23543449.383                    23543458.574
 108147487.863 8  84270847.56946  20579731.938                    20579737.113
 109826685.974 8  85579376.13646  20899295.992                    20899303.746
 11  7 29  1 44 30.0000000  0  9G05G12G25G17G04G27G09G02G10
 117077911.244 7  91229648.61845  22279159.594                    22279167.320
 113040210.621 8  88083360.64646  21510842.656                    21510849.852
 127838712.444 6  99614674.35243  24326909.836                    24326920.992
 121258720.022 6  94487430.16444  23074750.133                    23074758.582
 112738424.379 8  87848052.10445  21453329.320                    21453337.223
 125097790.746 6  97478770.26743  23805303.422                    23805313.816
 123799889.820 7  96467499.77443  23558340.625                    23558350.324
 108142575.648 8  84267019.88346  20578797.016                    20578802.090
 109813945.828 8  85569448.77446  20896871.703                    20896879.293
 11  7 29  1 45  0.0000000  0  9G05G12G25G17G04G27G09G02G10
 116983171.349 7  91155825.38345  22261131.180                    22261139.020
 112977869.326 7  88034783.02246  21498979.445                    21498986.559
 127737610.686 6  99535893.87643  24307670.344                    24307681.789
 121312271.358 7  94529158.45444  23084940.727                    23084948.648
 112812524.886 8  87905792.74945  21467430.391                    21467438.211
 125161443.531 6  97528369.79343  23817416.352                    23817426.313
 123878346.389 7  96528634.73443  23573270.563                    23573279.473
 108137974.322 7  84263434.43946  20577921.422                    20577926.910
 109801829.620 8  85560007.59246  20894566.094                    20894573.520
 11  7 29  1 45 30.0000000  0  9G05G12G25G17G04G27G09G02G10
 116888692.705 7  91082205.73345  22243151.945                    22243160.395
 112915942.951 7  87986528.70546  21487195.156                    21487202.313
 127636659.867 7  99457230.96743  24288459.875                    24288471.449
 121365974.180 7  94571004.81144  23095160.109                    23095167.664
 112886801.970 8  87963670.97545  21481564.727                    21481572.699
 125225191.434 6  97578043.42043  23829547.164                    23829557.406
 123956999.944 7  96589923.15044  23588238.383                    23588247.543
 108133682.793 8  84260090.40746  20577104.852                    20577110.391
 109790338.117 8  85551053.18746  20892379.242                    20892387.047
 11  7 29  1 46  0.0000000  0  9G05G12G25G17G04G27G09G02G10
 116794478.069 7  91008791.80445  22225223.781                    22225231.699
 112854434.068 7  87938599.71746  21475490.805                    21475497.359
 127535862.468 7  99378687.59343  24269278.820                    24269289.543
 121419828.965 7  94612969.57344  23105408.406                    23105415.719
 112961253.214 8  88021684.89845  21495732.680                    21495739.844
 125289031.678 6  97627788.99043  23841695.461                    23841705.570
 124035846.843 7  96651362.26344  23603242.734                    23603251.773
 108129699.698 8  84256986.70846  20576347.133                    20576352.039
 109779471.996 8  85542586.10046  20890311.719                    20890318.719
 11  7 29  1 46 30.0000000  0  9G05G12G25G17G04G27G09G02G10
 116700530.469 7  90935585.95145  22207345.266                    22207354.117
 112793344.353 7  87890997.34146  21463865.406                    21463872.777
 127435221.041 7  99300265.72544  24250128.258                    24250138.395
 121473836.119 7  94655053.08744  23115685.977                    23115693.063
 113035876.650 8  88079833.01945  21509932.484                    21509940.258
 125352961.436 6  97677604.33143  23853860.133                    23853871.172
 124114883.776 7  96712949.41844  23618282.336                    23618292.125
 108126023.952 8  84254122.50246  20575647.813                    20575652.652
 109769232.017 8  85534606.91546  20888362.906                    20888370.297
 11  7 29  1 47  0.0000000  0  9G05G12G25G17G04G27G09G02G10
 116606852.628 7  90862590.29645  22189519.141                    22189527.355
 112732676.517 7  87843723.70446  21452321.000                    21452328.176
 127334738.203 7  99221967.42944  24231006.563                    24231017.113
 121527996.146 6  94697255.70344  23125992.070                    23126000.004
 113110670.513 8  88138113.90845  21524165.859                    21524173.410
 125416977.981 6  97727487.26043  23866042.969                    23866052.910
 124194107.210 7  96774681.91944  23633358.242                    23633368.340
 108122654.726 7  84251497.15046  20575006.578                    20575011.395
 109759619.062 8  85527116.32046  20886533.555                    20886540.891
 11  7 29  1 47 30.0000000  0  9G05G12G25G17G04G27G09G02G10
 116513447.728 7  90789807.32745  22171744.914                    22171753.215
 112672432.756 7  87796780.52046  21440856.852                    21440863.879
 127234416.505 7  99143794.71343  24211916.000                    24211926.504
 121582309.729 7  94739577.95245  23136327.500                    23136335.355
 113185632.289 8  88196525.67345  21538430.266                    21538438.063
 125481078.473 6  97777435.60043  23878240.797                    23878251.266
 124273513.781 7  96836557.11144  23648469.188                    23648478.613
 108119590.910 8  84249109.77446  20574423.156                    20574428.465
 109750633.470 8  85520114.58646  20884823.680                    20884831.574
 11  7 29  1 48  0.0000000  0  9G05G12G25G17G04G27G09G02G10
 116420318.709 7  90717239.32445  22154023.211                    22154030.863
 112612615.773 7  87750169.88446  21429474.531                    21429481.426
 127134258.547 6  99065749.60743  24192856.711                    24192866.852
 121636777.304 7  94782020.23244  23146692.141                    23146700.055
 113260759.976 8  88255066.70145  21552727.094                    21552734.621
 125545260.271 6  97827447.32943  23890454.117                    23890464.914
 124353100.208 6  96898572.46444  23663613.945                    23663623.938
 108116831.526 8  84246959.60846  20573898.117                    20573903.082
 109742276.188 8  85513602.43646  20883233.484                    20883240.836
 11  7 29  1 48 30.0000000  0  9G05G12G25G17G04G27G09G02G10
 116327468.275 7  90644888.40845  22136354.500                    22136362.449
 112553227.383 7  87703893.21646  21418173.000                    21418179.945
 127034266.816 6  98987833.98343  24173828.563                    24173839.082
 121691399.380 6  94824582.86944  23157086.219                    23157094.465
 113336051.443 8  88313735.35545  21567054.227                    21567061.984
 125609520.394 6  97877520.05843  23902682.461                    23902692.910
 124432862.930 6  96960725.19044  23678792.164                    23678801.594
 108114375.496 8  84245045.83746  20573430.742                    20573436.070
 109734547.097 8  85507579.78346  20881762.773                    20881769.930
 11  7 29  1 49  0.0000000  0  9G05G12G25G17G04G27G09G02G10
 116234899.476 7  90572756.94545  22118738.727                    22118746.711
 112494270.087 7  87657952.47746  21406953.539                    21406961.285
 126934443.966 6  98910050.01344  24154832.938                    24154843.559
 121746176.363 6  94867266.24744  23167509.961                    23167518.363
 113411504.945 8  88372530.28645  21581412.711                    21581419.961
 125673856.100 6  97927651.68843  23914925.867                    23914935.441
 124512798.761 6  97023012.79344  23694003.000                    23694013.559
 108112221.771 8  84243367.61546  20573021.148                    20573025.859
 109727447.146 8  85502047.37746  20880411.242                    20880418.902
 11  7 29  1 49 30.0000000  0  9G05G12G25G17G04G27G09G02G10
 116142615.086 7  90500847.08345  22101177.906                    22101185.594
 112435746.312 8  87612349.53646  21395816.555                    21395824.250
 126834792.669 6  98832399.70243  24135869.984                    24135880.316
 121801108.993 7  94910070.87344  23177963.609                    23177971.344
 113487118.379 8  88431449.83445  21595801.328                    21595809.398
 125738264.863 6  97977840.25243  23927181.930                    23927192.852
 124592904.147 7  97085432.50244  23709246.992                    23709257.262
 108110369.557 8  84241924.35446  20572668.695                    20572673.426
 109720977.159 8  85497005.83946  20879180.078                    20879187.641
 11  7 29  1 50  0.0000000  0  9G05G12G25G17G04G27G09G02G10
 116050618.039 7  90429161.14245  22083671.250                    22083679.238
 112377658.314 8  87567086.16446  21384763.359                    21384770.082
 126735315.526 7  98754885.07343  24116939.805                    24116950.109
 121856197.287 7  94952996.81344  23188446.047                    23188454.285
 113562889.672 8  88490492.36845  21610219.984                    21610227.848
 125802743.747 6  98028083.45243  23939451.422                    23939462.438
 124673175.609 7  97147981.62844  23724522.594                    23724532.453
 108108817.333 8  84240714.83746  20572373.047                    20572378.082
 109715137.147 8  85492455.19346  20878068.727                    20878076.512
 11  7 29  1 50 30.0000000  0  9G05G12G25G17G04G27G09G02G10
 115958911.689 7  90357701.70745  22066220.172                    22066228.082
 112320008.316 7  87522164.09546  21373792.773                    21373799.707
 126636015.199 7  98677508.24044  24098044.398                    24098054.129
 121911442.075 7  94996044.69144  23198959.352                    23198966.840
 113638816.792 8  88549656.33845  21624668.836                    21624676.617
 125867289.911 6  98078379.06343  23951734.789                    23951745.176
 124753609.975 7  97210657.70144  23739828.539                    23739838.656
 108107564.459 8  84239738.59546  20572134.375                    20572139.586
 109709928.347 8  85488396.39546  20877077.719                    20877085.355
 11  7 29  1 51  0.0000000  0  9G05G12G25G17G04G27G09G02G10
 115867498.615 7  90286470.79945  22048824.945                    22048832.465
 112262798.641 7  87477585.12846  21362906.141                    21362913.266
 126536894.252 7  98600271.15743  24079181.172                    24079191.633
 121966843.821 7  95039214.90544  23209501.086                    23209509.027
 113714897.752 8  88608940.20045  21639146.195                    21639154.246
 125931900.838 6  98128725.15743  23964029.516                    23964040.785
 124834203.479 6  97273457.75744  23755165.445                    23755175.277
 108106609.684 8  84238994.62746  20571953.047                    20571957.898
 109705350.921 7  85484829.56946  20876206.219                    20876214.164
 11  7 29  1 51 30.0000000  0  9G05G12G25G17G04G27G09G02G10
 115776381.673 7  90215470.65145  22031485.570                    22031493.457
 112206031.730 7  87433351.17746  21352103.930                    21352110.684
 126437955.204 6  98523175.80743  24060354.227                    24060364.203
 122022403.033 7  95082507.76944  23220073.977                    23220082.078
 113791130.482 8  88668342.31645  21653652.984                    21653660.754
 125996573.700 6  98179119.54343  23976336.789                    23976347.328
 124914952.951 6  97336379.34344  23770531.258                    23770541.023
 108105951.963 7  84238482.13046  20571827.719                    20571832.801
 109701405.035 7  85481754.86346  20875455.992                    20875462.965
 11  7 29  1 52  0.0000000  0  9G05G12G25G17G04G27G09G02G10
 115685563.719 7  90144703.46945  22014204.000                    22014211.570
 112149709.650 8  87389463.85546  21341385.914                    21341392.840
 126339200.685 7  98446224.29943  24041561.539                    24041572.125
 122078120.091 7  95125923.64944  23230676.773                    23230684.930
 113867512.945 8  88727861.09845  21668188.461                    21668195.504
 126061305.781 6  98229559.98443  23988655.172                    23988665.344
 124995855.210 6  97399419.99043  23785926.156                    23785936.000
 108105590.186 8  84238200.24046  20571759.258                    20571764.203
 109698091.246 7  85479172.70546  20874825.125                    20874832.121
 11  7 29  1 52 30.0000000  0  9G05G12G25G17G04G27G09G02G10
 115595047.640 7  90074171.51045  21996978.352                    21996986.680
 112093834.820 7  87345925.03446  21330753.563                    21330760.660
 126240633.331 7  98369418.59843  24022804.594                    24022815.012
 122133995.522 7  95169462.90444  23241309.797                    23241317.746
 113944043.176 8  88787495.04145  21682751.547                    21682759.113
 126126094.187 6  98280044.37643  24000984.063                    24000994.754
 125076906.533 7  97462576.81244  23801349.547                    23801359.715
 108105523.281 8  84238148.12446  20571746.289                    20571751.500
 109695409.880 8  85477083.33546  20874315.180                    20874322.398
 11  7 29  1 53  0.0000000  0  9G05G12G25G17G04G27G09G02G10
 115504836.185 7  90003876.92345  21979812.094                    21979819.879
 112038409.136 8  87302736.20146  21320205.891                    21320213.090
 126142255.924 7  98292760.92343  24004083.781                    24004094.844
 122190029.930 7  95213126.09444  23251973.031                    23251980.766
 114020719.371 8  88847242.71645  21697342.383                    21697350.605
 126190936.242 6  98330570.55443  24013323.234                    24013333.500
 125158103.388 6  97525846.97943  23816801.406                    23816811.129
 108105750.362 8  84238325.07546  20571789.719                    20571794.539
 109693361.366 8  85475487.10346  20873924.609                    20873932.559
 11  7 29  1 53 30.0000000  0  9G05G12G25G17G04G27G09G02G10
 115414932.392 7  89933822.06045  21962703.883                    21962711.387
 111983434.721 8  87259899.01346  21309744.938                    21309751.863
 126044070.689 6  98216252.99043  23985399.984                    23985410.891
 122246223.446 7  95256913.22444  23262665.648                    23262674.031
 114097539.158 8  88907102.27145  21711960.227                    21711967.980
 126255828.866 6  98381136.17443  24025671.055                    24025682.016
 125239442.216 7  97589227.83943  23832279.625                    23832289.695
 108106269.904 8  84238729.91846  20571888.531                    20571893.367
 109691945.491 8  85474383.82346  20873655.242                    20873662.633
 11  7 29  1 54  0.0000000  0  9G05G12G25G17G04G27G09G02G10
 115325338.616 7  89864008.78545  21945654.844                    21945661.871
 111928914.034 7  87217415.37846  21299370.070                    21299377.430
 125946080.254 7  98139896.88943  23966752.914                    23966763.242
 122302576.306 7  95300824.53044  23273389.977                    23273397.621
 114174500.432 8  88967072.09045  21726606.219                    21726614.051
 126320769.468 6  98431739.10843  24038029.633                    24038040.148
 125320919.751 6  97652716.74243  23847784.773                    23847794.449
 108107080.766 8  84239361.76346  20572042.797                    20572047.590
 109691162.688 8  85473773.86046  20873506.594                    20873513.875
 11  7 29  1 54 30.0000000  0  9G05G12G25G17G04G27G09G02G10
 115236058.397 7  89794439.83645  21928665.641                    21928672.844
 111874849.109 8  87175286.87646  21289081.867                    21289088.734
 125848287.522 7  98063694.78143  23948143.656                    23948154.199
 122359089.369 7  95344860.66944  23284143.969                    23284151.605
 114251601.705 8  89027150.97445  21741277.719                    21741285.684
 126385755.588 6  98482377.54243  24050396.438                    24050407.078
 125402532.930 7  97716311.32944  23863315.375                    23863324.734
 108108182.282 8  84240220.09946  20572252.414                    20572257.406
 109691013.771 8  85473657.84146  20873478.289                    20873485.734
 11  7 29  1 55  0.0000000  0  9G05G12G25G17G04G27G09G02G10
 115147094.275 7  89725117.19145  21911736.086                    21911743.348
 111821242.134 8  87133515.23146  21278880.570                    21278887.875
 125750695.079 7  97987648.77444  23929572.180                    23929583.434
 122415763.260 7  95389022.13544  23294928.461                    23294936.434
 114328840.955 8  89087337.39645  21755975.688                    21755983.691
 126450784.373 6  98533049.25743  24062771.453                    24062781.762
 125484278.262 6  97780008.94843  23878869.742                    23878880.281
 108109573.159 8  84241303.90146  20572516.922                    20572522.059
 109691498.627 8  85474035.65946  20873570.461                    20873577.820
 11  7 29  1 55 30.0000000  0  9G05G12G25G17G04G27G09G02G10
 115058449.160 7  89656043.11445  21894867.531                    21894875.016
 111768095.701 8  87092102.44146  21268767.078                    21268773.945
 125653305.597 7  97911760.90844  23911040.320                    23911050.387
 122472598.328 7  95433309.20444  23305743.664                    23305751.703
 114406216.297 8  89147629.85845  21770699.844                    21770708.070
 126515853.110 6  98583752.08243  24075153.109                    24075163.852
 125566152.258 6  97843806.80143  23894450.328                    23894460.121
 108111252.350 8  84242612.35946  20572836.258                    20572841.438
 109692617.420 8  85474907.46246  20873783.344                    20873790.633
 11  7 29  1 56  0.0000000  0  9G05G12G25G17G04G27G09G02G10
 114970126.194 7  89587220.07245  21878059.852                    21878067.633
 111715411.798 7  87051050.06946  21258741.914                    21258748.758
 125556121.991 7  97836033.45244  23892546.531                    23892557.102
 122529594.969 7  95477722.13944  23316590.383                    23316597.777
 114483725.800 7  89208026.85045  21785449.609                    21785457.727
 126580959.180 6  98634484.00143  24087542.008                    24087553.074
 125648152.086 7  97907702.68243  23910054.898                    23910064.402
 108113219.218 8  84244144.98546  20573210.555                    20573215.613
 109694370.553 8  85476273.55546  20874116.859                    20874124.277
 11  7 29  1 56 30.0000000  0  9G05G12G25G17G04G27G09G02G10
 114882127.617 7  89518649.80146  21861314.523                    21861321.844
 111663192.273 7  87010359.55646  21248804.719                    21248811.863
 125459146.532 7  97760468.18644  23874092.805                    23874102.590
 122586753.687 7  95522261.38944  23327467.258                    23327474.188
 114561367.345 8  89268526.74045  21800224.609                    21800232.375
 126646099.815 6  98685242.86243  24099938.414                    24099949.391
 125730274.026 7  97971693.77243  23925682.641                    23925691.680
 108115472.224 8  84245900.58246  20573639.336                    20573644.293
 109696757.980 8  85478133.88746  20874571.727                    20874578.219
 11  7 29  1 57  0.0000000  0  9G05G12G25G17G04G27G09G02G10
 114794456.744 7  89450334.88045  21844631.375                    21844638.953
 111611439.985 8  86970033.11946  21238956.664                    21238963.426
 125362382.129 7  97685067.40444  23855679.086                    23855689.520
 122644075.024 7  95566927.33744  23338374.602                    23338382.762
 114639139.362 8  89329128.31145  21815024.266                    21815032.031
 126711272.226 6  98736026.48143  24112340.445                    24112350.656
 125812514.805 6  98035777.40643  23941331.852                    23941341.762
 108118010.369 8  84247878.35446  20574122.602                    20574127.344
 109699780.129 8  85480488.81746  20875146.438                    20875153.766
 11  7 29  1 57 30.0000000  0  9G05G12G25G17G04G27G09G02G10
 114707116.250 7  89382277.40645  21828011.070                    21828018.316
 111560156.547 8  86930072.02846  21229197.367                    21229204.484
 125265831.353 7  97609833.07644  23837305.992                    23837316.090
 122701559.241 7  95611720.22644  23349313.836                    23349321.523
 114717039.693 8  89389829.83845  21829847.945                    21829855.762
 126776473.800 6  98786832.83543  24124748.000                    24124758.938
 125894870.875 7  98099950.91343  23957003.906                    23957013.902
 108120832.482 8  84250077.40646  20574659.766                    20574664.758
 109703436.788 8  85483338.16546  20875842.414                    20875849.758
 11  7 29  1 58  0.0000000  0  9G05G12G25G17G04G27G09G02G10
 114620108.881 7  89314479.50646  21811453.844                    21811461.004
 111509343.499 8  86890477.46846  21219528.609                    21219535.184
 125169496.721 7  97534767.16844  23818973.867                    23818984.527
 122759206.874 6  95656640.44044  23360283.469                    23360291.305
 114795066.544 8  89450629.99245  21844695.922                    21844703.285
 126841701.730 6  98837659.68243  24137160.695                    24137170.750
 125977338.903 7  98164211.64044  23972697.586                    23972707.871
 108123937.544 8  84252496.94046  20575250.203                    20575255.750
 109707727.765 8  85486681.78446  20876659.094                    20876666.406
 11  7 29  1 58 30.0000000  0  9G05G12G25G17G04G27G09G02G10
 114533437.386 7  89246943.32846  21794960.602                    21794968.582
 111459003.413 8  86851251.44646  21209949.039                    21209955.746
 125073380.850 7  97459871.70244  23800684.344                    23800694.016
 122817018.233 7  95701688.24644  23371285.125                    23371292.094
 114873217.667 7  89511526.96145  21859567.852                    21859575.563
 126906953.141 6  98888504.89343  24149577.664                    24149587.359
 126059915.461 6  98228556.91543  23988411.297                    23988421.184
 108127324.000 8  84255135.73746  20575894.570                    20575899.637
 109712653.054 8  85490519.67746  20877596.047                    20877603.039
 11  7 29  1 59  0.0000000  0  9G05G12G25G17G04G27G09G02G10
 114447104.877 7  89179671.30146  21778532.531                    21778539.688
 111409138.693 8  86812395.83646  21200459.781                    21200467.000
 124977486.688 7  97385148.98944  23782436.063                    23782446.824
 122874993.544 6  95746863.81844  23382316.398                    23382324.867
 114951491.814 8  89572519.78945  21874462.297                    21874470.625
 126972225.624 6  98939366.47343  24161997.883                    24162008.621
 126142597.369 7  98292984.30943  24004144.828                    24004154.902
 108130991.165 8  84257993.27046  20576592.844                    20576597.789
 109718212.874 8  85494852.01146  20878653.703                    20878661.348
 11  7 29  1 59 30.0000000  0  9G05G12G25G17G04G27G09G02G10
 114361113.716 7  89112665.24446  21762168.078                    21762176.191
 111359750.769 8  86773911.77146  21191061.375                    21191068.508
 124881816.572 7  97310600.85544  23764230.531                    23764240.855
 122933133.609 7  95792167.70744  23393381.281                    23393388.758
 115029886.561 7  89633606.60145  21889380.555                    21889388.375
 127037516.158 6  98990242.14243  24174422.664                    24174433.805
 126225381.138 6  98357491.07543  24019897.336                    24019908.047
 108134937.738 8  84261068.51546  20577343.430                    20577348.520
 109724406.868 8  85499678.51746  20879832.492                    20879839.895
 11  7 29  2  0  0.0000000  0  9G05G12G25G17G04G27G09G02G10
 114275466.936 7  89045927.54246  21745870.391                    21745878.051
 111310842.833 8  86735801.70846  21181754.695                    21181761.531
 124786373.389 7  97236229.53744  23746067.695                    23746078.406
 122991439.099 6  95837600.53944  23404475.430                    23404484.035
 115108400.354 7  89694786.17945  21904321.797                    21904329.711
 127102822.241 6  99041129.95442  24186850.422                    24186860.523
 126308263.421 7  98422074.59944  24035670.344                    24035680.496
 108139162.784 8  84264360.75946  20578147.773                    20578152.441
 109731235.295 8  85504999.37046  20881131.945                    20881139.477
 11  7 29  2  0 30.0000000  0  9G05G12G25G17G04G27G09G02G10
 114190167.203 7  88979460.26846  21729638.172                    21729645.684
 111262415.994 8  86698066.52346  21172539.688                    21172546.387
 124691159.705 7  97162037.07844  23727949.023                    23727960.371
 123049909.907 7  95883162.18544  23415602.445                    23415611.078
 115187031.165 7  89756056.92145  21919284.203                    21919292.508
 127168141.053 6  99092027.61043  24199280.195                    24199290.852
 126391240.959 6  98486732.31343  24051460.875                    24051470.742
 108143664.988 7  84267868.96746  20579004.375                    20579009.273
 109738698.096 7  85510814.54746  20882552.484                    20882559.715
 11  7 29  2  1  0.0000000  0  9G05G12G25G17G04G27G09G02G10
 114105217.200 7  88913265.51146  21713472.953                    21713480.164
 111214472.254 8  86660707.78146  21163416.227                    21163423.113
 124596178.129 7  97088025.44844  23709875.320                    23709885.125
 123108546.643 7  95928853.12144  23426760.531                    23426768.586
 115265777.171 8  89817417.44445  21934269.055                    21934277.051
 127233469.800 6  99142933.04843  24211711.992                    24211722.566
 126474310.459 6  98551461.72543  24067267.859                    24067277.789
 108148443.091 8  84271592.16146  20579913.141                    20579918.277
 109746795.095 8  85517123.90646  20884092.891                    20884100.379
 11  7 29  2  1 30.0000000  0  9G05G12G25G17G04G27G09G02G10
 114020619.811 7  88847345.51146  21697374.656                    21697382.313
 111167013.909 8  86623727.26646  21154384.711                    21154391.793
 124501431.518 7  97014196.91844  23691845.500                    23691856.063
 123167349.739 7  95974673.70844  23437950.242                    23437958.617
 115344636.894 7  89878866.59345  21949275.883                    21949283.602
 127298805.879 6  99193844.18043  24224144.586                    24224155.770
 126557468.326 6  98616260.00143  24083092.961                    24083102.328
 108153496.474 8  84275529.86446  20580874.836                    20580880.055
 109755526.030 7  85523927.22346  20885754.211                    20885761.559
 11  7 29  2  2  0.0000000  0  9G05G12G25G17G04G27G09G02G10
 113936377.848 8  88781702.46546  21681343.680                    21681351.289
 111120042.635 8  86587126.28446  21145446.781                    21145453.555
 124406922.468 7  96940553.50144  23673860.938                    23673871.047
 123226319.575 7  96020624.20344  23449172.266                    23449180.602
 115423608.042 8  89940402.53145  21964303.195                    21964311.152
 127364146.705 6  99244759.03543  24236578.078                    24236589.656
 126640711.519 6  98681124.72643  24098933.375                    24098943.754
 108158823.761 8  84279680.99646  20581888.633                    20581894.164
 109764890.739 8  85531224.40946  20887536.453                    20887543.902
 11  7 29  2  2 30.0000000  0  9G05G12G25G17G04G27G09G02G10
 113852493.742 8  88716338.27246  21665381.484                    21665388.855
 111073560.550 8  86550906.48946  21136601.313                    21136608.410
 124312653.512 7  96867097.20344  23655921.844                    23655932.430
 123285456.182 7  96066704.67344  23460425.242                    23460433.859
 115502688.806 8  90002023.92245  21979352.125                    21979359.637
 127429489.556 6  99295675.41743  24249013.734                    24249024.195
 126724036.746 6  98746053.39543  24114790.367                    24114800.086
 108164423.369 8  84284044.32946  20582954.680                    20582959.285
 109774888.654 7  85539015.00346  20889438.734                    20889446.426
 11  7 29  2  3  0.0000000  0  9G05G12G25G17G04G27G09G02G10
 113768970.046 8  88651254.92346  21649486.945                    21649494.672
 111027569.692 8  86515069.46246  21127849.602                    21127856.215
 124218627.248 7  96793829.99044  23638029.242                    23638039.480
 123344760.217 7  96112915.60244  23471711.258                    23471717.805
 115581877.517 7  90063729.41545  21994421.109                    21994428.852
 127494831.296 6  99346591.01443  24261447.313                    24261458.707
 126807440.238 6  98811043.04043  24130660.789                    24130671.191
 108170293.953 8  84288618.81446  20584071.813                    20584076.363
 109785519.546 8  85547298.81446  20891462.016                    20891469.234
 11  7 29  2  3 30.0000000  0  9G05G12G25G17G04G27G09G02G10
 113685810.059 8  88586454.98446  21633662.664                    21633669.730
 110982072.161 8  86479616.84146  21119191.977                    21119198.648
 124124846.610 7  96720754.20544  23620183.617                    23620194.055
 123404232.187 7  96159257.39544  23483028.797                    23483035.801
 115661172.320 7  90125517.58045  22009510.547                    22009518.027
 127560169.751 6  99397503.98843  24273881.484                    24273891.922
 126890919.098 6  98876091.43044  24146547.023                    24146557.055
 108176435.031 8  84293404.06646  20585240.180                    20585245.430
 109796783.491 7  85556075.93946  20893605.375                    20893612.977
 11  7 29  2  4  0.0000000  0  9G05G12G25G17G04G27G09G02G10
 113603016.198 8  88521940.33246  21617907.578                    21617914.719
 110937069.428 7  86444549.78146  21110627.992                    21110634.813
 124031314.155 7  96647871.79244  23602384.852                    23602395.348
 123463872.469 7  96205730.33444  23494377.117                    23494384.574
 115740571.469 7  90187387.07145  22024619.203                    22024627.383
 127625502.132 6  99448412.24343  24286313.344                    24286324.078
 126974469.918 6  98941195.90243  24162445.906                    24162455.965
 108182845.675 8  84298399.37546  20586460.086                    20586465.102
 109808679.830 7  85565345.83346  20895869.367                    20895876.809
 11  7 29  2  4 30.0000000  0  9G05G12G25G17G04G27G09G02G10
 113520591.275 7  88457713.16746  21602221.961                    21602229.367
 110892563.872 8  86409870.13546  21102159.008                    21102165.457
 123938032.644 7  96575184.92944  23584633.992                    23584644.566
 123523681.310 7  96252334.59644  23505758.805                    23505765.777
 115820073.325 7  90249336.55945  22039747.828                    22039755.945
 127690825.884 6  99499313.76743  24298744.266                    24298755.418
 127058089.554 6  99006353.96643  24178357.813                    24178368.641
 108189524.442 8  84303603.61946  20587731.195                    20587736.285
 109821208.627 7  85575108.54446  20898253.305                    20898261.160
 11  7 29  2  5  0.0000000  0  9G05G12G25G17G04G27G09G02G10
 113438538.078 8  88393775.65846  21586607.727                    21586615.363
 110848557.163 8  86375579.20146  21093784.602                    21093791.520
 123845004.872 7  96502695.79844  23566931.445                    23566942.359
 123583659.014 7  96299070.45644  23517172.422                    23517179.059
 115899676.039 7  90311364.67545  22054895.945                    22054903.977
 127756138.400 6  99550206.55643  24311172.570                    24311183.906
 127141775.076 6  99071563.42343  24194283.148                    24194293.520
 108196470.663 8  84309016.27046  20589052.563                    20589057.840
 109834369.575 8  85585363.83546  20900757.992                    20900764.809
 11  7 29  2  5 30.0000000  0  9G05G12G25G17G04G27G09G02G10
 113356858.827 7  88330129.53446  21571064.773                    21571072.547
 110805051.128 7  86341678.39546  21085505.859                    21085512.570
 123752233.084 7  96430406.13444  23549277.781                    23549288.242
 123643805.986 7  96345938.24944  23528617.664                    23528625.523
 115979377.714 7  90373469.87745  22070062.578                    22070070.691
 127821436.452 6  99601088.09343  24323599.406                    24323609.305
 127225522.460 6  99136821.10743  24210219.398                    24210230.301
 108203682.052 8  84314635.54746  20590425.359                    20590430.594
 109848161.581 8  85596110.87146  20903382.344                    20903389.438
 11  7 29  2  6  0.0000000  0  9G05G12G25G17G04G27G09G02G10
 113275556.376 8  88266777.01546  21555593.070                    21555600.766
 110762047.657 7  86308169.19946  21077322.703                    21077329.117
 123659720.187 7  96358318.21044  23531673.242                    23531683.172
 123704122.664 7  96392938.20744  23540095.203                    23540103.254
 116059176.547 7  90435650.80045  22085248.570                    22085255.695
 127886717.788 6  99651956.54843  24336021.398                    24336032.484
 127309328.674 7  99202124.55543  24226167.516                    24226178.375
 108211158.004 8  84320460.98346  20591847.898                    20591852.906
 109862584.616 8  85607349.60946  20906127.008                    20906134.160
 11  7 29  2  6 30.0000000  0  9G05G12G25G17G04G27G09G02G10
 113194633.523 7  88203720.29446  21540194.320                    21540201.813
 110719548.919 8  86275053.30546  21069235.242                    21069241.984
 123567468.894 7  96286434.14444  23514117.883                    23514128.367
 123764609.614 7  96440070.86844  23551606.195                    23551613.809
 116139071.031 7  90497906.26145  22100451.367                    22100459.359
 127951979.645 6  99702809.86943  24348440.008                    24348451.672
 127393190.483 6  99267471.38443  24242125.094                    24242136.313
 108218897.603 8  84326491.84846  20593320.383                    20593325.652
 109877638.319 8  85619079.80246  20908991.539                    20908998.891
 11  7 29  2  7  0.0000000  0  9G05G12G25G17G04G27G09G02G10
 113114092.929 8  88140961.42946  21524868.227                    21524875.270
 110677556.253 8  86242331.75646  21061244.375                    21061251.266
 123475481.918 7  96214756.02144  23496613.797                    23496623.395
 123825266.724 7  96487336.16444  23563147.648                    23563156.582
 116219059.310 7  90560234.79545  22115672.828                    22115680.766
 128017219.392 6  99753645.89143  24360854.805                    24360866.184
 127477104.572 6  99332858.93243  24258094.141                    24258104.984
 108226899.295 8  84332726.95446  20594843.305                    20594848.012
 109893322.055 7  85631300.89946  20911975.930                    20911983.438
 11  7 29  2  7 30.0000000  0  9G05G12G25G17G04G27G09G02G10
 113033936.897 7  88078502.22546  21509614.430                    21509622.000
 110636071.603 8  86210006.05946  21053350.063                    21053356.777
 123383761.753 7  96143285.82644  23479159.563                    23479170.039
 123886094.628 7  96534734.53744  23574723.641                    23574731.414
 116299139.758 7  90622635.15945  22130911.383                    22130919.301
 128082434.295 6  99804462.57943  24373265.234                    24373276.027
 127561067.736 6  99398284.73343  24274071.188                    24274081.742
 108235162.235 8  84339165.62046  20596415.688                    20596420.262
 109909635.134 7  85644012.40346  20915080.172                    20915087.918
 11  7 29  2  8  0.0000000  0  9G05G12G25G17G04G27G09G02G10
 112954168.026 8  88016344.71146  21494434.672                    21494442.438
 110595096.879 8  86178077.71146  21045552.836                    21045559.582
 123292311.089 7  96072025.65044  23461756.656                    23461767.406
 123947093.701 6  96582266.22544  23586330.875                    23586339.070
 116379310.489 7  90685105.88945  22146166.758                    22146175.723
 128147621.793 6  99855257.90243  24385670.055                    24385681.227
 127645076.777 6  99463746.28943  24290058.398                    24290068.375
 108243685.102 8  84345806.82446  20598037.547                    20598042.789
 109926577.182 7  85657214.00646  20918303.867                    20918311.805
 11  7 29  2  8 30.0000000  0  9G05G12G25G17G04G27G09G02G10
 112874789.357 8  87954491.25046  21479330.023                    21479337.336
 110554633.965 8  86146548.17346  21037852.961                    21037859.223
 123201132.801 7  96000977.70944  23444405.945                    23444416.930
 124008264.191 7  96629931.53644  23597971.852                    23597979.520
 116459569.954 7  90747645.73945  22161440.172                    22161448.176
 128212779.520 6  99906030.09843  24398069.289                    24398079.574
 127729128.259 6  99529240.93743  24306052.867                    24306062.891
 108252466.756 8  84352649.68846  20599708.172                    20599713.375
 109944147.917 7  85670905.48946  20921647.828                    20921655.207
 11  7 29  2  9  0.0000000  0  9G05G12G25G17G04G27G09G02G10
 112795803.776 8  87892944.07846  21464299.148                    21464306.691
 110514684.794 8  86115418.96346  21030250.930                    21030257.637
 123110229.700 7  95930144.20244  23427108.219                    23427118.359
 124069606.550 6  96677730.78644  23609644.656                    23609652.984
 116539916.539 7  90810253.49445  22176729.398                    22176737.664
 128277904.864 6  99956776.99542  24410462.117                    24410473.969
 127813219.122 6  99594766.24343  24322053.766                    24322064.988
 108261506.523 8  84359693.68346  20601428.602                    20601433.805
 109962346.612 7  85685086.30546  20925111.336                    20925118.605
 11  7 29  2  9 30.0000000  0  9G05G12G25G17G04G27G09G02G10
 112717213.469 8  87831704.91946  21449343.797                    21449351.254
 110475251.281 8  86084691.55446  21022746.977                    21022753.879
 123019604.351 7  95859527.11544  23409862.617                    23409872.684
 124131121.204 6  96725664.26644  23621350.109                    23621359.395
 116620348.567 7  90872927.82845  22192035.453                    22192042.988
 128342994.957 6 100007496.48843  24422848.305                    24422860.094
 127897346.092 6  99660319.70143  24338063.477                    24338073.313
 108270802.900 8  84366937.62646  20603197.703                    20603202.965
 109981172.566 7  85699755.88346  20928693.414                    20928700.762
 11  7 29  2 10  0.0000000  0  9G05G12G25G17G04G27G09G02G10
 112639020.696 7  87770775.53146  21434464.313                    21434472.059
 110436334.106 8  86054366.50046  21015340.938                    21015347.863
 122929259.000 7  95789128.23444  23392670.109                    23392680.785
 124192808.314 6  96773732.10744  23633088.977                    23633097.500
 116700863.917 7  90935667.07845  22207357.195                    22207365.102
 128408046.926 6 100058186.22643  24435227.211                    24435238.617
 127981505.758 6  99725898.58643  24354078.289                    24354089.324
 108280354.204 8  84374380.20246  20605015.391                    20605020.023
 110000624.710 7  85714913.40846  20932395.383                    20932402.684
 11  7 29  2 10 30.0000000  0  9G05G12G25G17G04G27G09G02G10
 112561228.070 8  87710157.93546  21419660.602                    21419668.602
 110397935.473 8  86024445.49046  21008034.203                    21008040.520
 122839196.538 7  95718949.75444  23375531.375                    23375542.371
 124254668.003 6  96821934.41144  23644860.391                    23644868.445
 116781461.271 7  90998470.24445  22222694.102                    22222701.453
 128473058.148 6 100108844.18543  24447598.953                    24447610.586
 128065694.925 6  99791500.46843  24370099.578                    24370109.824
 108290159.425 8  84382020.64946  20606881.102                    20606886.512
 110020702.310 8  85730558.28946  20936215.594                    20936223.039
 11  7 29  2 11  0.0000000  0  9G05G12G25G17G04G27G09G02G10
 112483838.539 8  87649854.44546  21404934.289                    21404941.789
 110360057.287 8  85994930.03346  21000826.406                    21000832.965
 122749419.752 7  95648993.88844  23358448.234                    23358458.203
 124316700.837 6  96870271.66644  23656664.953                    23656673.566
 116862139.028 7  91061336.08045  22238046.695                    22238053.777
 128538026.292 6 100159468.60442  24459962.516                    24459973.129
 128149910.523 6  99857122.97743  24386125.117                    24386134.879
 108300217.709 8  84389858.28646  20608795.000                    20608799.949
 110041405.121 8  85746690.35146  20940155.688                    20940162.516
 11  7 29  2 11 30.0000000  0  9G05G12G25G17G04G27G09G02G10
 112406854.450 8  87589866.88346  21390284.633                    21390291.824
 110322701.379 8  85965821.53646  20993717.961                    20993724.234
 122659931.408 7  95579262.76244  23341419.188                    23341429.309
 124378906.971 7  96918743.94644  23668502.672                    23668511.539
 116942895.562 7  91124263.28045  22253414.367                    22253421.961
 128602948.805 6 100210057.54042  24472316.008                    24472327.492
 128234149.526 6  99922763.70543  24402154.609                    24402165.180
 108310528.103 8  84397892.36046  20610757.086                    20610761.891
 110062732.414 7  85763309.03546  20944213.789                    20944220.879
 11  7 29  2 12  0.0000000  0  9G05G12G25G17G04G27G09G02G10
 112330278.405 8  87530197.27246  21375712.547                    21375720.188
 110285869.123 8  85937121.08846  20986708.688                    20986715.273
 122570734.067 7  95509758.38044  23324444.945                    23324455.500
 124441286.697 6  96967351.48244  23680373.563                    23680381.699
 117023729.049 7  91187250.42245  22268796.227                    22268804.141
 128667822.987 5 100260608.65942  24484661.227                    24484672.797
 128318408.716 6  99988420.15643  24418188.414                    24418199.004
 108321089.220 8  84406121.81346  20612766.664                    20612771.871
 110084683.221 7  85780413.55946  20948390.797                    20948397.996
 11  7 29  2 12 30.0000000  0  9G05G12G25G17G04G27G09G02G10
 112254113.008 7  87470847.65846  21361218.859                    21361226.336
 110249562.247 8  85908830.01746  20979799.383                    20979806.574
 122481830.375 7  95440482.85444  23307527.000                    23307538.234
 124503840.462 6  97016094.62844  23692277.133                    23692284.422
 117104637.970 7  91250296.36345  22284192.305                    22284199.895
 128732646.285 6 100311120.26942  24496996.414                    24497008.484
 128402684.872 6 100054089.85743  24434226.609                    24434236.684
 108331899.963 8  84414545.77646  20614823.984                    20614829.039
 110107256.725 8  85798003.30646  20952686.078                    20952694.203
 11  7 29  2 13  0.0000000  0  9G05G12G25G17G04G27G09G02G10
 112178360.582 8  87411819.82546  21346803.500                    21346810.957
 110213782.297 8  85880949.54346  20972990.906                    20972997.434
 122393222.934 7  95371438.12844  23290665.391                    23290676.313
 124566568.420 7  97064973.53244  23704213.523                    23704221.367
 117185620.562 7  91313399.69645  22299603.305                    22299610.625
 128797415.917 6 100361590.03042  24509322.297                    24509334.234
 128486974.832 6 100119770.31543  24450266.906                    24450276.648
 108342958.965 8  84423163.20246  20616928.547                    20616933.418
 110130451.935 8  85816077.49846  20957100.586                    20957107.883
 11  7 29  2 13 30.0000000  0  9G05G12G25G17G04G27G09G02G10
 112103023.646 8  87353115.76446  21332467.469                    21332474.902
 110178530.947 8  85853480.96046  20966282.766                    20966289.445
 122304914.626 7  95302626.51544  23273860.875                    23273871.742
 124629470.928 7  97113988.43744  23716183.563                    23716191.848
 117266675.345 7  91376559.25745  22315027.422                    22315035.625
 128862129.538 6 100412016.12742  24521637.180                    24521648.762
 128571275.238 6 100185458.89843  24466308.938                    24466318.465
 108354265.388 8  84431973.40646  20619080.109                    20619084.648
 110154268.359 8  85834635.75046  20961632.219                    20961640.059
 11  7 29  2 14  0.0000000  0  9G05G12G25G17G04G27G09G02G10
 112028104.567 8  87294737.29846  21318210.656                    21318218.281
 110143809.514 8  85826425.29946  20959675.586                    20959682.246
 122216907.817 7  95234049.82544  23257114.094                    23257123.930
 124692548.188 7  97163139.52544  23728186.859                    23728195.027
 117347800.639 7  91439773.75645  22330464.531                    22330472.984
 128926784.478 6 100462396.50542  24533940.906                    24533951.797
 128655582.744 6 100251152.98043  24482351.930                    24482362.020
 108365817.542 8  84440975.09346  20621278.227                    20621283.055
 110178704.580 8  85853676.97246  20966282.563                    20966289.605
 11  7 29  2 14 30.0000000  0  9G05G12G25G17G04G27G09G02G10
 111953605.960 8  87236686.46546  21304034.125                    21304041.395
 110109619.988 8  85799784.11046  20953169.500                    20953176.234
 122129205.360 7  95165710.26044  23240425.078                    23240434.668
 124755800.529 6  97212427.04844  23740223.242                    23740230.820
 117428994.999 7  91503042.08344  22345915.531                    22345923.781
 128991378.341 6 100512729.30743  24546232.742                    24546244.430
 128739894.327 6 100316850.27143  24498396.063                    24498405.848
 108377614.464 8  84450167.50946  20623522.961                    20623528.090
 110203760.025 8  85873200.70445  20971050.586                    20971058.016
 11  7 29  2 15  0.0000000  0  9G05G12G25G17G04G27G09G02G10
 111879530.396 8  87178965.28846  21289937.555                    21289945.133
 110075964.055 8  85773558.70346  20946765.039                    20946771.680
 122041809.890 7  95097609.91844  23223793.461                    23223803.953
 124819228.378 6  97261851.30743  23752293.211                    23752301.293
 117510256.831 7  91566362.96945  22361379.391                    22361387.172
 129055908.529 6 100563012.49842  24558512.297                    24558524.078
 128824206.763 6 100382548.25343  24514439.914                    24514450.348
 108389655.239 8  84459549.94146  20625814.453                    20625819.617
 110229433.873 8  85893206.30446  20975936.266                    20975943.383
 11  7 29  2 15 30.0000000  0  9G05G12G25G17G04G27G09G02G10
 111805880.357 8  87121575.68646  21275922.688                    21275930.301
 110042842.745 8  85747749.91146  20940461.969                    20940468.715
 121954724.153 7  95029750.92344  23207222.008                    23207231.988
 124882831.799 6  97311412.37443  23764396.000                    23764404.500
 117591584.629 7  91629735.25245  22376854.984                    22376863.383
 129120372.451 6 100613244.01643  24570780.063                    24570790.781
 128908517.127 6 100448244.59743  24530483.539                    24530494.133
 108401938.702 8  84469121.49146  20628152.148                    20628156.953
 110255725.454 8  85913693.26546  20980939.531                    20980946.414
 11  7 29  2 16  0.0000000  0  9G05G12G25G17G04G27G09G02G10
 111732657.837 8  87064519.22946  21261989.148                    21261996.418
 110010257.442 8  85722358.77146  20934261.500                    20934268.117
 121867950.514 7  94962135.12644  23190709.211                    23190720.055
 124946611.003 6  97361110.41743  23776533.086                    23776541.000
 117672976.585 7  91693157.50745  22392344.117                    22392351.711
 129184767.412 6 100663421.82843  24583032.852                    24583045.539
 128992822.186 6 100513936.75143  24546526.375                    24546536.934
 108414463.084 8  84478880.76846  20630535.375                    20630540.371
 110282633.203 8  85934660.35845  20986059.641                    20986066.773
 11  7 29  2 16 30.0000000  0  9G05G12G25G17G04G27G09G02G10
 111659865.412 8  87007797.88546  21248137.023                    21248144.266
 109978209.797 8  85697386.60646  20928162.891                    20928169.746
 121781491.706 7  94894764.63144  23174256.742                    23174266.848
 125010566.444 7  97410945.80643  23788703.680                    23788711.859
 117754431.175 7  91756628.57845  22407844.375                    22407852.039
 129249090.905 6 100713543.91443  24595274.234                    24595285.621
 129077118.881 6 100579622.42543  24562567.281                    24562578.332
 108427227.853 8  84488827.35046  20632964.570                    20632969.410
 110310156.052 8  85956106.73746  20991296.852                    20991303.793
 11  7 29  2 17  0.0000000  0  9G05G12G25G17G04G27G09G02G10
 111587505.609 8  86951413.66246  21234367.367                    21234374.855
 109946701.565 8  85672834.74846  20922167.242                    20922173.805
 121695350.568 7  94827641.67344  23157865.078                    23157874.813
 125074698.334 6  97460918.63743  23800907.852                    23800915.426
 117835947.009 7  91820147.37245  22423356.430                    22423363.758
 129313340.411 6 100763608.36843  24607499.203                    24607511.609
 129161404.126 6 100645299.16143  24578606.125                    24578616.688
 108440231.895 8  84498960.39046  20635438.742                    20635444.086
 110338293.168 8  85978031.78345  20996651.219                    20996658.641
 11  7 29  2 17 30.0000000  0  9G05G12G25G17G04G27G09G02G10
 111515580.489 8  86895368.14546  21220680.242                    21220687.598
 109915733.799 8  85648704.04446  20916274.125                    20916280.801
 121609529.497 7  94760768.11544  23141533.883                    23141543.766
 125139006.554 6  97511028.91543  23813145.438                    23813152.746
 117917522.591 7  91883712.72645  22438879.672                    22438887.109
 129377513.166 6 100813612.99043  24619712.711                    24619723.664
 129245674.665 6 100710964.44843  24594642.500                    24594653.543
 108453473.527 8  84509278.55446  20637958.430                    20637963.648
 110367043.049 8  86000434.29545  21002122.164                    21002129.500
 11  7 29  2 18  0.0000000  0  9G05G12G25G17G04G27G09G02G10
 111444092.762 8  86839663.46446  21207076.648                    21207084.066
 109885308.149 8  85624995.76046  20910484.438                    20910490.938
 121524031.353 7  94694146.19144  23125263.484                    23125274.328
 125203491.664 7  97561277.08243  23825416.945                    23825424.145
 117999156.349 7  91947323.38745  22454413.883                    22454422.379
 129441606.913 6 100863556.05943  24631908.633                    24631920.129
 129329927.611 6 100776616.04243  24610675.570                    24610686.371
 108466951.991 8  84519781.26546  20640523.375                    20640528.410
 110396404.904 8  86023313.68246  21007709.836                    21007716.359
 11  7 29  2 18 30.0000000  0 10G05G12G25G29G17G04G27G09G02G10
 111373044.939 7  86784301.55546  21193556.648                    21193564.051
 109855426.214 8  85601711.14446  20904798.008                    20904804.734
 121438858.774 7  94627777.95544  23109056.227                    23109066.281
 132157346.68814                  25148697.781
 125268153.816 6  97611663.12243  23837720.781                    23837727.941
 118080846.850 7  92010978.28044  22469958.781                    22469967.281
 129505619.166 6 100913435.65543  24644090.133                    24644101.918
 129414159.576 6 100842251.29543  24626704.375                    24626714.945
 108480666.034 8  84530467.53446  20643133.289                    20643138.371
 110426377.885 8  86046669.26546  21013413.055                    21013420.547
 11  7 29  2 19  0.0000000  0  9G05G12G25G17G04G27G09G02G10
 111302439.077 8  86729284.04646  21180120.820                    21180128.184
 109826089.048 8  85578851.01846  20899215.414                    20899221.938
 121354014.370 7  94561665.43244  23092910.461                    23092920.996
 125332993.254 7  97662187.37544  23850059.648                    23850067.445
 118162592.675 7  92074676.28444  22485514.836                    22485522.863
 129569547.316 5 100963249.66942  24656254.922                    24656267.145
 129498367.461 6 100907867.75243  24642728.695                    24642739.551
 108494614.567 8  84541336.52746  20645787.406                    20645792.527
 110456960.492 8  86070499.88746  21019232.641                    21019239.699
 11  7 29  2 19 30.0000000  0  9G05G12G25G17G04G27G09G02G10
 111232278.320 7  86674613.36046  21166769.586                    21166776.734
 109797298.690 8  85556416.97846  20893736.883                    20893743.203
 121269501.446 7  94495811.20344  23076828.266                    23076838.414
 125398010.728 6  97712850.34343  23862431.922                    23862439.797
 118244392.947 7  92138416.69944  22501080.875                    22501089.371
 129633389.421 5 101012996.67143  24668403.477                    24668415.969
 129582548.945 6 100973463.67143  24658747.430                    24658758.684
 108508796.714 8  84552387.55646  20648486.242                    20648491.023
 110488152.303 8  86094805.21146  21025168.281                    21025175.715
 11  7 29  2 20  0.0000000  0 10G05G12G25G29G17G04G27G09G02G10
 111162563.613 8  86620290.24446  21153503.086                    21153510.449
 109769055.849 8  85534409.58346  20888361.773                    20888368.586
 121185321.300 7  94430216.27144  23060809.563                    23060819.527
 131924748.02015                  25104434.773
 125463205.299 6  97763651.33344  23874838.555                    23874846.133
 118326244.777 7  92202197.30044  22516657.500                    22516664.973
 129697141.892 5 101062673.77843  24680535.703                    24680547.684
 129666699.757 6 101039035.65343  24674761.445                    24674772.035
 108523210.079 8  84563618.74946  20651228.914                    20651234.168
 110519950.537 8  86119583.06745  21031219.430                    21031226.711
 11  7 29  2 20 30.0000000  0 10G05G12G25G29G17G04G27G09G02G10
 111093297.703 8  86566316.85046  21140322.344                    21140329.594
 109741361.360 8  85512829.47746  20883092.164                    20883098.828
 121101477.057 7  94364883.09545  23044854.555                    23044865.066
 131847051.003 4                  25089648.547
 125528577.700 6  97814590.86844  23887278.375                    23887286.504
 118408147.240 7  92266017.36045  22532242.531                    22532250.715
 129760802.679 6 101112279.47742  24692649.875                    24692662.555
 129750817.315 6 101104581.68843  24690768.766                    24690779.238
 108537854.542 8  84575030.02246  20654015.711                    20654020.598
 110552354.915 8  86144833.23646  21037385.492                    21037392.746
 11  7 29  2 21  0.0000000  0 10G05G12G25G29G17G04G27G09G02G10
 111024483.131 8  86512695.13946  21127227.750                    21127234.512
 109714217.086 8  85491678.10146  20877927.266                    20877933.594
 121017971.480 7  94299813.81945  23028963.813                    23028973.758
 131769272.433 4                  25074847.969
 125594128.329 6  97865669.29344  23899751.625                    23899760.465
 118490099.061 7  92329875.91044  22547837.125                    22547844.984
 129824369.417 6 101161811.83143  24704747.172                    24704758.848
 129834898.579 5 101170099.45343  24706767.836                    24706779.469
 108552729.023 8  84586620.51746  20656846.258                    20656851.434
 110585364.062 8  86170554.66845  21043666.961                    21043674.160
 11  7 29  2 21 30.0000000  0 10G05G12G25G29G17G04G27G09G02G10
 110956122.025 7  86459426.77346  21114218.750                    21114226.129
 109687624.042 8  85470956.26546  20872866.453                    20872872.996
 120934807.129 7  94235010.44644  23013138.672                    23013148.309
 131691412.354 5                  25060032.266
 125659857.046 6  97916886.47544  23912259.484                    23912267.844
 118572098.612 7  92393771.63045  22563441.211                    22563449.695
 129887839.472 5 101211268.92642  24716825.055                    24716836.883
 129918940.697 6 101235586.70143  24722761.172                    24722771.945
 108567831.954 8  84598389.03746  20659720.422                    20659725.242
 110618976.741 8  86196746.38045  21050063.641                    21050070.746
 11  7 29  2 22  0.0000000  0 10G05G12G25G29G17G04G27G09G02G10
 110888216.649 8  86406513.53246  21101296.852                    21101304.199
 109661583.989 8  85450665.32746  20867910.695                    20867917.816
 120851986.756 7  94170475.09745  22997377.945                    22997388.379
 131613471.477 5                  25045200.156
 125725764.197 6  97968242.70443  23924801.641                    23924809.801
 118654144.957 7  92457703.80544  22579054.359                    22579062.520
 129951210.504 5 101260648.83042  24728883.664                    24728895.699
 130002940.489 6 101301041.01943  24738745.492                    24738757.289
 108583162.434 8  84610334.87446  20662637.383                    20662642.820
 110653191.792 8  86223407.47345  21056574.219                    21056581.363
 11  7 29  2 22 30.0000000  0 10G05G12G25G29G17G04G27G09G02G10
 110820769.361 8  86353957.24246  21088462.055                    21088469.160
 109636097.832 8  85430805.99746  20863061.148                    20863067.582
 120769512.908 7  94106209.78945  22981683.789                    22981694.117
 131535450.130 5                  25030353.672
 125791849.957 6  98019738.10244  23937377.211                    23937385.086
 118736236.205 7  92521670.99644  22594675.648                    22594683.234
 130014480.183 5 101309949.70042  24740923.563                    24740935.438
 130086894.976 6 101366460.01443  24754722.969                    24754732.758
 108598719.170 8  84622457.00946  20665597.953                    20665602.680
 110688007.685 8  86250536.74845  21063199.789                    21063206.684
 11  7 29  2 23  0.0000000  0 10G05G12G25G29G17G04G27G09G02G10
 110753782.065 8  86301759.38246  21075714.664                    21075722.348
 109611166.938 8  85411379.33946  20858317.141                    20858323.637
 120687388.076 7  94042216.46045  22966056.250                    22966065.883
 131457348.187 5                  25015490.914
 125858114.663 6  98071372.97344  23949986.984                    23949995.430
 118818371.117 7  92585672.18844  22610305.102                    22610313.660
 130077645.787 5 101359169.48842  24752944.227                    24752955.438
 130170801.082 6 101431841.31342  24770689.398                    24770699.391
 108614500.853 8  84634754.42946  20668601.164                    20668605.910
 110723422.879 8  86278133.02645  21069938.695                    21069946.238
 11  7 29  2 23 30.0000000  0 10G05G12G25G29G17G04G27G09G02G10
 110687257.401 8  86249922.01546  21063055.172                    21063062.520
 109586792.372 8  85392386.18346  20853678.820                    20853685.320
 120605615.030 7  93978497.24345  22950495.133                    22950505.438
 131379165.878 5                  25000613.930
 125924558.316 6  98123147.25143  23962630.578                    23962639.508
 118900548.257 7  92649706.28444  22625942.813                    22625951.129
 130140704.804 5 101408306.29142  24764944.195                    24764956.121
 130254655.933 6 101497182.73943  24786646.617                    24786657.234
 108630506.563 8  84647226.40546  20671646.914                    20671652.043
 110759436.373 8  86306195.49945  21076791.797                    21076799.184
 11  7 29  2 24  0.0000000  0 10G05G12G25G29G17G04G27G09G02G10
 110621196.799 8  86198446.26246  21050484.781                    21050491.469
 109562975.424 8  85373827.53646  20849146.648                    20849153.074
 120524196.153 7  93915054.01844  22935001.914                    22935011.910
 131300903.737 5                  24985721.570
 125991180.816 6  98175060.88743  23975307.688                    23975316.496
 118982766.151 7  92713772.16144  22641588.883                    22641596.730
 130203654.868 6 101457358.15743  24776922.992                    24776934.770
 130338456.475 6 101562481.77542  24802592.125                    24802603.813
 108646735.112 8  84659872.03146  20674735.000                    20674740.105
 110796046.516 8  86334722.90245  21083758.641                    21083766.066
 11  7 29  2 24 30.0000000  0 10G05G12G25G29G17G04G27G09G02G10
 110555603.432 8  86147334.58346  21038002.398                    21038010.051
 109539717.160 8  85355704.20846  20844720.438                    20844727.168
 120443134.170 7  93851888.90345  22919576.281                    22919586.375
 131222561.944 5                  24970812.516
 126057982.531 6  98227114.17944  23988020.133                    23988029.074
 119065023.450 7  92777868.72644  22657242.039                    22657249.559
 130266493.601 6 101506323.28542  24788880.773                    24788892.727
 130422199.800 6 101627736.30442  24818528.367                    24818539.652
 108663185.296 8  84672690.36346  20677865.461                    20677870.441
 110833251.909 8  86363714.11945  21090838.367                    21090845.832
 11  7 29  2 25  0.0000000  0 10G05G12G25G29G17G04G27G09G02G10
 110490478.946 8  86096588.26246  21025609.820                    21025617.016
 109517018.601 8  85338017.03146  20840401.023                    20840407.941
 120362431.622 7  93789003.85945  22904218.469                    22904229.035
 131144141.035 5                  24955890.531
 126124963.531 6  98279307.17144  24000766.578                    24000775.004
 119147318.908 7  92841995.03244  22672902.516                    22672910.078
 130329218.644 6 101555199.79942  24800815.969                    24800829.020
 130505882.630 5 101692943.59542  24834452.633                    24834463.668
 108679855.833 8  84685680.40546  20681037.523                    20681042.828
 110871051.071 8  86393168.03645  21098031.539                    21098038.742
 11  7 29  2 25 30.0000000  0 10G05G12G25G29G17G04G27G09G02G10
 110425825.377 8  86046208.88946  21013306.023                    21013313.387
 109494880.894 8  85320766.87646  20836188.297                    20836195.238
 120282091.107 7  93726400.92844  22888930.266                    22888940.895
 131065641.143 5                  24940951.688
 126192123.987 6  98331639.97643  24013546.461                    24013554.129
 119229650.944 7  92906149.86144  22688569.469                    22688577.441
 130391827.671 6 101603985.89842  24812731.219                    24812743.277
 130589502.243 6 101758101.66642  24850365.484                    24850376.117
 108696745.776 8  84698841.40646  20684251.672                    20684256.680
 110909442.444 8  86423083.41946  21105336.727                    21105344.453
 11  7 29  2 26  0.0000000  0 10G05G12G25G29G17G04G27G09G02G10
 110361645.032 8  85996198.25846  21001093.008                    21001100.477
 109473305.249 8  85303954.69946  20832082.563                    20832089.461
 120202115.224 7  93664082.13445  22873711.430                    22873721.461
 130987062.641 5                  24925998.484
 126259464.037 6  98384112.72343  24026360.945                    24026369.457
 119312018.532 7  92970332.36344  22704243.945                    22704251.746
 130454318.203 6 101652679.71742  24824622.547                    24824634.484
 130673055.542 6 101823208.08942  24866264.984                    24866275.805
 108713854.124 8  84712172.60546  20687507.352                    20687512.480
 110948424.556 8  86453459.10845  21112755.438                    21112762.332
 11  7 29  2 26 30.0000000  0 10G05G12G25G29G17G04G27G09G02G10
 110297939.917 8  85946557.93846  20988970.695                    20988978.031
 109452292.924 8  85287581.46146  20828084.172                    20828090.797
 120122506.436 7  93602049.36445  22858562.180                    22858571.625
 130908405.65015                  24911031.930
 126326984.001 6  98436725.71943  24039209.781                    24039217.934
 119394420.012 7  93034541.28444  22719924.055                    22719931.934
 130516687.814 6 101701279.37043  24836491.164                    24836503.863
 130756539.650 6 101888260.58243  24882151.375                    24882162.625
 108731179.606 8  84725672.98746  20690803.859                    20690809.414
 110987995.907 8  86484293.93545  21120285.195                    21120292.555
 11  7 29  2 27  0.0000000  0 10G05G12G25G29G17G04G27G09G02G10
 110234712.316 8  85897289.70546  20976938.758                    20976945.809
 109431844.441 8  85271647.58846  20824192.992                    20824199.656
 120043267.383 7  93540304.71845  22843483.320                    22843493.105
 130829670.58615                  24896047.438
 126394683.783 6  98489478.76843  24052092.523                    24052100.082
 119476854.200 7  93098775.70044  22735611.148                    22735618.828
 130578934.134 6 101749782.87942  24848336.531                    24848349.121
 130839951.447 6 101953256.72243  24898024.125                    24898035.402
 108748721.093 8  84739341.68346  20694142.328                    20694147.215
 111028154.837 8  86515586.62146  21127927.266                    21127934.535
 11  7 29  2 27 30.0000000  0 10G05G12G25G29G17G04G27G09G02G10
 110171963.967 8  85848394.91546  20964998.180                    20965005.355
 109411960.818 8  85256153.86446  20820409.266                    20820415.895
 119964400.525 7  93478850.07145  22828475.586                    22828485.227
 130750858.02715                  24881051.000
 126462563.637 6  98542372.20143  24065009.672                    24065016.941
 119559319.866 7  93163034.65244  22751303.227                    22751311.391
 130641054.672 6 101798188.37142  24860158.141                    24860170.313
 130923288.143 6 102018194.32743  24913883.453                    24913893.383
 108766477.241 8  84753177.65546  20697521.055                    20697525.719
 111068899.839 8  86547336.00645  21135680.602                    21135687.949
 11  7 29  2 28  0.0000000  0 10G05G12G25G29G17G04G27G09G02G10
 110109697.044 8  85799875.25946  20953149.383                    20953156.445
 109392643.327 8  85241101.28546  20816733.258                    20816739.422
 119885908.461 7  93417687.47745  22813539.070                    22813548.840
 130671968.28015                  24866036.633
 126530623.340 6  98595405.75043  24077960.805                    24077968.391
 119641815.598 7  93227317.03344  22767001.672                    22767009.891
 130703047.006 6 101846494.00542  24871954.445                    24871967.031
 131006546.922 6 102083071.23943  24929726.375                    24929737.059
 108784447.032 8  84767180.09446  20700940.930                    20700945.668
 111110229.367 8  86579540.85946  21143545.305                    21143552.559
 11  7 29  2 28 30.0000000  0 10G05G12G25G29G17G04G27G09G02G10
 110047913.898 8  85751732.58146  20941392.250                    20941399.645
 109373893.028 8  85226490.66846  20813164.945                    20813172.043
 119807793.783 7  93356818.95145  22798674.609                    22798684.266
 130593001.77415                  24851011.578
 126598863.175 6  98648579.65643  24090947.156                    24090954.258
 119724340.237 7  93291621.93044  22782705.594                    22782713.871
 130764908.897 6 101894697.97742  24883727.172                    24883738.410
 131089724.663 6 102147885.03543  24945555.813                    24945565.570
 108802629.473 8  84781348.23146  20704400.656                    20704405.406
 111152141.710 8  86612199.84546  21151521.203                    21151528.453
 11  7 29  2 29  0.0000000  0 10G05G12G25G29G17G04G27G09G02G10
 109986616.053 8  85703968.06946  20929727.945                    20929734.820
 109355710.426 8  85212322.41046  20809705.203                    20809711.758
 119730058.837 7  93296246.31845  22783881.492                    22783891.527
 130513958.679 5                  24835970.508
 126667283.436 6  98701894.16043  24103966.211                    24103973.270
 119806892.218 7  93355948.14044  22798415.148                    22798422.953
 130826637.855 6 101942798.37142  24895473.609                    24895485.234
 131172818.680 6 102212633.52943  24961367.031                    24961377.688
 108821023.077 8  84795680.92146  20707900.578                    20707905.492
 111194635.317 8  86645311.77946  21159607.547                    21159614.523
 11  7 29  2 29 30.0000000  0 10G05G12G25G29G17G04G27G09G02G10
 109925805.853 8  85656583.52546  20918155.570                    20918162.980
 109338096.971 8  85198597.64446  20806353.258                    20806359.809
 119652706.380 8  93235971.71045  22769162.086                    22769172.047
 130434839.393 6 101637524.37852  24820913.867                    24820923.121
 126735883.993 6  98755349.15543  24117020.242                    24117028.367
 119889470.417 7  93420294.78844  22814128.867                    22814137.020
 130888231.681 6 101990793.45842  24907194.414                    24907206.492
 131255826.172 6 102277314.63143  24977163.359                    24977174.508
 108839627.023 8  84810177.50346  20711440.992                    20711445.742
 111237708.591 8  86678875.40045  21167803.641                    21167810.941
 11  7 29  2 30  0.0000000  0 10G05G12G25G29G17G04G27G09G02G10
 109865485.078 8  85609580.36846  20906677.156                    20906684.195
 109321053.249 8  85185316.83546  20803110.500                    20803116.656
 119575738.855 7  93175997.03645  22754515.398                    22754525.453
 130355644.563 5 101575814.23042  24805843.469                    24805853.047
 126804664.774 6  98808944.59743  24130109.422                    24130116.945
 119972073.656 7  93484660.96444  22829848.133                    22829855.555
 130949687.886 6 102038681.34842  24918889.430                    24918901.414
 131338743.732 6 102341925.64743  24992941.883                    24992952.832
 108858440.348 8  84824837.23746  20715021.164                    20715026.051
 111281359.578 8  86712889.18346  21176110.148                    21176117.480
 11  7 29  2 30 30.0000000  0 10G05G12G25G29G17G04G27G09G02G10
 109805655.880 8  85562960.25046  20895291.906                    20895298.828
 109304580.513 8  85172480.95546  20799975.211                    20799981.832
 119499158.927 7  93116324.39745  22739942.289                    22739952.410
 130276374.553 5 101514045.45442  24790757.406                    24790768.230
 126873626.068 6  98862680.64543  24143232.711                    24143240.262
 120054700.774 7  93549045.72944  22845571.602                    22845579.164
 131011004.433 6 102086460.28342  24930557.328                    24930570.586
 131421568.815 6 102406464.56443  25008702.477                    25008714.063
 108877462.126 8  84839659.41146  20718641.063                    20718645.758
 111325586.629 8  86747351.85845  21184526.734                    21184533.957
 11  7 29  2 31  0.0000000  0 10G05G12G25G29G17G04G27G09G02G10
 109746320.141 8  85516724.64346  20884000.367                    20884007.477
 109288679.363 8  85160090.46646  20796949.742                    20796956.199
 119422968.912 7  93056955.57845  22725444.625                    22725454.652
 130197029.449 6 101452218.20743  24775659.703                    24775669.324
 126942768.118 6  98916557.59443  24156389.391                    24156397.367
 120137350.376 7  93613448.02944  22861299.563                    22861307.246
 131072178.608 5 102134128.36242  24942199.336                    24942211.691
 131504298.472 6 102470929.12243  25024445.766                    25024456.977
 108896690.763 8  84854642.75946  20722299.695                    20722304.574
 111370388.196 8  86782262.20546  21193051.977                    21193058.969
 11  7 29  2 31 30.0000000  0 10G05G12G25G29G17G04G27G09G02G10
 109687479.868 8  85470875.10546  20872803.836                    20872811.156
 109273350.180 8  85148145.67346  20794032.461                    20794039.250
 119347171.239 7  92997892.46845  22711020.797                    22711031.121
 130117609.854 6 101390332.87843  24760546.250                    24760556.543
 127012090.750 7  98970575.20943  24169581.609                    24169588.273
 120220021.051 7  93677866.74944  22877030.680                    22877038.625
 131133208.136 6 102181683.67743  24953813.141                    24953824.621
 131586929.809 6 102535317.09243  25040170.219                    25040180.957
 108916125.209 8  84869786.48946  20725998.078                    20726003.266
 111415762.302 7  86817618.67845  21201686.555                    21201693.043
 11  7 29  2 32  0.0000000  0 10G05G12G25G29G17G04G27G09G02G10
 109629136.757 8  85425412.96546  20861701.227                    20861708.379
 109258594.229 8  85136647.53946  20791224.688                    20791230.938
 119271768.417 7  92939137.03245  22696672.109                    22696681.691
 130038116.175 6 101328389.79343  24745418.883                    24745429.527
 127081593.930 7  99024733.53743  24182806.492                    24182815.129
 120302711.796 7  93742301.09944  22892766.258                    22892774.387
 131194090.60315 102229124.38552  24965397.367                    24965411.012
 131669460.042 6 102599626.27043  25055874.469                    25055885.621
 108935764.321 8  84885089.69746  20729735.352                    20729740.410
 111461707.091 8  86853419.84445  21210429.414                    21210436.051
 11  7 29  2 32 30.0000000  0 10G05G12G25G29G17G04G27G09G02G10
 109571292.582 8  85380339.61446  20850693.805                    20850701.078
 109244411.995 8  85125596.44946  20788525.734                    20788532.020
 119196762.979 7  92880691.21845  22682398.688                    22682408.777
 129958548.727 6 101266389.25643  24730278.391                    24730288.074
 127151277.649 6  99079032.54443  24196067.742                    24196075.191
 120385421.210 7  93806749.99744  22908505.398                    22908513.613
 131254824.061 5 102276449.03843  24976955.391                    24976968.395
 131751886.443 6 102663854.52443  25071560.750                    25071571.461
 108955606.975 8  84900551.49946  20733511.297                    20733516.172
 111508220.755 8  86889664.29046  21219280.617                    21219287.516
 11  7 29  2 33  0.0000000  0 10G05G12G25G29G17G04G27G09G02G10
 109513949.413 8  85335656.64846  20839781.758                    20839788.930
 109230804.379 8  85114993.12246  20785936.273                    20785942.656
 119122157.322 7  92822556.95345  22668201.531                    22668211.895
 129878908.158 6 101204331.73743  24715123.539                    24715132.852
 127221141.929 6  99133472.26243  24209362.703                    24209370.422
 120468148.148 7  93871212.54544  22924248.188                    22924256.066
 131315405.844 5 102323655.47142  24988482.977                    24988496.555
 131834205.977 6 102727999.52543  25087225.180                    25087235.844
 108975652.135 8  84916171.08746  20737325.695                    20737330.840
 111555301.607 7  86926350.69545  21228239.875                    21228247.180
 11  7 29  2 33 30.0000000  0 10G05G12G25G29G17G04G27G09G02G10
 109457109.157 8  85291365.57646  20828965.531                    20828972.352
 109217772.258 8  85104838.23146  20783456.258                    20783462.668
 119047954.070 7  92764736.22745  22654081.984                    22654091.914
 129799194.933 6 101142217.62743  24699953.781                    24699964.109
 127291186.961 6  99188052.80343  24222690.406                    24222699.418
 120550891.459 7  93935687.83244  22939993.141                    22940001.570
 131375834.10415 102370742.20352  24999984.508                    24999995.695
 131916415.870 6 102792059.08243  25102869.539                    25102881.133
 108995898.591 8  84931947.54746  20741178.703                    20741183.426
 111602947.724 7  86963477.56945  21237306.602                    21237313.242
 11  7 29  2 34  0.0000000  0  9G05G12G25G29G17G04G09G02G10
 109400773.770 8  85247467.90446  20818245.086                    20818252.184
 109205316.153 8  85095132.17846  20781085.961                    20781092.457
 118974155.702 7  92707231.01045  22640038.266                    22640048.281
 129719409.543 6 101080047.22643  24684771.703                    24684781.363
 127361412.947 6  99242774.37143  24236054.375                    24236063.020
 120633650.182 7  94000175.14244  22955741.719                    22955750.008
 131998513.685 6 102856031.30143  25118492.336                    25118503.660
 109016345.487 8  84947880.19346  20745069.250                    20745074.543
 111651157.354 7  87001043.53745  21246480.461                    21246487.824
 11  7 29  2 34 30.0000000  0  9G05G12G25G29G17G04G09G02G10
 109344944.087 8  85203964.27446  20807621.383                    20807628.258
 109193436.620 8  85085875.39846  20778825.391                    20778831.898
 118900764.297 7  92650042.90445  22626072.109                    22626082.176
 129639551.989 6 101017820.63143  24669575.156                    24669584.660
 127431819.312 6  99297636.47043  24249453.016                    24249460.824
 120716422.628 7  94064673.13344  22971493.078                    22971500.656
 132080496.027 6 102919913.52243  25134092.984                    25134104.188
 109036991.449 8  84963967.95046  20748998.133                    20749003.328
 111699928.417 7  87039046.99945  21255761.117                    21255768.949
 11  7 29  2 35  0.0000000  0  9G05G12G25G29G17G04G09G02G10
 109289623.551 8  85160857.38946  20797093.875                    20797101.367
 109182135.406 8  85077069.25546  20776674.391                    20776681.543
 118827783.098 7  92593174.44545  22612184.289                    22612194.520
 129559623.484 6 100955538.72943  24654365.328                    24654374.477
 127502406.478 6  99352639.51943  24262884.453                    24262893.211
 120799208.664 7  94129181.81444  22987246.875                    22987254.043
 132162361.011 5 102983704.33443  25149671.539                    25149683.254
 109057836.100 8  84980210.52446  20752965.055                    20752970.012
 111749259.595 8  87077486.89545  21265148.703                    21265155.980
 11  7 29  2 35 30.0000000  0 10G05G12G25G29G17G04G27G09G02G10
 109234812.979 8  85118147.88246  20786663.977                    20786670.703
 109171411.836 8  85068713.23046  20774634.031                    20774640.641
 118755213.883 7  92536627.00545  22598374.805                    22598384.824
 129479624.112 6 100893201.60343  24639142.258                    24639151.223
 127573174.418 6  99407783.38943  24276351.625                    24276360.078
 120882006.284 7  94193699.47544  23003002.461                    23003010.129
 131615961.54315 102557904.11552  25045679.250                    25045689.734
 132244105.166 5 103047400.95143  25165227.164                    25165238.180
 109078877.693 8  84996606.58146  20756968.961                    20756974.023
 111799148.239 8  87116361.19545  21274641.977                    21274648.922
 11  7 29  2 36  0.0000000  0 10G05G12G25G29G17G04G27G09G02G10
 109180513.826 8  85075836.88946  20776331.109                    20776338.102
 109161266.516 8  85060807.78446  20772703.656                    20772710.098
 118683058.795 7  92480402.27845  22584644.266                    22584654.250
 129399554.170 6 100830809.41543  24623905.469                    24623914.426
 127644122.776 6  99463067.83643  24289852.109                    24289861.617
 120964813.979 7  94258224.97544  23018760.344                    23018768.164
 131675586.86715 102604365.25452  25057025.063                    25057037.496
 132325725.45815 103111001.04752  25180757.914                    25180770.555
 109100114.837 8  85013154.99046  20761010.563                    20761015.563
 111849592.322 8  87155668.29845  21284241.023                    21284248.465
 11  7 29  2 36 30.0000000  0 10G05G12G25G29G17G04G27G09G02G10
 109126727.983 8  85033925.85946  20766096.078                    20766103.074
 109151700.272 8  85053353.56846  20770883.320                    20770889.602
 118611320.442 7  92424502.29045  22570992.680                    22571002.793
 129319414.384 6 100768362.82043  24608654.523                    24608664.422
 127715251.819 6  99518493.05643  24303388.234                    24303396.605
 121047630.887 6  94322757.64044  23034520.273                    23034527.621
 131735044.686 5 102650695.87643  25068338.945                    25068352.320
 132407219.20915 103174502.59252  25196267.680                    25196278.020
 109121546.688 8  85029855.12446  20765089.070                    20765093.641
 111900589.826 7  87195406.64745  21293945.484                    21293953.191
 11  7 29  2 37  0.0000000  0 10G05G12G25G29G17G04G27G09G02G10
 109073457.430 8  84992416.38046  20755958.805                    20755966.070
 109142714.025 8  85046351.29846  20769173.148                    20769179.770
 118540001.515 7  92368929.13345  22557421.234                    22557430.887
 129239205.340 6 100705862.27443  24593392.133                    24593400.746
 127786561.384 6  99574058.94743  24316957.813                    24316966.340
 121130456.274 7  94387296.93544  23050281.063                    23050289.316
 131794333.107 5 102696894.53643  25079620.844                    25079635.020
 132488584.07215 103237903.58852  25211751.125                    25211762.141
 109143172.426 8  85046706.34346  20769203.703                    20769209.164
 111952138.925 7  87235574.79145  21303755.133                    21303762.387
 11  7 29  2 37 30.0000000  0 10G05G12G25G29G17G04G27G09G02G10
 109020703.618 8  84951309.54446  20745920.344                    20745927.160
 109134307.782 8  85039800.98046  20767573.477                    20767580.090
 118469104.106 7  92313684.42645  22543929.922                    22543939.988
 129158927.155 6 100643307.80743  24578114.852                    24578124.699
 127858051.294 7  99629765.38043  24330562.000                    24330569.789
 121213288.613 7  94451841.59244  23066043.516                    23066051.566
 131853449.440 5 102742959.06942  25090871.727                    25090883.906
 132569816.94615 103301201.88352  25227208.648                    25227220.219
 109164990.603 8  85063707.52446  20773356.203                    20773360.930
 112004237.713 8  87276171.26145  21313669.305                    21313676.348
 11  7 29  2 38  0.0000000  0 10G05G12G25G29G17G04G27G09G02G10
 108968467.882 8  84910606.40646  20735980.117                    20735987.223
 109126481.999 8  85033702.96546  20766084.602                    20766091.184
 118398630.430 7  92258769.91545  22530519.258                    22530529.070
 129078580.539 6 100580700.00643  24562826.141                    24562835.219
 127929721.638 7  99685612.38344  24344200.789                    24344208.613
 121296126.872 7  94516390.87844  23081807.430                    23081815.129
 131912391.744 6 102788887.97843  25102088.305                    25102101.391
 132650915.051 5 103364395.14842  25242640.086                    25242652.637
 109186999.946 8  85080857.67646  20777544.195                    20777548.750
 112056883.953 7  87317194.31545  21323687.508                    21323694.684
 11  7 29  2 38 30.0000000  0 10G05G12G25G29G17G04G27G09G02G10
 108916752.522 8  84870308.76346  20726138.984                    20726146.078
 109119237.694 8  85028058.04946  20764705.750                    20764712.191
 118328583.216 7  92204187.70245  22517189.969                    22517199.219
 128998166.259 6 100518039.53943  24547523.266                    24547532.316
 128001572.405 6  99741599.98843  24357873.078                    24357880.586
 121378970.067 7  94580944.02944  23097572.016                    23097579.488
 131971157.846 5 102834679.63242  25113271.500                    25113284.055
 132731876.081 5 103427481.49243  25258047.344                    25258059.289
 109209199.917 8  85098156.35246  20781768.695                    20781773.309
 112110076.047 7  87358642.72045  21333809.297                    21333817.035
 11  7 29  2 39  0.0000000  0 10G05G12G25G29G17G04G27G09G02G10
 108865559.349 8  84830418.00546  20716396.977                    20716403.922
 109112575.045 8  85022866.37246  20763437.875                    20763444.773
 118258964.952 7  92149939.75445  22503942.039                    22503951.480
 128917685.086 6 100455326.92643  24532208.242                    24532217.805
 128073603.301 6  99797727.94743  24371580.578                    24371587.828
 121461817.324 7  94645500.36444  23113337.141                    23113344.867
 132029745.570 6 102880332.23443  25124420.859                    25124433.172
 132812697.145 6 103490458.91943  25273427.102                    25273438.695
 109231589.688 8  85115602.93546  20786029.258                    20786033.855
 112163811.919 7  87400514.81645  21344035.609                    21344042.395
 11  7 29  2 39 30.0000000  0 10G05G12G25G29G17G04G27G09G02G10
 108814889.464 8  84790935.00246  20706754.883                    20706762.227
 109106494.289 8  85018128.12446  20762280.805                    20762287.395
 118189777.707 7  92096027.64645  22490775.758                    22490785.695
 128837137.093 6 100392562.21143  24516880.625                    24516889.984
 128145814.689 6  99853996.55343  24385321.273                    24385329.180
 121544667.285 6  94710058.77044  23129102.352                    23129110.422
 132088152.863 5 102925844.25042  25135534.836                    25135547.746
 132893375.607 6 103553325.15443  25288779.766                    25288791.152
 109254167.828 8  85133196.29046  20790325.375                    20790330.418
 112218089.131 7  87442808.75645  21354364.336                    21354371.441
 11  7 29  2 40  0.0000000  0 10G05G12G25G29G17G04G27G09G02G10
 108764744.523 8  84751861.05746  20697212.617                    20697219.648
 109100996.271 8  85013843.95746  20761234.445                    20761241.344
 118121023.961 7  92042453.34945  22477692.266                    22477702.598
 128756523.038 6 100329746.07743  24501540.016                    24501550.500
 128218206.434 6  99910405.71043  24399097.398                    24399105.141
 121627519.124 6  94774618.63844  23144868.844                    23144876.906
 132146377.434 6 102971213.93842  25146614.289                    25146627.242
 132973908.796 6 103616078.21942  25304104.859                    25304116.703
 109276933.431 8  85150935.71746  20794657.734                    20794662.566
 112272905.615 7  87485522.89245  21364795.172                    21364802.230
 11  7 29  2 40 30.0000000  0 10G05G12G25G29G17G04G27G09G02G10
 108715126.038 8  84713197.32446  20687770.531                    20687777.434
 109096081.216 8  85010014.03546  20760299.391                    20760305.637
 118052705.881 7  91989218.53145  22464692.070                    22464702.023
 128675843.598 6 100266878.96443  24486187.547                    24486197.152
 128290778.222 5  99966955.10143  24412906.984                    24412914.996
 121710371.565 7  94839178.93144  23160635.383                    23160642.891
 132204416.887 6 103016439.25742  25157658.945                    25157672.625
 133054294.080 6 103678716.07042  25319401.813                    25319413.105
 109299885.072 8  85168820.09446  20799025.289                    20799030.305
 112328259.325 7  87528655.65245  21375328.539                    21375335.461
 11  7 29  2 41  0.0000000  0 10G05G12G25G29G17G04G27G09G02G10
 108666035.827 8  84674945.24146  20678428.953                    20678436.434
 109091749.433 8  85006638.62646  20759474.648                    20759481.391
 117984825.947 7  91936325.12645  22451774.461                    22451784.410
 128595099.514 6 100203961.51543  24470822.203                    24470831.531
 128363529.753 6 100023644.64442  24426751.883                    24426759.379
 121793223.723 7  94903739.04544  23176401.172                    23176409.324
 132262269.408 6 103061518.96742  25168668.469                    25168682.039
 133134528.756 6 103741236.47242  25334669.797                    25334680.949
 109323022.126 8  85186848.95046  20803427.984                    20803433.105
 112384148.212 7  87572205.42645  21385963.844                    21385970.680
 11  7 29  2 41 30.0000000  0 10G05G12G25G29G17G04G27G09G02G10
 108617474.953 8  84637105.62746  20669188.219                    20669194.914
 109088001.218 7  85003717.93046  20758761.453                    20758768.480
 117917386.283 7  91883774.78145  22438941.352                    22438951.285
 128514290.998 6 100140993.87443  24455445.141                    24455454.668
 128436461.555 6 100080474.58043  24440629.727                    24440637.785
 121876074.566 7  94968298.15144  23192167.297                    23192175.285
 132319932.483 6 103106451.04742  25179641.547                    25179654.750
 133214610.054 6 103803637.38942  25349908.609                    25349920.172
 109346343.285 8  85205021.25646  20807865.984                    20807871.027
 112440570.021 7  87616170.46745  21396700.508                    21396707.266
 11  7 29  2 42  0.0000000  0 10G05G12G25G29G17G04G27G09G02G10
 108569445.148 8  84599679.81446  20660048.617                    20660055.559
 109084836.644 8  85001252.03446  20758159.133                    20758166.316
 117850389.138 7  91831569.26245  22426192.203                    22426201.992
 128433418.909 6 100077976.69343  24440055.195                    24440065.039
 128509573.183 6 100137444.64943  24454542.336                    24454550.426
 121958922.852 7  95032855.26344  23207932.719                    23207940.465
 132377404.244 5 103151234.25742  25190577.484                    25190591.156
 133294535.193 6 103865916.72242  25365118.594                    25365129.684
 109369847.429 8  85223336.15446  20812338.750                    20812343.520
 112497522.304 7  87660548.85645  21407537.906                    21407545.297
 11  7 29  2 42 30.0000000  0 10G05G12G25G29G17G04G27G09G02G10
 108521948.038 8  84562669.10646  20651009.883                    20651016.648
 109082256.353 8  84999241.40946  20757668.406                    20757675.055
 117783836.989 8  91779710.48745  22413527.688                    22413537.566
 128352483.751 6 100014910.43743  24424654.344                    24424663.328
 128582864.699 6 100194554.92543  24468489.648                    24468497.883
 122041767.728 7  95097409.69143  23223698.391                    23223705.543
 132434682.95316 103195880.75452  25201477.922                    25201488.895
 133374302.049 6 103928072.62842  25380297.086                    25380309.242
 109393533.995 8  85241793.20546  20816846.258                    20816851.070
 112555003.192 8  87705339.15245  21418476.375                    21418483.449
 11  7 29  2 43  0.0000000  0 11G05G12G25G29G17G26G04G27G09G02G10
 108474985.206 8  84526074.72046  20642073.156                    20642080.309
 109080260.645 8  84997686.31946  20757288.727                    20757295.293
 117717732.256 7  91728200.35945  22400948.195                    22400958.215
 128271486.449 6  99951795.72543  24409239.703                    24409250.059
 128656335.898 6 100251805.19143  24482471.211                    24482478.816
 136503782.98414                  25975820.672
 122124608.447 7  95161960.89944  23239461.742                    23239470.656
 132491766.02515 103240360.96052  25212341.148                    25212353.035
 133453908.035 6 103990103.19042  25395446.266                    25395457.742
 109417401.664 8  85260391.38146  20821388.023                    20821392.895
 112613010.620 7  87750539.74845  21429514.805                    21429521.699
 11  7 29  2 43 30.0000000  0 11G05G12G25G29G17G26G04G27G09G02G10
 108428557.870 8  84489897.58946  20633238.305                    20633245.090
 109078849.532 8  84996586.74946  20757020.477                    20757026.746
 117652076.989 7  91677040.45545  22388454.461                    22388464.426
 128190427.405 6  99888632.95343  24393815.469                    24393825.422
 128729986.671 6 100309195.40543  24496486.141                    24496494.156
 136424165.859 5                  25960669.445
 122207443.941 7  95226508.03444  23255225.188                    23255233.129
 132548651.543 5                  25223165.398
 133533349.999 6 104052005.94142  25410563.000                    25410575.316
 109441449.407 8  85279129.87646  20825964.172                    20825969.098
 112671542.219 7  87796148.76345  21440653.141                    21440660.156
 11  7 29  2 44  0.0000000  0 11G05G12G25G29G17G26G04G27G09G02G10
 108382667.399 8  84454138.80246  20624505.789                    20624512.848
 109078023.407 8  84995943.02946  20756862.742                    20756869.313
 117586873.427 7  91626232.51845  22376046.422                    22376056.512
 128109307.306 6  99825422.58443  24378378.125                    24378388.680
 128803816.701 6 100366725.27943  24510536.531                    24510543.438
 136344255.366 5                  25945463.547
 122290273.089 6  95291050.21044  23270986.211                    23270995.039
 132605338.068 6                  25233952.563
 133612625.759 6 104113779.19042  25425648.898                    25425660.496
 109465676.372 8  85298008.03246  20830574.305                    20830579.574
 112730595.626 7  87842164.39545  21451890.727                    21451897.816
 11  7 29  2 44 30.0000000  0 11G05G12G25G29G17G26G04G27G09G02G10
 108337315.125 8  84418799.39146  20615875.234                    20615882.563
 109077781.971 8  84995754.88746  20756817.055                    20756823.313
 117522123.675 7  91575778.20445  22363724.922                    22363735.207
 128028126.702 6  99762165.06643  24362930.945                    24362940.500
 128877825.572 6 100424394.55743  24524619.578                    24524626.570
 136264053.725 5 106179873.16452  25930200.938                    25930210.738
 122373094.784 6  95355586.56544  23286747.164                    23286755.051
 132661822.442 5 103372876.92852  25244701.695                    25244714.727
 133691732.337 6 104175420.57443  25440702.617                    25440713.898
 109490081.379 8  85317024.92246  20835218.773                    20835223.664
 112790168.253 8  87888584.61845  21463226.906                    21463233.895
 11  7 29  2 45  0.0000000  0 11G05G12G25G29G17G26G04G27G09G02G10
 108292502.795 8  84383880.71246  20607347.641                    20607354.816
 109078125.887 8  84996022.88246  20756882.602                    20756889.305
 117457830.107 7  91525679.36445  22351490.555                    22351500.508
 127946886.441 6  99698861.08843  24347471.414                    24347480.879
 128952013.441 6 100482203.30043  24538736.742                    24538744.152
 136183562.770 5                  25914884.992
 122455908.210 6  95420116.46943  23302506.367                    23302514.352
 132718103.18015 103416732.07052  25255410.836                    25255425.477
 133770667.356 6 104236928.27542  25455723.328                    25455734.863
 109514663.464 8  85336179.79646  20839896.148                    20839901.320
 112850258.268 7  87935408.00045  21474661.977                    21474668.871
 11  7 29  2 45 30.0000000  0 11G05G12G25G29G17G26G04G27G09G02G10
 108248230.861 8  84349383.12546  20598923.047                    20598930.305
 109079054.584 8  84996746.54746  20757059.133                    20757066.047
 117393994.407 7  91475937.29345  22339343.047                    22339352.867
 127865586.646 6  99635510.70043  24332000.352                    24332009.184
 129026380.158 6 100540151.38143  24552888.109                    24552896.016
 136102784.095 6 106054212.74552  25899512.352                    25899523.387
 122538712.050 7  95484638.92544  23318263.031                    23318271.199
 132774177.92715 103460426.41052  25266082.297                    25266096.746
 133849427.780 6 104298299.95143  25470711.469                    25470722.805
 109539420.673 8  85355471.14046  20844607.398                    20844612.352
 112910862.864 7  87982632.36145  21486194.352                    21486201.543
 11  7 29  2 46  0.0000000  0 11G05G12G25G29G17G26G04G27G09G02G10
 108204500.897 8  84315307.84246  20590601.188                    20590608.395
 109080568.864 8  84997926.51146  20757347.172                    20757353.887
 117330619.130 7  91426553.99145  22327282.859                    22327292.809
 127784228.386 6  99572114.79343  24316518.250                    24316527.156
 129100925.582 6 100598238.72443  24567074.328                    24567080.977
 136021719.863 4 105991045.97352  25884086.359                    25884098.230
 122621505.453 7  95549153.21444  23334018.320                    23334026.387
 132830044.811 5                  25276713.875
 133928011.435 6 104359533.88543  25485665.836                    25485677.172
 109564352.923 8  85374898.87846  20849351.789                    20849356.770
 112971980.116 7  88030256.18245  21497824.359                    21497831.906
 11  7 29  2 46 30.0000000  0 11G05G12G25G29G17G26G04G27G09G02G10
 108161314.906 8  84281656.44546  20582383.430                    20582390.461
 109082668.566 8  84999562.64546  20757746.664                    20757753.574
 117267706.639 7  91377531.31245  22315310.570                    22315320.891
 127702812.556 6  99508674.02443  24301025.281                    24301034.082
 129175649.426 6 100656465.09043  24581293.289                    24581300.715
 135940373.12414                  25868605.195
 122704288.073 7  95613659.16244  23349771.234                    23349779.563
 132885699.17616 103547334.07252  25287305.367                    25287317.305
 134006416.063 6 104420628.33942  25500585.391                    25500597.270
 109589459.398 8  85394462.38946  20854129.891                    20854134.617
 113033607.672 7  88078277.62645  21509551.516                    21509559.063
 11  7 29  2 47  0.0000000  0 10G05G12G25G29G17G26G04G09G02G10
 108118674.036 8  84248429.81946  20574269.406                    20574276.273
 109085353.911 7  85001655.14046  20758257.813                    20758264.234
 117205259.238 7  91328871.03045  22303427.352                    22303437.488
 127621339.846 6  99445188.88544  24285521.156                    24285530.676
 129250551.948 6 100714830.70643  24595546.406                    24595554.035
 135858745.278 5                  25853074.039
 122787058.854 7  95678155.85244  23365521.484                    23365529.957
 134084639.327 6 104481581.41543  25515470.539                    25515482.398
 109614739.305 8  85414161.04446  20858940.070                    20858944.984
 113095743.780 7  88126695.37045  21521375.609                    21521383.055
 11  7 29  2 47 30.0000000  0 11G05G12G25G29G17G26G04G27G09G02G10
 108076579.138 8  84215628.62046  20566258.469                    20566265.547
 109088624.165 8  85004203.39346  20758880.563                    20758886.461
 117143278.500 7  91280574.38445  22291633.063                    22291643.004
 127539810.529 6  99381659.69943  24270006.883                    24270015.949
 129325632.313 6 100773334.85243  24609834.227                    24609841.121
 135776838.19115                  25837486.102
 122869816.386 7  95742642.19644  23381269.422                    23381278.598
 132996371.73615                  25308365.633
 134162678.203 6 104542390.78642  25530321.469                    25530333.063
 109640191.219 8  85433993.73546  20863783.820                    20863788.605
 113158385.195 7  88175506.84045  21533296.477                    21533303.449
 11  7 29  2 48  0.0000000  0 10G05G12G25G29G17G26G04G09G02G10
 108035031.589 8  84183253.92246  20558352.172                    20558359.602
 109092480.294 7  85007208.17346  20759613.641                    20759620.508
 117081767.089 7  91232643.45145  22279927.406                    22279937.723
 127458226.043 6  99318087.46243  24254481.820                    24254490.672
 129400890.522 6 100831977.61843  24624154.203                    24624162.500
 135694654.57515                  25821847.664
 122952560.324 7  95807117.97344  23397015.219                    23397024.105
 134240530.26615 104603054.60352  25545135.711                    25545148.188
 109665814.120 8  85453959.67046  20868659.172                    20868664.055
 113221530.117 7  88224710.66245  21545312.078                    21545319.387
 11  7 29  2 48 30.0000000  0 11G05G12G25G29G17G26G04G27G09G02G10
 107994032.212 8  84151306.37846  20550550.664                    20550557.641
 109096921.714 7  85010669.02146  20760459.359                    20760465.859
 117020726.642 7  91185079.49445  22268311.906                    22268322.238
 127376586.307 6  99254472.22044  24238945.852                    24238955.031
 129476326.173 6 100890758.63743  24638509.094                    24638517.414
 135612195.91115                  25806156.344
 123035289.280 6  95871582.05444  23412758.750                    23412766.492
 133106182.04015                  25329263.266
 134318192.897 5 104663570.82542  25559914.250                    25559926.488
 109691606.749 8  85474057.88046  20873567.508                    20873572.297
 113285175.655 7  88274304.59545  21557423.352                    21557431.016
 11  7 29  2 49  0.0000000  0 10G05G12G25G29G17G26G04G09G02G10
 107953583.039 8  84119787.55946  20542853.539                    20542860.500
 109101949.166 8  85014586.52746  20761415.922                    20761422.539
 116960159.970 7  91137884.72545  22256786.484                    22256796.492
 127294892.775 6  99190815.03643  24223400.086                    24223408.984
 129551939.711 6 100949678.25642  24652898.656                    24652906.684
 135529464.90415                  25790411.742
 123118003.035 6  95936034.26643  23428498.336                    23428506.512
 134395663.86714 104723937.66352  25574656.703                    25574669.688
 109717568.803 8  85494288.11046  20878507.844                    20878512.730
 113349319.941 7  88324287.13745  21569629.953                    21569637.141
 11  7 29  2 49 30.0000000  0 10G05G12G25G29G17G26G04G09G02G10
 107913684.858 8  84088698.09046  20535260.938                    20535267.887
 109107561.599 8  85018959.85446  20762483.570                    20762490.582
 116900068.704 8  91091060.39045  22245351.734                    22245361.234
 127213145.850 6  99127116.23243  24207844.422                    24207852.973
 129627730.465 6 101008735.91742  24667321.016                    24667329.184
 135446463.65615                  25774618.258
 123200700.314 7  96000473.66243  23444235.977                    23444243.680
 134472940.839 4 104784153.30442  25589361.172                    25589375.445
 109743699.038 8  85514649.38446  20883480.125                    20883485.148
 113413960.187 7  88374656.12945  21581930.320                    21581937.855
 11  7 29  2 50  0.0000000  0 10G05G12G25G29G17G26G04G09G02G10
 107874338.756 8  84058038.81646  20527773.664                    20527780.664
 109113759.103 8  85023789.07946  20763663.211                    20763669.809
 116840454.989 8  91044608.17645  22234007.594                    22234016.887
 127131346.017 6  99063376.22044  24192278.180                    24192286.605
 129703698.312 6 101067931.64842  24681776.414                    24681784.859
 135363194.07515                  25758771.930
 123283380.351 6  96064899.65343  23459968.625                    23459977.047
 134550021.18015 104844215.81752  25604029.195                    25604042.793
 109769996.278 8  85535140.80946  20888483.984                    20888489.438
 113479094.035 7  88425409.76345  21594324.922                    21594332.734
 11  7 29  2 50 30.0000000  0 10G05G12G25G29G17G26G04G09G02G10
 107835545.838 8  84027810.59246  20520391.813                    20520398.438
 109120541.752 8  85029074.26246  20764954.070                    20764960.664
 116781320.803 8  90998529.61545  22222755.055                    22222764.574
 127049494.595 6  98999596.02044  24176702.039                    24176710.969
 129779843.024 6 101127265.15642  24696267.141                    24696275.316
 135279658.278 5                  25742876.789
 123366042.292 6  96129311.53943  23475698.992                    23475707.492
 134626902.350 5 104904123.00842  25618660.578                    25618673.102
 109796459.896 8  85555761.89346  20893519.758                    20893525.133
 113544719.104 7  88476546.17945  21606813.039                    21606820.371
 11  7 29  2 51  0.0000000  0 10G05G12G25G29G17G26G04G09G02G10
 107797306.746 8  83998013.92346  20513115.055                    20513122.051
 109127908.969 8  85034814.95446  20766355.922                    20766362.504
 116722668.045 8  90952826.20945  22211593.258                    22211603.141
 126967591.995 6  98935775.97944  24161116.781                    24161125.102
 129856164.158 6 101186736.11843  24710790.992                    24710798.605
 135195858.37815                  25726928.234
 123448684.859 6  96193708.37143  23491425.063                    23491433.148
 134703581.702 5 104963873.08142  25633253.297                    25633264.688
 109823088.523 8  85576511.54846  20898587.438                    20898592.250
 113610832.763 7  88528063.29545  21619394.539                    21619400.742
 11  7 29  2 51 30.0000000  0 10G05G12G25G29G17G26G04G09G02G10
 107759622.960 8  83968649.95346  20505944.055                    20505950.941
 109135860.652 8  85041011.07546  20767868.750                    20767875.762
 116664498.635 8  90907499.41845  22200523.820                    22200533.293
 126885638.885 6  98871916.52044  24145521.531                    24145530.129
 129932661.185 6 101246344.22043  24725347.789                    24725355.344
 135111796.403 5                  25710931.688
 123531307.519 7  96258089.67743  23507148.375                    23507156.184
 134780056.661 6 105023463.81842  25647805.641                    25647816.723
 109849880.927 8  85597388.82846  20903685.445                    20903690.371
 113677432.210 7  88579958.95445  21632067.867                    21632074.398
 11  7 29  2 52  0.0000000  0 10G05G12G25G29G17G26G04G09G02G10
 107722495.523 8  83939719.50646  20498878.938                    20498885.941
 109144396.638 8  85047662.48846  20769493.031                    20769499.828
 116606814.898 8  90862551.08545  22189547.313                    22189556.934
 126803636.262 6  98808018.50843  24129916.414                    24129925.406
 130009334.266 6 101306089.42543  24739938.180                    24739945.645
 135027475.000 5                  25694885.219
 123613909.538 7  96322454.88143  23522866.039                    23522874.227
 134856325.589 6 105082894.02343  25662318.477                    25662331.281
 109876836.983 8  85618393.62046  20908815.227                    20908819.844
 113744515.528 7  88632231.64045  21644833.500                    21644840.223
 11  7 29  2 52 30.0000000  0 10G05G12G25G29G17G26G04G09G02G10
 107685925.324 8  83911223.26946  20491919.758                    20491926.777
 109153516.788 8  85054769.09346  20771228.836                    20771235.168
 116549618.765 8  90817982.70645  22178662.734                    22178672.969
 126721585.092 6  98744082.61743  24114302.594                    24114311.535
 130086182.970 6 101365971.52343  24754561.195                    24754569.508
 134942896.303 5                  25678791.305
 123696489.964 7  96386803.28343  23538580.930                    23538588.598
 134932385.547 6 105142161.37442  25676791.695                    25676804.406
 109903955.417 8  85639524.93746  20913975.266                    20913980.719
 113812079.909 7  88684879.17845  21657690.367                    21657697.426
 11  7 29  2 53  0.0000000  0 10G05G12G25G29G17G26G04G09G02G10
 107649913.447 8  83883162.08246  20485066.609                    20485073.949
 109163220.934 8  85062330.76046  20773075.602                    20773082.148
 116492912.253 8  90773795.84645  22167872.281                    22167881.805
 126639486.041 6  98680109.43243  24098679.656                    24098688.020
 130163207.122 6 101425990.35243  24769219.508                    24769227.035
 134858062.434 5                  25662647.469
 123779047.826 7  96451134.01843  23554291.656                    23554299.332
 135008234.214 6 105201264.13143  25691225.703                    25691238.238
 109931235.415 8  85660782.14946  20919167.023                    20919171.355
 113880122.942 7  88737899.75245  21670638.773                    21670645.676
 11  7 29  2 53 30.0000000  0 10G05G12G25G29G17G26G04G09G02G10
 107614460.910 8  83855536.75146  20478320.328                    20478327.438
 109173508.761 8  85070347.24346  20775033.398                    20775039.879
 116436697.251 8  90729991.97945  22157174.773                    22157184.398
 126557339.645 6  98616099.32843  24083048.461                    24083056.762
 130240406.473 6 101486145.67243  24783909.438                    24783917.457
 134772975.56415                  25646456.336
 123861582.553 6  96515446.78444  23569997.234                    23570005.445
 135083869.049 6 105260200.23643  25705619.617                    25705631.551
 109958675.646 8  85682164.22046  20924388.516                    20924393.520
 113948642.060 7  88791291.24945  21683677.125                    21683684.949
 11  7 29  2 54  0.0000000  0 10G05G12G25G29G17G26G04G09G02G10
 107579568.454 8  83828347.84146  20471680.734                    20471687.738
 109184379.623 8  85078818.04446  20777102.117                    20777108.273
 116380975.653 8  90686572.57345  22146571.297                    22146581.551
 126475147.126 6  98552053.31043  24067407.031                    24067415.320
 130317780.537 6 101546437.09943  24798633.563                    24798641.176
 134687638.237 5                  25630219.344
 123944093.344 6  96579740.82243  23585698.141                    23585706.570
 135159287.803 6 105318967.97943  25719971.516                    25719983.184
 109986275.282 8  85703670.49646  20929640.320                    20929644.789
 114017634.712 7  88845051.72645  21696806.188                    21696813.301
 11  7 29  2 54 30.0000000  0 10G05G12G25G29G17G26G04G09G02G10
 107545237.403 8  83801596.39146  20465147.680                    20465154.883
 109195833.392 8  85087743.05446  20779281.273                    20779288.297
 116325749.379 8  90643539.14845  22136062.164                    22136071.914
 126392909.053 6  98487971.75143  24051757.211                    24051766.555
 130395329.009 6 101606864.43143  24813390.430                    24813398.121
 134602052.533 5                  25613930.617
 124026579.442 7  96644015.74844  23601394.938                    23601403.031
 135234488.237 6 105377565.60142  25734281.203                    25734293.238
 110014033.379 8  85725300.22146  20934922.703                    20934926.980
 114087098.401 7  88899179.28145  21710024.688                    21710031.781
 11  7 29  2 55  0.0000000  0 10G05G12G25G29G17G26G04G09G02G10
 107511467.875 7  83775282.47846  20458721.508                    20458728.367
 109207869.590 7  85097121.90146  20781571.461                    20781578.520
 116271020.363 7  90600893.18245  22125647.813                    22125656.758
 126310626.618 6  98423855.63244  24036099.734                    24036107.969
 130473051.303 6 101667427.20043  24828179.758                    24828188.039
 134516220.682 5 104817913.25852  25597596.992                    25597605.859
 124109039.957 7  96708270.67343  23617087.172                    23617094.637
 135309468.142 6 105435991.43543  25748550.227                    25748561.695
 110041949.208 7  85747052.85046  20940234.523                    20940239.008
 114157030.339 7  88953671.68845  21723332.500                    21723339.957
 11  7 29  2 55 30.0000000  0 10G05G12G25G29G17G26G04G09G02G10
 107478261.406 8  83749407.31846  20452402.492                    20452409.262
 109220487.927 7  85106954.37346  20783972.906                    20783979.859
 116216790.663 8  90558636.29145  22115328.188                    22115337.348
 126228300.403 6  98359705.34244  24020433.578                    24020441.840
 130550947.695 6 101728125.66043  24843004.102                    24843011.984
 134430144.946 5 104750841.39642  25581217.086                    25581226.656
 124191474.317 7  96772505.24743  23632773.375                    23632781.734
 135384224.821 6 105494243.29442  25762775.625                    25762787.785
 110070021.845 8  85768927.66646  20945576.938                    20945581.398
 114227428.290 7  89008527.19945  21736728.656                    21736735.824
 11  7 29  2 56  0.0000000  0 10G05G12G25G29G17G26G04G09G02G10
 107445618.724 8  83723971.46746  20446190.484                    20446197.859
 109233687.909 8  85117240.07046  20786485.227                    20786491.895
 116163061.998 8  90516769.83045  22105103.719                    22105113.500
 126145931.284 6  98295521.63943  24004759.180                    24004767.844
 130629017.527 6 101788959.24643  24857860.156                    24857867.602
 134343828.095 6 104683581.67542  25564792.477                    25564802.203
 124273881.495 7  96836718.62843  23648455.680                    23648463.406
 135458756.067 6 105552319.47042  25776958.219                    25776970.453
 110098250.155 8  85790923.78346  20950948.102                    20950952.574
 114298289.688 7  89063743.88445  21750213.242                    21750220.234
 11  7 29  2 56 30.0000000  0 10G05G12G25G29G17G26G04G09G02G10
 107413540.721 8  83698975.62447  20440086.492                    20440093.500
 109247469.281 8  85127978.79946  20789107.891                    20789114.137
 116109836.450 8  90475295.39246  22094975.367                    22094984.656
 126063520.281 6  98231305.26844  23989076.719                    23989084.883
 130707260.569 6 101849927.79242  24872748.586                    24872756.895
 134257272.354 5 104616135.78442  25548320.852                    25548331.188
 124356261.231 7  96900910.57643  23664131.188                    23664139.566
 135533059.878 6 105610218.40242  25791098.586                    25791110.230
 110126633.860 8  85813040.97246  20956349.313                    20956354.445
 114369611.833 7  89119319.55445  21763785.195                    21763792.523
 11  7 29  2 57  0.0000000  0 10G05G12G25G29G17G26G04G09G02G10
 107382027.722 8  83674420.04046  20434089.734                    20434096.816
 109261831.626 8  85139170.23046  20791840.352                    20791847.117
 116057115.710 8  90434214.32045  22084942.688                    22084952.008
 125981068.219 6  98167056.94343  23973386.336                    23973394.746
 130785676.455 6 101911031.10342  24887671.320                    24887678.652
 134170479.903 6 104548505.47042  25531804.813                    25531815.113
 124438612.500 6  96965080.34043  23679802.781                    23679810.023
 135607133.564 6 105667938.11342  25805193.594                    25805206.414
 110155171.761 8  85835278.31346  20961780.258                    20961785.039
 114441391.887 7  89175252.05845  21777444.539                    21777451.957
 11  7 29  2 57 30.0000000  0 10G05G12G25G29G17G26G04G09G02G10
 107351081.076 8  83650305.77746  20428200.977                    20428208.004
 109276773.910 8  85150813.55946  20794683.781                    20794690.520
 116004901.423 7  90393527.89145  22075006.266                    22075016.371
 125898576.069 6  98102777.37944  23957688.719                    23957697.770
 130864264.582 6 101972268.55642  24902626.117                    24902633.895
 134083452.969 6 104480692.36142  25515243.734                    25515254.230
 124520934.561 6  97029227.40243  23695467.711                    23695476.074
 135680974.729 5 105725476.55442  25819244.492                    25819258.469
 110183862.602 8  85857634.82546  20967239.969                    20967244.598
 114513627.300 7  89231539.37945  21791191.055                    21791197.840
 11  7 29  2 58  0.0000000  0 10G05G12G25G29G17G26G04G09G02G10
 107320701.126 8  83626633.08546  20422419.789                    20422426.711
 109292296.042 8  85162908.72846  20797637.789                    20797644.305
 115953195.686 7  90353237.72945  22065167.609                    22065177.102
 125816044.801 6  98038467.34344  23941983.859                    23941992.383
 130943024.679 6 102033639.98843  24917614.000                    24917621.715
 133996194.120 6 104412698.62342  25498638.477                    25498649.664
 124603226.772 7  97093351.15543  23711127.398                    23711135.402
 135754581.442 6 105782832.32042  25833251.836                    25833265.145
 110212705.724 8  85880109.95746  20972728.609                    20972733.008
 114586315.879 7  89288179.82145  21805022.555                    21805029.688
 11  7 29  2 58 30.0000000  0 10G05G12G25G29G17G26G04G09G02G10
 107290888.826 8  83603402.72846  20416746.695                    20416753.840
 109308397.035 8  85175454.95546  20800701.672                    20800708.352
 115902000.153 8  90313345.12945  22055425.484                    22055434.848
 125733475.256 6  97974127.51544  23926271.039                    23926280.293
 131021956.580 6 102095145.27442  24932633.523                    24932642.375
 133908705.844 5 104344526.08452  25481990.727                    25482000.992
 124685488.479 6  97157451.15143  23726781.117                    23726789.781
 135827951.336 5                  25847213.680
 110241700.477 8  85902703.27746  20978246.039                    20978251.039
 114659454.443 7  89345170.91445  21818940.625                    21818947.414
 11  7 29  2 59  0.0000000  0 10G05G12G25G29G17G26G04G09G02G10
 107261645.085 7  83580615.39746  20411181.703                    20411188.742
 109325076.474 8  85188451.91946  20803875.750                    20803882.199
 115851316.694 8  90273851.54246  22045780.297                    22045790.414
 125650868.178 6  97909758.40844  23910550.992                    23910560.285
 131101059.789 5 102156784.05242  24947685.563                    24947694.688
 133820990.237 6 104276176.49343  25465298.203                    25465309.422
 124767718.997 7  97221526.86243  23742429.609                    23742437.770
 135901082.517 6                  25861130.172
 110270845.730 8  85925413.86346  20983792.148                    20983797.070
 114733040.549 7  89402510.71745  21832943.484                    21832950.590
 11  7 29  2 59 30.0000000  0 10G05G12G25G29G17G26G04G09G02G10
 107232970.392 8  83558271.48046  20405725.281                    20405732.461
 109342334.236 8  85201899.51746  20807159.664                    20807166.496
 115801147.125 8  90234758.38945  22036233.211                    22036243.234
 125568224.930 6  97845361.12544  23894825.258                    23894833.844
 131180334.087 5 102218556.22342  24962770.594                    24962780.941
 133733050.057 6 104207651.93542  25448563.391                    25448574.621
 124849917.518 6  97285577.66543  23758071.023                    23758079.375
 135973972.597 5                  25875001.656
 110300141.001 8  85948241.34746  20989366.727                    20989371.480
 114807071.836 7  89460197.41345  21847031.070                    21847038.086
 11  7 29  3  0  0.0000000  0 10G05G12G25G29G17G26G04G09G02G10
 107204865.308 8  83536371.42846  20400376.914                    20400383.945
 109360169.340 8  85215797.00546  20810553.742                    20810560.273
 115751493.114 8  90196066.98846  22026784.594                    22026794.145
 125485546.451 6  97780936.36244  23879091.727                    23879100.227
 131259779.022 5 102280461.31052  24977890.977                    24977898.547
 133644887.468 5 104138954.10942  25431785.914                    25431797.648
 124932083.561 6  97349603.13243  23773706.938                    23773715.246
 136046618.743 5                  25888824.875
 110329585.214 8  85971184.89146  20994970.078                    20994974.750
 114881545.458 7  89518228.79445  21861202.773                    21861210.000
 11  7 29  3  0 30.0000000  0 10G05G12G25G29G17G26G04G09G02G10
 107177330.413 8  83514915.65747  20395137.344                    20395143.980
 109378580.803 8  85230143.59646  20814057.055                    20814063.902
 115702356.154 8  90157778.45646  22017434.359                    22017443.809
 125402833.553 7  97716484.79744  23863351.906                    23863361.105
 131339393.89015 102342498.80052  24993039.891                    24993049.090
 133556504.917 6 104070084.69842  25414967.969                    25414978.848
 125014216.251 6  97413602.62443  23789336.258                    23789344.523
 136119019.13115                  25902602.438
 110359177.235 8  85994243.58946  21000601.203                    21000605.785
 114956458.402 7  89576602.54445  21875458.391                    21875465.523
 11  7 29  3  1  0.0000000  0 10G05G12G25G29G17G26G04G09G02G10
 107150366.033 8  83493904.45247  20390006.063                    20390013.090
 109397568.217 8  85244938.98346  20817670.539                    20817677.051
 115653737.962 8  90119894.18246  22008182.438                    22008192.105
 125320087.020 7  97652007.02344  23847606.156                    23847614.695
 131419178.40115 102404668.48952  25008222.555                    25008231.492
 133467904.703 6 104001045.77642  25398107.547                    25398118.738
 125096314.803 6  97477575.50843  23804959.852                    23804967.234
 136191171.30415                  25916332.500
 110388916.048 8  86017416.67246  21006260.109                    21006264.563
 115031807.823 7  89635316.36845  21889797.344                    21889804.113
 11  7 29  3  1 30.0000000  0 10G05G12G25G29G17G26G04G09G02G10
 107123972.815 8  83473338.30646  20384983.922                    20384990.695
 109417131.346 8  85260182.97746  20821392.547                    20821399.715
 115605640.488 8  90082415.65746  21999029.711                    21999039.336
 125237307.900 6  97587503.84744  23831853.352                    23831862.109
 131499132.099 6 102466970.12242  25023438.234                    25023446.211
 133379089.446 5 103931839.32542  25381206.719                    25381217.523
 125178378.934 7  97541521.57843  23820575.609                    23820584.188
 136263073.79915                  25930016.195
 110418801.422 8  86040703.99346  21011947.445                    21011951.773
 115107591.435 7  89694368.53445  21904218.258                    21904225.297
 11  7 29  3  2  0.0000000  0 10G05G12G25G29G17G26G04G09G02G10
 107098152.000 8  83453218.18747  20380070.086                    20380077.031
 109437268.456 8  85275874.22546  20825225.320                    20825231.734
 115558065.092 8  90045343.94846  21989976.828                    21989985.898
 125154497.373 7  97522976.23244  23816095.102                    23816103.746
 131579254.807 5 102529403.43542  25038683.734                    25038692.172
 133290061.348 6 103862466.94742  25364264.813                    25364275.570
 125260407.618 6  97605440.01043  23836185.469                    23836193.035
 136334723.748 5                  25943649.781
 110448831.869 8  86064104.33746  21017661.844                    21017666.465
 115183806.300 7  89753756.75945  21918721.539                    21918728.633
 11  7 29  3  2 30.0000000  0 10G05G12G25G29G17G26G04G09G02G10
 107072904.283 8  83433544.64147  20375265.641                    20375272.551
 109457980.259 8  85292013.29746  20829166.328                    20829173.250
 115511014.343 8  90008681.04046  21981022.930                    21981032.441
 125071657.064 6  97458425.45344  23800331.078                    23800339.566
 131659546.634 5                  25053963.234
 133200823.913 5 103792931.49842  25347283.469                    25347294.336
 125342401.151 6  97669331.07543  23851788.000                    23851796.152
 136406113.73415                  25957236.148
 110479007.752 8  86087618.00246  21023404.016                    21023408.711
 115260450.727 7  89813479.68045  21933305.891                    21933313.516
 11  7 29  3  3  0.0000000  0 10G05G12G25G29G17G26G04G09G02G10
 107048229.363 8  83414317.43947  20370570.203                    20370576.875
 109479264.493 8  85308598.40946  20833216.469                    20833223.449
 115464488.874 8  89972427.45546  21972169.594                    21972179.105
 124988786.810 6  97393851.26843  23784561.344                    23784569.438
 131740006.024 5                  25069274.727
 133111378.679 5 103723234.12242  25330262.180                    25330273.410
 125424357.994 6  97733193.49743  23867383.445                    23867391.621
 136477252.97814                  25970773.742
 110509327.508 8  86111243.75846  21029174.156                    21029178.539
 115337521.043 7  89873534.47345  21947972.266                    21947979.793
 11  7 29  3  3 30.0000000  0  9G05G12G25G29G17G26G04G02G10
 107024128.249 8  83395537.35446  20365983.867                    20365990.957
 109501121.125 8  85325629.55646  20837375.891                    20837382.328
 115418491.084 8  89936585.04745  21963416.328                    21963425.863
 124905888.456 6  97329255.20144  23768786.234                    23768794.152
 131820633.65415                  25084616.445
 133021728.74215 103653377.17952  25313202.383                    25313213.281
 125506278.194 7  97797027.39043  23882972.289                    23882980.902
 110539790.846 8  86134981.41446  21034970.820                    21034975.320
 115415015.082 7  89933919.45445  21962718.523                    21962725.965
 11  7 29  3  4  0.0000000  0  9G05G12G25G29G17G26G04G02G10
 107000601.578 8  83377204.89247  20361506.891                    20361513.941
 109523549.665 8  85343106.33546  20841643.641                    20841650.531
 115373022.473 8  89901154.98646  21954764.242                    21954773.711
 124822963.011 7  97264638.01244  23753006.094                    23753014.422
 131901428.629 5                  25099992.953
 132931876.50815 103583362.62252  25296103.523                    25296114.523
 125588161.346 6  97860832.42143  23898554.758                    23898562.398
 110570396.894 8  86158830.26046  21040794.586                    21040799.109
 115492930.216 7  89994632.55844  21977545.578                    21977552.898
 11  7 29  3  4 30.0000000  0 10G05G12G25G29G17G26G04G09G02G10
 106977648.168 8  83359319.13547  20357139.008                    20357146.211
 109546547.711 8  85361026.87946  20846019.906                    20846027.250
 115328083.220 8  89866137.41446  21946212.242                    21946221.695
 124740010.523 7  97199999.77244  23737220.117                    23737229.109
 131982389.285 5                  25115398.938
 132841823.24815 103513191.44052  25278966.336                    25278977.477
 125670005.306 6  97924606.96143  23914128.492                    23914137.023
 136689098.19515                  26011088.117
 110601143.406 8  86182788.57146  21046645.695                    21046650.574
 115571262.064 7  90055670.36245  21992451.469                    21992458.273
 11  7 29  3  5  0.0000000  0  9G05G12G25G29G17G26G04G02G10
 106955270.198 8  83341881.77746  20352880.063                    20352887.371
 109570115.817 8  85379391.63246  20850505.070                    20850511.730
 115283676.341 8  89831534.67646  21937761.891                    21937771.512
 124657033.467 7  97135342.40544  23721430.484                    23721439.074
 132063516.468 5                  25130836.039
 132751573.19316 103442866.85153  25261793.508                    25261803.672
 125751810.941 6  97988351.56743  23929696.594                    23929703.797
 110632031.010 8  86206856.82146  21052523.453                    21052528.734
 115650009.305 7  90117031.84245  22007437.055                    22007444.031
 11  7 29  3  5 30.0000000  0  9G05G12G25G29G17G26G04G02G10
 106933467.602 8  83324892.76646  20348731.375                    20348738.844
 109594252.695 8  85398199.58446  20855098.180                    20855104.703
 115239803.072 8  89797347.73746  21929413.063                    21929422.348
 124574032.289 7  97070666.20844  23705635.797                    23705644.152
 132144809.36215                  25146306.109
 132661128.420 6 103372390.53443  25244581.094                    25244592.703
 125833577.195 6  98052065.55043  23945255.477                    23945263.570
 110663058.837 8  86231034.33446  21058427.836                    21058432.570
 115729168.852 7  90178714.60745  22022500.266                    22022507.480
 11  7 29  3  6  0.0000000  0  9G05G12G25G29G17G26G04G02G10
 106912240.373 8  83308352.10147  20344691.922                    20344699.105
 109618957.184 8  85417449.82346  20859799.063                    20859806.082
 115196464.753 7  89763577.64446  21921166.078                    21921175.703
 124491007.835 6  97005971.89844  23689836.445                    23689845.367
 132226267.48614                  25161806.914
 132570491.405 6 103301764.47043  25227334.570                    25227343.938
 125915303.789 6  98115748.59143  23960807.469                    23960815.852
 110694225.889 8  86255320.34246  21064359.117                    21064363.359
 115808738.187 7  90240716.68045  22037641.852                    22037649.242
